[[{"header":{"parameterUnit":"m.s-1","parameterCategory":1,"la1":30.6,"la2":28.766,"lo1":-90.7593,"lo2":-88.6598,"dy":0.0162,"dx":0.0183,"nx":116,"ny":114,"refTime":"2023-07-17T00:00:00:Z","depth":0,"parameterNumber":2,"parameterNumberName":"U-component_of_WINDS"},"data":[0.0,0.0,0.0,0.0,0.0,0.0,0.0,0.0,0.0,0.0,0.0,0.0,0.0,0.0,0.0,0.0,0.0,0.0,0.0,0.0,0.0,0.0,0.0,0.0,0.0,0.0,0.0,0.0,0.0,0.0,0.0,0.0,0.0,0.0,0.0,0.0,0.0,0.0,0.0,0.0,0.0,0.0,0.0,0.0,0.0,0.0,0.0,0.0,0.0,0.0,0.0,0.0,0.0,0.0,0.0,0.0,0.0,0.0,0.0,0.0,0.0,0.0,0.0,0.0,0.0,0.0,0.0,0.0,0.0,0.0,0.0,0.0,0.0,0.0,0.0,0.0,0.0,0.0,0.0,0.0,0.0,0.0,0.0,0.0,0.0,0.0,0.0,0.0,0.0,0.0,0.0,0.0,0.0,0.0,0.0,0.0,0.0,0.0,0.0,0.0,0.0,0.0,0.0,0.0,0.0,0.0,0.0,0.0,0.0,0.0,0.0,0.0,0.0,0.0,0.0,0.0,0.0,0.0,0.0,0.0,0.0,0.0,0.0,0.0,0.0,0.0,0.0,0.0,0.0,0.0,0.0,0.0,0.0,0.0,0.0,0.0,0.0,0.0,0.0,0.0,0.0,0.0,0.0,0.0,0.0,0.0,0.0,0.0,0.0,0.0,0.0,0.0,0.0,0.0,0.0,0.0,0.0,0.0,0.0,0.0,0.0,0.0,0.0,0.0,0.0,0.0,0.0,0.0,0.0,0.0,0.0,0.0,0.0,0.0,0.0,0.0,0.0,0.0,0.0,0.0,0.0,0.0,0.0,0.0,0.0,0.0,0.0,0.0,0.0,0.0,0.0,0.0,0.0,0.0,0.0,0.0,0.0,0.0,0.0,0.0,0.0,0.0,0.0,0.0,0.0,0.0,0.0,0.0,0.0,0.0,0.0,0.0,0.0,0.0,0.0,0.0,0.0,0.0,0.0,0.0,0.0,0.0,0.0,0.0,0.0,0.0,0.0,0.0,0.0,0.0,0.0,0.0,0.0,0.0,0.0,0.0,0.0,0.0,0.0,0.0,0.0,0.0,0.0,0.0,0.0,0.0,0.0,0.0,0.0,0.0,0.0,0.0,0.0,0.0,0.0,0.0,0.0,0.0,0.0,0.0,0.0,0.0,0.0,0.0,0.0,0.0,0.0,0.0,0.0,0.0,0.0,0.0,0.0,0.0,0.0,0.0,0.0,0.0,0.0,0.0,0.0,0.0,0.0,0.0,0.0,0.0,0.0,0.0,0.0,0.0,0.0,0.0,0.0,0.0,0.0,0.0,0.0,0.0,0.0,0.0,0.0,0.0,0.0,0.0,0.0,0.0,0.0,0.0,0.0,0.0,0.0,0.0,0.0,0.0,0.0,0.0,0.0,0.0,0.0,0.0,0.0,0.0,0.0,0.0,0.0,0.0,0.0,0.0,0.0,0.0,0.0,0.0,0.0,0.0,0.0,0.0,0.0,0.0,0.0,0.0,0.0,0.0,0.0,0.0,0.0,0.0,0.0,0.0,0.0,0.0,0.0,0.0,0.0,0.0,0.0,0.0,0.0,0.0,0.0,0.0,0.0,0.0,0.0,0.0,0.0,0.0,0.0,0.0,0.0,0.0,0.0,0.0,0.0,0.0,0.0,0.0,0.0,0.0,0.0,0.0,0.0,0.0,0.0,0.0,0.0,0.0,0.0,0.0,0.0,0.0,0.0,0.0,0.0,0.0,0.0,0.0,0.0,0.0,0.0,0.0,0.0,0.0,0.0,0.0,0.0,0.0,0.0,0.0,0.0,0.0,0.0,0.0,0.0,0.0,0.0,0.0,0.0,0.0,0.0,0.0,0.0,0.0,0.0,0.0,0.0,0.0,0.0,0.0,0.0,0.0,0.0,0.0,0.0,0.0,0.0,0.0,0.0,0.0,0.0,0.0,0.0,0.0,0.0,0.0,0.0,0.0,0.0,0.0,0.0,0.0,0.0,0.0,0.0,0.0,0.0,0.0,0.0,0.0,0.0,0.0,0.0,0.0,0.0,0.0,0.0,0.0,0.0,0.0,0.0,0.0,0.0,0.0,0.0,0.0,0.0,0.0,0.0,0.0,0.0,0.0,0.0,0.0,0.0,0.0,0.0,0.0,0.0,0.0,0.0,0.0,0.0,0.0,0.0,0.0,0.0,0.0,0.0,0.0,0.0,0.0,0.0,0.0,0.0,0.0,0.0,0.0,0.0,0.0,0.0,0.0,0.0,0.0,0.0,0.0,0.0,0.0,0.0,0.0,0.0,0.0,0.0,0.0,0.0,0.0,0.0,0.0,0.0,0.0,0.0,0.0,0.0,0.0,0.0,0.0,0.0,0.0,0.0,0.0,0.0,0.0,0.0,0.0,0.0,0.0,0.0,0.0,0.0,0.0,0.0,0.0,0.0,0.0,0.0,0.0,0.0,0.0,0.0,0.0,0.0,0.0,0.0,0.0,0.0,0.0,0.0,0.0,0.0,0.0,0.0,0.0,0.0,0.0,0.0,0.0,0.0,0.0,0.0,0.0,0.0,0.0,0.0,0.0,0.0,0.0,0.0,0.0,0.0,0.0,0.0,0.0,0.0,0.0,0.0,0.0,0.0,0.0,0.0,0.0,0.0,0.0,0.0,0.0,0.0,0.0,0.0,0.0,0.0,0.0,0.0,0.0,0.0,0.0,0.0,0.0,0.0,0.0,0.0,0.0,0.0,0.0,0.0,0.0,0.0,0.0,0.0,0.0,0.0,0.0,0.0,0.0,0.0,0.0,0.0,0.0,0.0,0.0,0.0,0.0,0.0,0.0,0.0,0.0,0.0,0.0,0.0,0.0,0.0,0.0,0.0,0.0,0.0,0.0,0.0,0.0,0.0,0.0,0.0,0.0,0.0,0.0,0.0,0.0,0.0,0.0,0.0,0.0,0.0,0.0,0.0,0.0,0.0,0.0,0.0,0.0,0.0,0.0,0.0,0.0,0.0,0.0,0.0,0.0,0.0,0.0,0.0,0.0,0.0,0.0,0.0,0.0,0.0,0.0,0.0,0.0,0.0,0.0,0.0,0.0,0.0,0.0,0.0,0.0,0.0,0.0,0.0,0.0,0.0,0.0,0.0,0.0,0.0,0.0,0.0,0.0,0.0,0.0,0.0,0.0,0.0,0.0,0.0,0.0,0.0,0.0,0.0,0.0,0.0,0.0,0.0,0.0,0.0,0.0,0.0,0.0,0.0,0.0,0.0,0.0,0.0,0.0,0.0,0.0,0.0,0.0,0.0,0.0,0.0,0.0,0.0,0.0,0.0,0.0,0.0,0.0,0.0,0.0,0.0,0.0,0.0,0.0,0.0,0.0,0.0,0.0,0.0,0.0,0.0,0.0,0.0,0.0,0.0,0.0,0.0,0.0,0.0,0.0,0.0,0.0,0.0,0.0,0.0,0.0,0.0,0.0,0.0,0.0,0.0,0.0,0.0,0.0,0.0,0.0,0.0,0.0,0.0,0.0,0.0,0.0,0.0,0.0,0.0,0.0,0.0,0.0,0.0,0.0,0.0,0.0,0.0,0.0,0.0,0.0,0.0,0.0,0.0,0.0,0.0,0.0,0.0,0.0,0.0,0.0,0.0,0.0,0.0,0.0,0.0,0.0,0.0,0.0,0.0,0.0,0.0,0.0,0.0,0.0,0.0,0.0,0.0,0.0,0.0,0.0,0.0,0.0,0.0,0.0,0.0,0.0,0.0,0.0,0.0,0.0,0.0,0.0,0.0,0.0,0.0,0.0,0.0,0.0,0.0,0.0,0.0,0.0,0.0,0.0,0.0,0.0,0.0,0.0,0.0,0.0,0.0,0.0,0.0,0.0,0.0,0.0,0.0,0.0,0.0,0.0,0.0,0.0,0.0,0.0,0.0,0.0,0.0,0.0,0.0,0.0,0.0,0.0,0.0,0.0,0.0,0.0,0.0,0.0,0.0,0.0,0.0,0.0,0.0,0.0,0.0,0.0,0.0,0.0,0.0,0.0,0.0,0.0,0.0,0.0,0.0,0.0,0.0,0.0,0.0,0.0,0.0,0.0,0.0,0.0,0.0,0.0,0.0,0.0,0.0,0.0,0.0,0.0,0.0,0.0,0.0,0.0,0.0,0.0,0.0,0.0,0.0,0.0,0.0,0.0,0.0,0.0,0.0,0.0,0.0,0.0,0.0,0.0,0.0,0.0,0.0,0.0,0.0,0.0,0.0,0.0,0.0,0.0,0.0,0.0,0.0,0.0,0.0,0.0,0.0,0.0,0.0,0.0,0.0,0.0,0.0,0.0,0.0,0.0,0.0,0.0,0.0,0.0,0.0,0.0,0.0,0.0,0.0,0.0,0.0,0.0,0.0,0.0,0.0,0.0,0.0,0.0,0.0,0.0,0.0,0.0,0.0,0.0,0.0,0.0,0.0,0.0,0.0,0.0,0.0,0.0,0.0,0.0,0.0,0.0,0.0,0.0,0.0,0.0,0.0,0.0,0.0,0.0,0.0,0.0,0.0,0.0,0.0,0.0,0.0,0.0,0.0,0.0,0.0,0.0,0.0,0.0,0.0,0.0,0.0,0.0,0.0,0.0,0.0,0.0,0.0,0.0,0.0,0.0,0.0,0.0,0.0,0.0,0.0,0.0,0.0,0.0,0.0,0.0,0.0,0.0,0.0,0.0,0.0,0.0,0.0,0.0,0.0,0.0,0.0,0.0,0.0,0.0,0.0,0.0,0.0,0.0,0.0,0.0,0.0,0.0,0.0,0.0,0.0,0.0,0.0,0.0,0.0,0.0,0.0,0.0,0.0,0.0,0.0,0.0,0.0,0.0,0.0,0.0,0.0,0.0,0.0,0.0,0.0,0.0,0.0,0.0,0.0,0.0,0.0,0.0,0.0,0.0,0.0,0.0,0.0,0.0,0.0,0.0,0.0,0.0,0.0,0.0,0.0,0.0,0.0,0.0,0.0,0.0,0.0,0.0,0.0,0.0,0.0,0.0,0.0,0.0,0.0,0.0,0.0,0.0,0.0,0.0,0.0,0.0,0.0,0.0,0.0,0.0,0.0,0.0,0.0,0.0,0.0,0.0,0.0,0.0,0.0,0.0,0.0,0.0,0.0,0.0,0.0,0.0,0.0,0.0,0.0,0.0,0.0,0.0,0.0,0.0,0.0,0.0,0.0,0.0,0.0,0.0,0.0,0.0,0.0,0.0,0.0,0.0,0.0,0.0,0.0,0.0,0.0,0.0,0.0,0.0,0.0,0.0,0.0,0.0,0.0,0.0,0.0,0.0,0.0,0.0,0.0,0.0,0.0,0.0,0.0,0.0,0.0,0.0,0.0,0.0,0.0,0.0,0.0,0.0,0.0,0.0,0.0,0.0,0.0,0.0,0.0,0.0,0.0,0.0,0.0,0.0,0.0,0.0,0.0,0.0,0.0,0.0,0.0,0.0,0.0,0.0,0.0,0.0,0.0,0.0,0.0,0.0,0.0,0.0,0.0,0.0,0.0,0.0,0.0,0.0,0.0,0.0,0.0,0.0,0.0,0.0,0.0,0.0,0.0,0.0,0.0,0.0,0.0,0.0,0.0,0.0,0.0,0.0,0.0,0.0,0.0,0.0,0.0,0.0,0.0,0.0,0.0,0.0,0.0,0.0,0.0,0.0,0.0,0.0,0.0,0.0,0.0,0.0,0.0,0.0,0.0,0.0,0.0,0.0,0.0,0.0,0.0,0.0,0.0,0.0,0.0,0.0,0.0,0.0,0.0,0.0,0.0,0.0,0.0,0.0,0.0,0.0,0.0,0.0,0.0,0.0,0.0,0.0,0.0,0.0,0.0,0.0,0.0,0.0,0.0,0.0,0.0,0.0,0.0,0.0,0.0,0.0,0.0,0.0,0.0,0.0,0.0,0.0,0.0,0.0,0.0,0.0,0.0,0.0,0.0,0.0,0.0,0.0,0.0,0.0,0.0,0.0,0.0,0.0,0.0,0.0,0.0,0.0,0.0,0.0,0.0,0.0,0.0,0.0,0.0,0.0,0.0,0.0,0.0,0.0,0.0,0.0,0.0,0.0,0.0,0.0,-0.2471,0.0,0.0,0.0,0.0,0.0,0.0,0.0,0.0,0.0,0.0,0.0,0.0,0.0,0.0,0.0,0.0,0.0,0.0,0.0,0.0,0.0,0.0,0.0,0.0,0.0,0.0,0.0,0.0,0.0,0.0,0.0,0.0,0.0,0.0,0.0,0.0,0.0,0.0,0.0,0.0,0.0,0.0,0.0,0.0,0.0,0.0,0.0,0.0,0.0,0.0,0.0,0.0,0.0,0.0,0.0,0.0,0.0,0.0,0.0,0.0,0.0,0.0,0.0,0.0,0.0,0.0,0.0,0.0,0.0,0.0,0.0,0.0,0.0,0.0,0.0,0.0,0.0,0.0,0.0,0.0,0.0,0.0,0.0,0.0,0.0,0.0,0.0,0.0,0.0,0.0,0.0,0.0,0.0,0.0,0.0,0.0,0.0,0.0,0.0,0.0,0.0,0.0,0.0,0.0,0.0,0.0,0.0,0.0,0.0,0.0,0.0,0.0,0.0,0.0,0.0,0.0,-0.2677,0.0,0.0,0.0,0.0,0.0,0.0,0.0,0.0,0.0,0.0,0.0,0.0,0.0,0.0,0.0,0.0,0.0,0.0,0.0,0.0,0.0,0.0,0.0,0.0,0.0,0.0,0.0,0.0,0.0,0.0,0.0,0.0,0.0,0.0,0.0,0.0,0.0,0.0,0.0,0.0,0.0,0.0,0.0,0.0,0.0,0.0,0.0,0.0,0.0,0.0,0.0,0.0,0.0,0.0,0.0,0.0,0.0,0.0,0.0,0.0,0.0,0.0,0.0,0.0,0.0,0.0,0.0,0.0,0.0,0.0,0.0,0.0,0.0,0.0,0.0,0.0,0.0,0.0,0.0,0.0,0.0,0.0,0.0,0.0,0.0,0.0,0.0,0.0,0.0,0.0,0.0,0.0,0.0,0.0,0.0,0.0,0.0,0.0,0.0,0.0,0.0,0.0,0.0,0.0,0.0,0.0,0.0,0.0,-0.3343,-0.3471,-0.371,-0.371,-0.371,-0.3686,-0.3289,-0.3117,-0.3039,-0.3039,0.0,0.0,0.0,0.0,0.0,0.0,0.0,0.0,0.0,0.0,0.0,0.0,0.0,0.0,0.0,0.0,0.0,0.0,0.0,0.0,0.0,0.0,0.0,0.0,0.0,0.0,0.0,0.0,0.0,0.0,0.0,0.0,0.0,0.0,0.0,0.0,0.0,0.0,-0.4338,-0.4353,-0.4367,-0.4417,0.0,0.0,0.0,0.0,0.0,0.0,0.0,0.0,0.0,0.0,0.0,0.0,0.0,0.0,0.0,0.0,0.0,0.0,0.0,0.0,0.0,0.0,0.0,0.0,0.0,0.0,0.0,0.0,0.0,0.0,0.0,0.0,0.0,0.0,0.0,0.0,0.0,0.0,0.0,0.0,0.0,0.0,0.0,0.0,-0.1495,-0.1943,0.0,0.0,0.0,0.0,0.0,0.0,0.0,0.0,0.0,0.0,0.0,0.0,0.0,-0.3175,-0.3281,-0.342,-0.3607,-0.3781,-0.3781,-0.3969,-0.4205,-0.4205,-0.4205,-0.4202,-0.414,0.0,-0.349,-0.349,0.0,0.0,0.0,0.0,0.0,0.0,0.0,0.0,0.0,0.0,0.0,0.0,0.0,0.0,0.0,0.0,0.0,0.0,0.0,0.0,0.0,0.0,0.0,0.0,0.0,0.0,0.0,0.0,0.0,0.0,0.0,0.0,0.0,0.0,0.0,0.0,0.0,0.0,0.0,0.0,-0.5107,-0.5251,-0.4944,-0.4551,-0.411,-0.3826,0.0,0.0,0.0,0.0,0.0,0.0,0.0,0.0,0.0,0.0,0.0,0.0,0.0,0.0,0.0,0.0,0.0,0.0,0.0,0.0,0.0,0.0,0.0,0.0,0.0,0.0,0.0,0.0,0.0,0.0,0.0,0.0,0.0,0.0,0.0,0.0,0.0,0.0,0.0,-0.1641,-0.2012,-0.2304,-0.2562,-0.2726,0.0,0.0,0.0,0.0,0.0,0.0,0.0,0.0,0.0,-0.3436,-0.3561,-0.3678,-0.3803,-0.3925,-0.4069,-0.4235,-0.4306,-0.4431,-0.4602,-0.4673,-0.4703,-0.4703,-0.4703,-0.4586,-0.4368,-0.4099,-0.3861,-0.3673,0.0,0.0,0.0,0.0,-0.3055,-0.2993,0.0,0.0,0.0,0.0,0.0,0.0,0.0,0.0,0.0,0.0,0.0,0.0,0.0,0.0,0.0,-0.3821,0.0,0.0,0.0,0.0,0.0,0.0,0.0,0.0,0.0,0.0,0.0,0.0,0.0,0.0,0.0,0.0,0.0,0.0,0.0,-0.5477,-0.4734,-0.4358,-0.4206,0.0,0.0,0.0,0.0,0.0,0.0,0.0,0.0,0.0,0.0,0.0,0.0,0.0,0.0,0.0,0.0,0.0,0.0,0.0,0.0,0.0,0.0,0.0,0.0,0.0,0.0,0.0,0.0,0.0,0.0,0.0,0.0,0.0,0.0,0.0,0.0,0.0,0.0,-0.2164,-0.2471,-0.2714,-0.3108,-0.3315,0.0,0.0,0.0,0.0,0.0,0.0,-0.3395,-0.3517,-0.3691,-0.3989,-0.4056,-0.4178,-0.43,-0.4423,-0.4542,-0.4654,-0.4746,-0.4852,-0.4974,-0.5064,-0.5108,-0.5108,-0.5108,-0.5028,-0.4996,-0.4584,-0.4271,-0.4057,-0.3889,-0.3689,-0.3502,-0.3338,-0.3344,-0.3362,0.0,0.0,0.0,0.0,0.0,0.0,0.0,0.0,0.0,0.0,0.0,0.0,0.0,0.0,-0.4108,-0.4414,-0.4646,-0.4649,0.0,0.0,0.0,0.0,0.0,0.0,0.0,0.0,0.0,0.0,0.0,0.0,0.0,0.0,0.0,0.0,0.0,0.0,0.0,-0.4999,-0.4707,-0.4467,0.0,0.0,0.0,0.0,0.0,0.0,0.0,0.0,0.0,0.0,0.0,0.0,0.0,0.0,0.0,0.0,0.0,0.0,0.0,0.0,0.0,0.0,0.0,0.0,0.0,0.0,0.0,0.0,0.0,0.0,0.0,0.0,0.0,0.0,0.0,0.0,0.0,0.0,0.0,-0.3307,-0.3657,0.0,0.0,0.0,0.0,-0.3602,-0.371,-0.377,-0.3832,-0.4015,-0.4189,-0.4425,-0.4624,-0.4675,-0.4795,-0.492,-0.504,-0.5151,-0.5156,-0.5224,-0.5341,-0.5349,-0.5352,-0.5352,-0.5352,-0.5272,-0.5007,-0.4765,-0.4585,-0.4344,-0.4018,-0.3812,-0.3803,-0.3638,-0.3661,-0.3736,0.0,0.0,0.0,0.0,0.0,0.0,0.0,0.0,0.0,0.0,0.0,0.0,0.0,-0.4271,-0.4711,-0.481,-0.5138,-0.526,-0.5042,0.0,0.0,0.0,0.0,0.0,0.0,0.0,0.0,0.0,0.0,0.0,0.0,0.0,0.0,0.0,0.0,0.0,0.0,0.0,0.0,-0.5078,-0.4718,-0.4362,0.0,0.0,0.0,0.0,0.0,0.0,0.0,0.0,0.0,0.0,0.0,0.0,0.0,0.0,0.0,0.0,0.0,0.0,0.0,0.0,0.0,0.0,0.0,0.0,0.0,0.0,0.0,0.0,0.0,0.0,0.0,0.0,0.0,0.0,0.0,0.0,0.0,-0.3738,-0.4157,0.0,-0.4192,-0.4329,-0.4265,-0.4039,-0.4151,-0.4268,-0.439,-0.4512,-0.4686,-0.4923,-0.4972,-0.5053,-0.5178,-0.5222,-0.5262,-0.5306,-0.5464,-0.5561,-0.5608,-0.576,-0.5831,-0.5828,-0.5871,-0.57,-0.5463,-0.5159,-0.4794,-0.4338,-0.4223,-0.407,-0.3934,-0.3901,-0.3912,-0.3938,0.0,0.0,0.0,0.0,0.0,0.0,0.0,0.0,0.0,0.0,0.0,-0.3806,-0.4141,-0.4752,-0.524,-0.5338,-0.5618,-0.5737,-0.5558,0.0,0.0,0.0,0.0,0.0,0.0,0.0,0.0,0.0,0.0,0.0,0.0,0.0,0.0,0.0,0.0,0.0,0.0,0.0,0.0,0.0,-0.5378,-0.5009,-0.4608,0.0,0.0,0.0,0.0,0.0,0.0,0.0,0.0,0.0,0.0,0.0,0.0,0.0,0.0,0.0,0.0,0.0,0.0,0.0,0.0,0.0,0.0,0.0,0.0,0.0,0.0,0.0,0.0,0.0,0.0,0.0,0.0,0.0,0.0,0.0,-0.3996,-0.4294,-0.4674,-0.4852,-0.4614,-0.4791,-0.473,-0.4474,-0.4624,-0.4746,-0.4828,-0.495,-0.5086,-0.5243,-0.5328,-0.5409,-0.5491,-0.5572,-0.561,-0.5613,-0.5773,-0.5852,-0.5858,-0.6013,-0.6086,-0.6083,-0.6128,-0.5933,-0.5672,-0.5366,-0.4954,-0.45,-0.4359,-0.4274,-0.4214,-0.4181,-0.4189,-0.4216,0.0,0.0,0.0,0.0,0.0,0.0,0.0,0.0,0.0,0.0,-0.3467,-0.4119,-0.4665,-0.5187,-0.5663,-0.6083,-0.6163,-0.6143,-0.593,-0.577,0.0,0.0,0.0,0.0,0.0,0.0,0.0,0.0,0.0,0.0,0.0,0.0,0.0,0.0,0.0,0.0,0.0,0.0,0.0,0.0,-0.6124,-0.5788,-0.5514,0.0,0.0,0.0,0.0,0.0,0.0,0.0,0.0,0.0,0.0,0.0,0.0,0.0,0.0,0.0,0.0,0.0,0.0,0.0,0.0,0.0,0.0,0.0,0.0,0.0,0.0,0.0,0.0,0.0,0.0,0.0,0.0,0.0,-0.3805,-0.4026,-0.4385,-0.488,-0.5199,-0.5309,-0.5041,-0.5292,-0.5222,-0.4849,-0.5061,-0.5195,-0.5197,-0.5314,-0.5382,-0.5385,-0.5619,-0.5744,-0.5744,-0.5972,-0.6086,-0.6086,-0.6089,-0.6092,-0.6092,-0.6094,-0.6097,-0.6097,-0.6097,-0.5959,-0.5709,-0.5405,-0.5186,-0.494,-0.4591,-0.4493,-0.4561,-0.4471,-0.4496,-0.4573,0.0,0.0,0.0,0.0,0.0,0.0,0.0,0.0,0.0,0.0,-0.3771,-0.43,-0.4787,-0.5453,-0.5911,-0.6032,-0.633,-0.6465,-0.6299,0.0,0.0,0.0,0.0,0.0,0.0,0.0,0.0,0.0,0.0,0.0,0.0,0.0,0.0,0.0,0.0,0.0,0.0,0.0,0.0,0.0,-0.6927,-0.6399,-0.5958,0.0,0.0,0.0,0.0,0.0,0.0,0.0,0.0,0.0,0.0,0.0,0.0,0.0,0.0,0.0,0.0,0.0,0.0,0.0,0.0,0.0,0.0,0.0,0.0,0.0,0.0,0.0,0.0,0.0,0.0,0.0,0.0,-0.4243,-0.4086,-0.4509,-0.4975,-0.5209,-0.5599,-0.5759,-0.5679,-0.5696,-0.5604,-0.5462,-0.5366,-0.5358,-0.5445,-0.5567,-0.567,-0.5754,-0.5907,-0.5988,-0.5988,-0.6053,-0.6086,-0.6086,-0.6176,-0.6219,-0.6222,-0.6304,-0.6339,-0.6339,-0.6339,-0.6134,-0.5922,-0.5841,-0.5664,-0.5363,-0.4791,-0.4551,-0.4569,-0.4545,-0.4551,-0.4581,0.0,0.0,0.0,0.0,0.0,0.0,0.0,0.0,0.0,0.0,-0.4076,-0.4542,-0.5044,-0.5739,-0.6134,-0.6221,-0.6503,-0.6652,-0.6544,0.0,0.0,0.0,0.0,0.0,0.0,0.0,0.0,0.0,0.0,0.0,0.0,0.0,0.0,0.0,0.0,0.0,0.0,0.0,0.0,0.0,-0.7702,-0.7184,-0.6682,-0.6269,-0.6008,-0.581,-0.5436,-0.5144,-0.4869,-0.4717,0.0,0.0,0.0,0.0,0.0,0.0,0.0,0.0,0.0,0.0,0.0,0.0,0.0,0.0,0.0,0.0,0.0,0.0,0.0,0.0,0.0,0.0,0.0,0.0,-0.4592,-0.4779,-0.4884,-0.5142,-0.5426,-0.5705,-0.5966,-0.613,-0.6096,-0.6163,-0.6034,-0.578,-0.5746,-0.5659,-0.5692,-0.5765,-0.5858,-0.5975,-0.61,-0.6162,-0.6162,-0.6208,-0.6233,-0.6233,-0.6304,-0.6339,-0.6342,-0.6407,-0.6437,-0.6437,-0.6437,-0.6337,-0.6139,-0.6042,-0.5939,0.0,0.0,0.0,0.0,0.0,-0.4683,-0.4689,0.0,0.0,0.0,0.0,0.0,0.0,0.0,0.0,0.0,0.0,0.0,-0.4785,-0.5353,-0.589,-0.6298,-0.647,-0.6623,-0.673,0.0,0.0,0.0,0.0,0.0,0.0,0.0,0.0,0.0,0.0,0.0,0.0,0.0,0.0,0.0,0.0,0.0,0.0,0.0,0.0,0.0,-0.8406,-0.83,-0.7979,-0.746,-0.6968,-0.6668,-0.6481,-0.6346,-0.5932,-0.5534,-0.5514,0.0,0.0,0.0,0.0,0.0,0.0,0.0,0.0,0.0,0.0,0.0,0.0,0.0,0.0,0.0,0.0,0.0,0.0,0.0,0.0,0.0,0.0,0.0,0.0,-0.5128,-0.5376,-0.5793,-0.5772,-0.5857,-0.624,-0.6315,-0.6358,-0.6443,-0.6518,-0.6436,-0.6019,-0.6128,-0.6071,-0.6009,0.0,0.0,0.0,0.0,-0.6287,-0.6287,-0.6385,-0.6437,-0.6437,-0.6437,-0.6437,-0.6437,-0.6437,-0.6437,-0.6437,-0.6437,-0.6437,-0.6337,-0.6139,-0.6052,-0.5964,-0.5448,-0.524,-0.514,-0.4937,-0.4834,-0.4834,0.0,0.0,0.0,0.0,0.0,0.0,0.0,0.0,0.0,-0.3644,-0.4095,-0.4628,-0.5334,-0.57,-0.599,-0.6241,-0.6507,-0.6728,0.0,0.0,0.0,0.0,0.0,0.0,0.0,0.0,0.0,0.0,0.0,0.0,0.0,0.0,0.0,0.0,0.0,0.0,0.0,-0.8911,-0.8803,-0.8757,-0.8435,-0.8057,-0.7679,-0.7427,-0.7224,-0.7029,-0.6704,-0.6448,-0.6177,-0.6095,-0.5904,-0.5643,-0.5458,0.0,0.0,0.0,0.0,0.0,0.0,0.0,0.0,0.0,0.0,0.0,0.0,0.0,0.0,0.0,0.0,0.0,0.0,0.0,0.0,-0.5382,-0.5681,-0.5928,-0.6142,-0.6352,-0.6471,-0.6434,-0.6651,-0.682,-0.6793,-0.6757,-0.6802,-0.6828,-0.6678,-0.6566,-0.6415,-0.6519,-0.6495,-0.6233,-0.6344,-0.6404,-0.6404,-0.6426,-0.6437,-0.6437,0.0,0.0,-0.6437,-0.6437,-0.6437,-0.6437,-0.6437,-0.6437,-0.6437,-0.6337,-0.6212,-0.6107,-0.5682,-0.5438,-0.524,-0.514,-0.4937,-0.4834,0.0,0.0,0.0,0.0,0.0,0.0,0.0,0.0,0.0,0.0,-0.4039,-0.4575,-0.5009,-0.5481,-0.5837,-0.6096,-0.6536,0.0,0.0,0.0,0.0,0.0,0.0,0.0,0.0,0.0,0.0,0.0,0.0,0.0,0.0,0.0,0.0,0.0,0.0,-0.9432,-0.9262,-0.9174,-0.9087,-0.9069,-0.8618,-0.8296,-0.8035,-0.777,-0.7456,-0.7204,-0.7025,-0.6786,-0.6542,-0.6453,-0.6241,-0.6063,-0.5908,-0.5758,-0.549,0.0,0.0,0.0,0.0,0.0,0.0,0.0,0.0,0.0,0.0,0.0,0.0,0.0,0.0,-0.4629,0.0,0.0,-0.5484,-0.5864,-0.6108,-0.6332,-0.6563,-0.6722,-0.6787,-0.6709,-0.6834,-0.6956,-0.7027,-0.7011,-0.6943,-0.6998,-0.6917,-0.6821,-0.6828,-0.6903,-0.6778,-0.655,-0.6608,-0.6539,-0.6437,-0.6437,-0.6467,-0.6526,-0.6467,-0.6469,-0.6526,-0.6464,-0.6437,-0.6437,-0.6437,-0.6472,-0.6532,-0.6594,-0.6564,-0.6524,-0.6238,-0.6002,-0.5585,-0.5333,-0.5211,-0.5101,0.0,0.0,0.0,0.0,0.0,0.0,0.0,0.0,0.0,0.0,0.0,-0.445,-0.4628,-0.5162,-0.5659,0.0,0.0,0.0,0.0,0.0,0.0,0.0,0.0,0.0,0.0,0.0,0.0,0.0,0.0,0.0,-0.9332,-0.9715,-0.9826,-0.9689,-0.9689,-0.9607,-0.9432,-0.9349,-0.9327,-0.9278,-0.8854,-0.8576,-0.8363,-0.7936,-0.7606,-0.7269,-0.724,-0.7017,-0.6741,-0.6704,-0.6473,-0.626,-0.626,-0.6141,-0.588,-0.5534,-0.5342,0.0,0.0,0.0,0.0,0.0,0.0,0.0,0.0,0.0,-0.4773,-0.4992,-0.507,-0.522,-0.5644,-0.5837,-0.6023,-0.6302,-0.6468,-0.6647,-0.6895,-0.6953,-0.697,-0.697,-0.697,-0.7014,-0.7129,-0.7139,-0.7128,-0.7132,-0.7145,-0.7172,-0.7158,-0.7174,-0.703,-0.6842,-0.6845,-0.6653,-0.6472,-0.6472,-0.6532,-0.6654,-0.6554,-0.6559,-0.6651,-0.6554,-0.6507,-0.6507,-0.6507,-0.6562,-0.6662,-0.676,-0.6817,-0.6836,-0.6836,-0.6637,-0.6214,-0.5772,-0.5507,-0.548,0.0,0.0,0.0,0.0,0.0,0.0,0.0,0.0,0.0,0.0,0.0,0.0,0.0,0.0,0.0,0.0,0.0,0.0,0.0,0.0,0.0,0.0,0.0,0.0,-0.8649,-0.8867,-0.8946,-0.8946,-0.9174,-0.9303,-0.9327,-0.9568,-0.9776,-0.9951,-0.9951,-0.9951,-0.9864,-0.9689,-0.9506,-0.9262,-0.8972,-0.8656,-0.8317,-0.7979,-0.765,-0.7435,-0.7281,-0.7094,-0.697,-0.6733,-0.655,-0.6388,-0.6388,-0.6262,-0.617,-0.6129,0.0,-0.5518,-0.5372,-0.5119,-0.5007,-0.5334,-0.5359,-0.5381,0.0,0.0,-0.5567,-0.5545,-0.5613,-0.5803,-0.6125,-0.6302,-0.6451,-0.6624,-0.678,-0.6892,-0.6922,-0.7037,-0.7115,-0.7115,-0.7115,-0.7122,-0.7139,-0.7139,-0.7261,-0.7553,-0.7577,-0.7512,-0.7505,-0.7521,-0.7329,-0.6842,-0.6845,-0.6695,-0.6597,-0.6597,-0.666,-0.6782,-0.6768,-0.6768,-0.6782,-0.6766,-0.676,-0.676,-0.676,-0.6768,-0.6782,-0.6796,-0.6866,-0.6964,-0.6964,-0.7027,-0.6976,-0.6435,-0.6083,-0.5794,0.0,0.0,0.0,0.0,0.0,0.0,0.0,0.0,0.0,0.0,0.0,0.0,0.0,0.0,0.0,0.0,0.0,0.0,-0.6372,-0.6934,-0.7296,-0.7386,-0.7918,-0.827,-0.8405,-0.8626,-0.8842,-0.8976,-0.9194,-0.9335,-0.9308,-0.9534,-0.9595,-0.9587,-0.9587,-0.9587,-0.9587,-0.9503,-0.9368,-0.9285,-0.8923,-0.8622,-0.8349,-0.7929,-0.7495,-0.7165,-0.7126,-0.6952,0.0,0.0,-0.6566,-0.642,-0.642,-0.6367,-0.6282,-0.624,-0.61,0.0,-0.5864,-0.5747,0.0,0.0,-0.6172,-0.624,-0.6405,-0.6316,-0.6215,-0.63,-0.6228,-0.6257,-0.6478,-0.6637,-0.6759,0.0,-0.6956,-0.7051,-0.7051,-0.7102,-0.7139,-0.7139,-0.7139,-0.7139,-0.7139,-0.7139,-0.7268,-0.7577,-0.76,-0.7634,-0.7826,-0.7842,-0.7643,-0.7244,-0.7217,-0.7082,-0.683,-0.6796,-0.6787,-0.6907,-0.6836,-0.6839,-0.6907,-0.6834,-0.6801,-0.6806,-0.6877,-0.691,-0.6912,-0.698,-0.7037,-0.7084,-0.7084,-0.7111,-0.7135,-0.664,-0.6442,-0.6174,0.0,0.0,0.0,0.0,0.0,0.0,0.0,0.0,0.0,0.0,0.0,0.0,0.0,0.0,0.0,0.0,0.0,0.0,0.0,-0.6608,-0.708,-0.7306,-0.7701,0.0,-0.8252,-0.8485,-0.8722,-0.8959,-0.9127,-0.9205,-0.933,-0.9414,-0.9465,-0.9409,-0.9409,-0.9327,-0.9322,-0.9266,-0.9204,-0.9133,-0.8779,-0.8498,-0.8282,-0.7803,-0.7324,-0.6899,-0.6896,-0.6761,0.0,0.0,-0.6384,-0.6274,-0.6274,-0.6302,-0.6319,-0.6248,-0.6281,-0.6298,-0.6294,0.0,0.0,-0.6834,-0.6977,-0.7005,-0.7171,-0.7076,-0.6882,-0.6921,-0.6813,-0.6713,-0.6742,-0.6888,-0.6987,-0.6987,-0.7075,-0.7139,-0.7139,-0.7139,-0.7139,-0.7139,-0.7139,-0.7139,-0.7139,-0.7139,-0.7268,-0.7577,-0.76,-0.7729,-0.8024,-0.8038,-0.7859,-0.7701,-0.7496,-0.7273,-0.7139,-0.6915,-0.6912,-0.7029,-0.6942,-0.6945,-0.7029,-0.694,-0.6899,-0.6904,-0.6994,-0.7032,-0.7037,-0.7122,-0.7154,-0.7154,-0.7154,-0.7154,-0.7143,-0.684,-0.679,-0.6632,0.0,0.0,0.0,0.0,0.0,0.0,0.0,0.0,0.0,0.0,0.0,0.0,0.0,0.0,0.0,0.0,0.0,0.0,0.0,-0.6116,-0.6493,-0.7272,-0.7333,-0.7679,-0.8495,-0.8522,-0.862,-0.8865,-0.8876,-0.9042,-0.9332,-0.9342,-0.9418,-0.9586,-0.9586,-0.9495,-0.9313,-0.9115,-0.8911,-0.8703,-0.85,-0.8292,-0.8056,-0.7444,-0.7095,-0.6959,-0.6758,0.0,0.0,0.0,-0.5908,-0.5904,-0.5904,-0.6018,0.0,-0.6211,-0.64,0.0,0.0,0.0,-0.7236,-0.7415,-0.7598,-0.778,-0.771,-0.7671,-0.7593,-0.7184,-0.7228,-0.7168,-0.6919,-0.7037,-0.7132,-0.7132,-0.7136,-0.7139,-0.7139,-0.7139,-0.7139,-0.7139,-0.7139,-0.7139,0.0,-0.7139,-0.7268,-0.7577,-0.76,-0.7729,-0.8024,-0.8038,-0.8006,-0.7942,-0.7542,-0.736,-0.7399,-0.7083,-0.7037,-0.7149,-0.7146,-0.7146,-0.7149,-0.7146,-0.7143,-0.7143,-0.7146,-0.7149,-0.7149,-0.7154,-0.7154,-0.7154,-0.7154,-0.7154,-0.7154,-0.7149,-0.7078,-0.6983,0.0,0.0,0.0,0.0,0.0,0.0,0.0,0.0,0.0,0.0,0.0,0.0,0.0,0.0,0.0,0.0,0.0,0.0,0.0,-0.5791,-0.6244,-0.6504,-0.711,-0.7516,-0.7684,-0.7996,-0.8332,-0.8615,-0.8615,-0.8785,-0.9016,-0.9016,-0.903,-0.8956,-0.8807,-0.8733,-0.8649,-0.8503,-0.8354,-0.8269,-0.807,-0.7867,-0.7655,-0.7302,-0.6819,-0.6294,0.0,0.0,0.0,0.0,0.0,0.0,-0.5888,0.0,0.0,-0.644,-0.6599,-0.6773,0.0,0.0,-0.7468,-0.776,-0.7975,-0.813,-0.8102,-0.8033,-0.7994,-0.7716,-0.7484,-0.7232,-0.7042,-0.6898,-0.6848,-0.6848,-0.6936,-0.7,-0.7,-0.7082,-0.7139,-0.7139,-0.7139,0.0,0.0,0.0,0.0,-0.7577,-0.76,-0.7729,-0.8024,-0.8038,-0.8009,-0.816,-0.7946,-0.7768,-0.7624,-0.7497,-0.734,-0.7154,-0.7154,-0.7154,-0.7154,-0.7154,-0.7154,-0.7154,-0.7154,-0.7154,-0.7154,-0.7154,-0.7154,-0.7154,-0.7154,-0.7154,-0.7154,-0.7154,-0.713,-0.7086,0.0,0.0,0.0,0.0,0.0,0.0,0.0,0.0,0.0,0.0,0.0,0.0,0.0,0.0,0.0,0.0,0.0,0.0,0.0,0.0,-0.5785,-0.607,-0.6677,-0.7059,-0.7231,-0.7478,-0.7819,-0.8191,-0.8135,-0.8308,-0.8627,-0.8627,-0.8607,-0.8417,-0.8353,-0.8216,-0.8069,-0.7918,-0.7817,-0.7735,-0.7532,-0.7371,-0.7225,-0.6936,-0.6515,0.0,0.0,0.0,0.0,0.0,0.0,0.0,0.0,-0.5998,-0.6302,-0.6599,-0.6826,-0.7049,0.0,-0.7622,-0.7825,-0.8057,-0.8251,-0.839,-0.839,-0.834,-0.8166,-0.7975,-0.7517,-0.7148,-0.6962,-0.6781,-0.662,-0.662,-0.6749,-0.6865,-0.6922,-0.7007,-0.7085,-0.7136,-0.7139,-0.7139,0.0,0.0,0.0,-0.758,-0.7648,-0.778,-0.8028,-0.8038,-0.8133,-0.834,-0.8125,-0.8049,-0.8019,-0.7781,-0.7493,-0.7154,-0.7154,-0.7154,-0.7154,-0.7154,-0.7154,-0.7154,-0.7154,-0.7154,-0.7154,-0.7154,-0.7154,-0.7154,-0.7154,-0.7154,-0.7154,-0.7154,-0.7154,-0.7143,0.0,0.0,0.0,0.0,0.0,0.0,0.0,0.0,0.0,0.0,0.0,0.0,0.0,0.0,0.0,0.0,0.0,0.0,0.0,0.0,0.0,-0.6007,-0.6089,-0.6372,-0.7008,-0.6935,-0.7076,-0.7555,-0.7408,-0.7645,-0.8153,-0.8153,-0.8158,-0.8125,-0.8125,-0.7926,-0.7653,-0.7438,-0.7288,-0.7154,-0.6889,-0.6744,-0.6702,-0.63,0.0,0.0,0.0,0.0,0.0,0.0,0.0,0.0,0.0,0.0,-0.6457,-0.666,-0.7082,-0.7488,-0.7516,-0.7898,-0.8292,-0.8304,-0.8438,-0.8564,-0.8556,-0.841,-0.8187,-0.7916,-0.748,-0.7009,0.0,0.0,-0.6441,-0.6447,-0.6576,-0.6732,-0.6895,-0.6922,-0.6983,0.0,0.0,0.0,0.0,0.0,0.0,-0.76,0.0,-0.7879,-0.8031,-0.8045,-0.8184,-0.8472,-0.8174,-0.8207,-0.8481,-0.7937,-0.7493,-0.7265,-0.7265,-0.7265,-0.7265,-0.7265,-0.7265,-0.7265,-0.7265,-0.7265,-0.7265,-0.7265,-0.7265,-0.7265,-0.7265,-0.7265,-0.7265,-0.7265,-0.7265,-0.7265,0.0,0.0,0.0,0.0,0.0,0.0,0.0,0.0,0.0,0.0,0.0,0.0,0.0,0.0,0.0,0.0,0.0,0.0,0.0,0.0,0.0,0.0,0.0,0.0,0.0,-0.6435,-0.6642,-0.68,0.0,-0.7171,-0.7354,-0.7354,-0.7386,0.0,-0.7224,-0.711,-0.6929,-0.6761,-0.6572,-0.645,0.0,-0.6152,-0.6124,0.0,0.0,0.0,0.0,0.0,0.0,0.0,0.0,0.0,0.0,0.0,-0.653,-0.711,-0.7374,-0.7569,-0.7975,-0.8187,-0.8325,-0.8463,-0.8532,-0.8532,-0.8394,-0.8219,-0.793,-0.7509,-0.7049,-0.664,0.0,0.0,0.0,-0.6122,-0.6271,0.0,-0.6722,-0.6858,0.0,0.0,0.0,-0.7187,-0.7302,-0.7451,0.0,0.0,-0.779,-0.7879,-0.8031,-0.815,-0.8296,-0.8476,-0.8488,-0.8524,-0.8484,-0.8156,-0.7823,-0.7823,-0.7823,-0.7823,-0.7823,-0.7823,-0.7823,-0.7823,-0.7823,-0.7823,-0.7823,-0.7823,-0.7823,-0.7823,-0.7823,-0.7823,-0.7823,-0.7823,-0.7823,-0.7823,0.0,0.0,0.0,0.0,0.0,0.0,0.0,0.0,0.0,0.0,0.0,0.0,0.0,0.0,0.0,0.0,0.0,0.0,0.0,0.0,0.0,0.0,0.0,0.0,0.0,-0.5821,-0.6067,0.0,0.0,0.0,0.0,-0.6622,-0.6676,-0.6783,-0.668,-0.6525,-0.6364,0.0,0.0,0.0,0.0,0.0,0.0,0.0,0.0,0.0,0.0,0.0,0.0,0.0,0.0,-0.5795,-0.6152,-0.6444,-0.6761,-0.7317,0.0,-0.7801,-0.8187,-0.8349,-0.8438,-0.8544,-0.8507,-0.8418,-0.8312,-0.8028,-0.7624,-0.7198,-0.6664,0.0,0.0,0.0,0.0,0.0,0.0,0.0,-0.6464,-0.6695,-0.6885,0.0,-0.7163,0.0,-0.7363,-0.7567,-0.7726,0.0,-0.7872,-0.7946,-0.8035,-0.8187,-0.8336,-0.8476,-0.8632,-0.8672,-0.8484,-0.8266,-0.8156,-0.8045,-0.8045,-0.8045,-0.8045,-0.8045,-0.8045,-0.8045,0.0,-0.8045,-0.8045,-0.8045,-0.8045,-0.8045,-0.8045,-0.8045,-0.8045,-0.8045,-0.8045,-0.8045,0.0,0.0,0.0,0.0,0.0,0.0,0.0,0.0,0.0,0.0,0.0,0.0,0.0,0.0,0.0,0.0,0.0,0.0,0.0,0.0,0.0,0.0,0.0,0.0,0.0,0.0,0.0,0.0,0.0,0.0,0.0,0.0,0.0,0.0,0.0,0.0,0.0,0.0,0.0,0.0,0.0,0.0,0.0,0.0,0.0,0.0,0.0,0.0,0.0,0.0,-0.5441,-0.5953,-0.6335,-0.6684,-0.7101,-0.7435,-0.7772,-0.8061,-0.8268,-0.8442,-0.8568,-0.8568,-0.8426,-0.8276,-0.8231,-0.7801,-0.7279,-0.6931,0.0,-0.5686,-0.5357,0.0,-0.5121,-0.5277,0.0,-0.5781,-0.6183,-0.6565,-0.6819,-0.7083,-0.7265,-0.7356,-0.7397,-0.7634,-0.7797,-0.7838,-0.7963,-0.8048,-0.8069,-0.8214,-0.8374,-0.8537,-0.8672,-0.8692,-0.8595,-0.8598,-0.8377,-0.8156,-0.8156,-0.8156,-0.8156,-0.8156,-0.8165,-0.818,-0.8165,-0.8171,-0.819,-0.8168,-0.8156,-0.8156,-0.8156,-0.8156,-0.8156,-0.8156,-0.8156,-0.8156,0.0,0.0,0.0,0.0,0.0,0.0,0.0,0.0,0.0,0.0,-0.3692,0.0,0.0,0.0,0.0,0.0,0.0,0.0,0.0,0.0,0.0,0.0,0.0,0.0,0.0,0.0,0.0,0.0,0.0,0.0,0.0,0.0,0.0,0.0,0.0,0.0,0.0,0.0,0.0,0.0,0.0,0.0,0.0,0.0,0.0,0.0,0.0,0.0,0.0,0.0,-0.5441,-0.5977,-0.6489,-0.679,-0.7151,-0.7732,-0.7963,-0.8089,-0.8426,-0.8544,-0.8568,-0.8568,-0.8426,-0.8211,-0.7748,-0.7202,0.0,0.0,0.0,-0.5088,-0.489,-0.4769,0.0,-0.4972,0.0,0.0,0.0,0.0,-0.6617,0.0,0.0,0.0,0.0,0.0,0.0,0.0,0.0,-0.8096,-0.8225,-0.8367,-0.8574,-0.8852,-0.8886,-0.8803,-0.8826,-0.8826,-0.8826,-0.8716,-0.8716,-0.8716,-0.8716,-0.8716,-0.889,-0.8994,-0.8765,0.0,-0.8944,-0.8782,-0.8716,-0.8716,-0.8716,-0.8716,-0.8716,-0.8716,-0.8716,-0.8716,0.0,0.0,0.0,0.0,0.0,0.0,0.0,0.0,0.0,0.0,-0.373,-0.389,0.0,0.0,0.0,0.0,0.0,0.0,0.0,0.0,0.0,0.0,0.0,0.0,0.0,0.0,0.0,0.0,0.0,0.0,0.0,0.0,0.0,0.0,0.0,0.0,0.0,0.0,0.0,0.0,0.0,0.0,0.0,0.0,0.0,0.0,0.0,0.0,0.0,0.0,-0.5316,-0.5722,-0.6351,-0.6737,-0.713,-0.7581,-0.787,-0.8073,-0.8349,-0.84,-0.836,-0.8277,-0.7966,-0.7613,-0.7273,0.0,0.0,0.0,0.0,-0.4748,-0.4426,0.0,0.0,0.0,0.0,0.0,0.0,0.0,0.0,0.0,0.0,0.0,0.0,0.0,0.0,0.0,0.0,-0.8106,-0.8262,-0.8479,-0.8706,-0.893,-0.894,-0.894,-0.894,-0.894,-0.894,-0.894,-0.894,-0.894,-0.894,-0.894,-0.8977,-0.9035,-0.8967,0.0,-0.9076,-0.8977,-0.894,-0.894,-0.894,-0.894,-0.894,-0.894,-0.894,-0.894,0.0,0.0,0.0,0.0,0.0,0.0,0.0,-0.289,-0.3143,-0.3553,-0.3775,-0.3869,-0.378,-0.3731,-0.3661,0.0,0.0,0.0,0.0,0.0,0.0,0.0,0.0,0.0,0.0,0.0,0.0,0.0,0.0,0.0,0.0,0.0,0.0,0.0,0.0,0.0,0.0,0.0,0.0,0.0,0.0,0.0,0.0,0.0,0.0,0.0,0.0,0.0,0.0,0.0,-0.498,-0.529,-0.5875,-0.6489,-0.6924,-0.7354,-0.7679,-0.7865,-0.8086,-0.8076,-0.7974,-0.7932,-0.7472,-0.7006,-0.6805,-0.6253,0.0,0.0,-0.4752,-0.4372,-0.4009,0.0,0.0,0.0,0.0,0.0,0.0,0.0,0.0,0.0,0.0,0.0,0.0,0.0,0.0,0.0,0.0,0.0,-0.8309,-0.8598,-0.8815,-0.8933,-0.894,-0.894,-0.894,-0.894,-0.894,-0.894,-0.894,-0.894,-0.894,-0.894,-0.8954,-0.8984,-0.895,0.0,0.0,-0.8964,-0.894,-0.894,-0.894,-0.894,-0.894,-0.894,-0.894,-0.894,0.0,0.0,0.0,0.0,0.0,0.0,0.0,-0.3068,-0.3227,-0.3872,-0.3917,-0.3848,-0.3731,-0.371,-0.3661,0.0,0.0,0.0,0.0,0.0,0.0,0.0,0.0,0.0,0.0,0.0,0.0,0.0,0.0,0.0,0.0,0.0,0.0,0.0,0.0,0.0,0.0,0.0,0.0,0.0,0.0,0.0,0.0,0.0,0.0,0.0,0.0,0.0,0.0,0.0,0.0,-0.4779,-0.5037,-0.573,-0.6603,-0.7281,0.0,0.0,-0.7628,-0.7646,-0.7492,-0.7477,-0.7217,-0.6809,-0.6353,0.0,0.0,0.0,-0.4106,-0.3739,-0.3792,-0.3707,0.0,0.0,0.0,0.0,0.0,0.0,0.0,0.0,0.0,0.0,0.0,0.0,0.0,0.0,0.0,0.0,-0.8462,-0.8754,-0.8923,-0.894,-0.894,-0.894,-0.894,-0.894,-0.894,-0.894,-0.894,-0.894,-0.894,-0.894,-0.9011,-0.9127,-0.8994,0.0,0.0,-0.8937,-0.894,-0.894,-0.894,-0.894,-0.894,-0.894,-0.894,-0.894,0.0,0.0,0.0,0.0,0.0,0.0,0.0,-0.3123,-0.3283,-0.3918,-0.3939,-0.3848,-0.371,-0.371,-0.3668,0.0,0.0,0.0,0.0,0.0,0.0,0.0,0.0,0.0,0.0,0.0,0.0,0.0,0.0,0.0,0.0,0.0,0.0,0.0,0.0,0.0,0.0,0.0,0.0,0.0,0.0,0.0,0.0,0.0,0.0,0.0,0.0,0.0,0.0,0.0,0.0,0.0,-0.4699,-0.5053,0.0,0.0,-0.6637,-0.6853,-0.7011,-0.6995,-0.6885,-0.6787,-0.6446,-0.6011,-0.5797,0.0,0.0,-0.4375,-0.3931,-0.3612,-0.3578,-0.3523,-0.3554,0.0,0.0,0.0,0.0,0.0,0.0,0.0,0.0,0.0,0.0,0.0,0.0,0.0,0.0,0.0,-0.8482,-0.8771,-0.894,-0.894,-0.894,-0.894,-0.894,-0.894,-0.894,-0.894,-0.894,-0.894,-0.894,-0.894,-0.8967,-0.9022,-0.8964,0.0,0.0,-0.8988,-0.894,-0.894,-0.894,-0.894,-0.894,-0.894,-0.894,-0.894,0.0,0.0,0.0,0.0,0.0,0.0,-0.2968,-0.3074,-0.3278,-0.3781,-0.3872,-0.3848,-0.371,-0.371,-0.3647,-0.3506,0.0,0.0,0.0,0.0,0.0,0.0,0.0,0.0,0.0,0.0,0.0,0.0,0.0,0.0,0.0,0.0,0.0,0.0,0.0,0.0,0.0,0.0,0.0,0.0,0.0,0.0,0.0,0.0,0.0,0.0,0.0,0.0,0.0,0.0,0.0,0.0,0.0,0.0,0.0,0.0,-0.5911,-0.6134,-0.635,-0.6346,-0.6257,-0.6147,-0.578,-0.5403,0.0,0.0,0.0,-0.41,-0.3727,-0.3412,-0.3344,-0.3324,-0.3392,0.0,0.0,-0.4247,0.0,0.0,0.0,0.0,0.0,0.0,0.0,0.0,0.0,0.0,0.0,0.0,-0.8692,-0.8946,-0.8999,-0.8937,-0.894,-0.894,-0.894,-0.894,-0.894,-0.894,-0.894,-0.894,-0.894,-0.894,-0.894,-0.894,-0.894,0.0,0.0,-0.894,-0.894,-0.894,-0.894,-0.894,-0.894,-0.894,-0.894,-0.894,0.0,0.0,0.0,0.0,0.0,0.0,0.0,-0.293,-0.3193,-0.3462,-0.373,-0.3848,-0.371,-0.371,-0.3647,-0.3506,0.0,0.0,0.0,0.0,0.0,0.0,0.0,0.0,0.0,0.0,0.0,-0.3704,-0.4108,0.0,0.0,0.0,0.0,0.0,0.0,0.0,0.0,0.0,0.0,0.0,0.0,0.0,0.0,0.0,0.0,0.0,0.0,0.0,0.0,0.0,0.0,0.0,0.0,0.0,0.0,0.0,-0.535,-0.5294,-0.5607,-0.5564,-0.5435,-0.5435,-0.525,-0.5057,0.0,0.0,0.0,-0.368,-0.3341,-0.3124,-0.3085,-0.3124,-0.3222,-0.3531,-0.3829,0.0,-0.4626,0.0,0.0,0.0,0.0,0.0,0.0,0.0,0.0,0.0,0.0,0.0,-0.9321,-0.9371,-0.9316,-0.8933,-0.894,-0.894,-0.894,-0.894,-0.894,-0.894,-0.894,-0.894,-0.894,-0.894,-0.894,-0.894,0.0,0.0,0.0,-0.894,-0.894,-0.894,-0.894,-0.894,-0.894,-0.894,-0.894,-0.894,0.0,0.0,0.0,0.0,0.0,0.0,0.0,-0.2767,-0.29,-0.3129,-0.3429,-0.3557,-0.3367,-0.3563,-0.3647,-0.3506,0.0,0.0,0.0,0.0,0.0,0.0,0.0,0.0,0.0,0.0,0.0,-0.3644,-0.3986,-0.4129,-0.4096,0.0,0.0,0.0,0.0,0.0,0.0,0.0,0.0,0.0,0.0,0.0,0.0,0.0,0.0,0.0,0.0,0.0,0.0,0.0,0.0,0.0,0.0,0.0,0.0,0.0,0.0,0.0,-0.4939,-0.4961,-0.4901,-0.4901,-0.4789,-0.4683,-0.4601,0.0,0.0,-0.3842,-0.3384,-0.2978,-0.3015,-0.3056,-0.3151,-0.3249,-0.369,-0.4141,0.0,0.0,0.0,0.0,0.0,0.0,0.0,0.0,0.0,0.0,0.0,0.0,-0.9157,-0.9414,-0.9533,-0.9482,-0.9485,-0.9485,-0.9485,-0.9485,-0.9485,-0.9485,-0.9485,-0.9485,-0.9485,-0.9485,-0.9372,0.0,0.0,0.0,0.0,-0.9045,-0.9195,-0.943,-0.9539,-0.9695,-0.9795,-0.9796,-0.9528,-0.9402,0.0,0.0,0.0,0.0,0.0,0.0,0.0,-0.2617,-0.2725,-0.2807,-0.3098,-0.3242,-0.3069,-0.3325,-0.3454,-0.332,0.0,0.0,0.0,0.0,0.0,0.0,0.0,0.0,0.0,-0.3495,-0.3644,-0.3569,-0.3899,-0.4064,-0.4026,-0.3863,-0.3733,0.0,0.0,0.0,0.0,0.0,0.0,0.0,0.0,0.0,-0.2782,0.0,0.0,0.0,0.0,0.0,0.0,0.0,0.0,0.0,0.0,0.0,0.0,0.0,-0.3484,0.0,0.0,-0.445,-0.4549,-0.4608,-0.4422,0.0,0.0,0.0,0.0,0.0,0.0,-0.291,-0.2946,-0.3025,-0.3158,-0.3273,-0.3704,-0.4144,0.0,0.0,0.0,0.0,0.0,0.0,0.0,0.0,0.0,0.0,0.0,0.0,-0.9376,-0.9642,-0.9869,-1.0046,-0.9896,-0.9816,-0.9816,-0.9816,-0.9816,-0.9816,-0.9816,-0.9816,-0.9816,-0.9816,-0.9699,0.0,0.0,0.0,0.0,-0.9427,-0.9603,-0.9843,-1.0007,-1.0189,-1.0282,-1.0114,-0.9938,-0.9803,0.0,0.0,0.0,0.0,0.0,0.0,0.0,0.0,0.0,0.0,-0.2763,-0.2915,-0.2783,-0.301,-0.3119,0.0,0.0,0.0,0.0,0.0,0.0,0.0,0.0,0.0,0.0,-0.3495,-0.3623,-0.3499,-0.3838,-0.3966,-0.3911,-0.3719,-0.3625,-0.362,-0.3554,0.0,0.0,0.0,0.0,0.0,0.0,0.0,0.0,0.0,0.0,0.0,0.0,0.0,0.0,0.0,0.0,0.0,0.0,0.0,0.0,0.0,0.0,0.0,0.0,0.0,0.0,0.0,0.0,0.0,0.0,0.0,0.0,0.0,0.0,0.0,0.0,-0.3035,-0.3232,-0.3531,-0.3836,-0.4189,0.0,0.0,0.0,0.0,0.0,0.0,0.0,0.0,0.0,0.0,0.0,0.0,-0.986,-1.0042,-1.0225,-1.0408,-1.0039,-0.9805,-0.9816,-0.9816,-0.9816,-0.9816,-0.9816,-0.9816,-0.9816,-0.9816,-0.9809,0.0,0.0,0.0,0.0,-0.9999,-1.0183,-1.0201,-1.0267,-1.0338,-1.0431,-1.0247,-1.0183,-1.0044,0.0,0.0,0.0,0.0,0.0,0.0,0.0,0.0,0.0,0.0,-0.2444,-0.2571,-0.2428,-0.2703,0.0,0.0,0.0,0.0,0.0,0.0,0.0,0.0,0.0,0.0,0.0,-0.3414,-0.3564,-0.3413,-0.3807,-0.4046,-0.4113,-0.3939,-0.3804,-0.3765,-0.3621,0.0,0.0,0.0,0.0,0.0,0.0,0.0,0.0,0.0,0.0,0.0,-0.2712,-0.2712,0.0,0.0,0.0,0.0,0.0,0.0,0.0,0.0,-0.2866,-0.2944,-0.2968,0.0,-0.3597,-0.364,0.0,0.0,0.0,0.0,0.0,0.0,0.0,0.0,0.0,0.0,-0.3316,-0.3551,-0.3927,-0.4257,0.0,0.0,0.0,0.0,0.0,0.0,0.0,0.0,0.0,0.0,0.0,-0.9545,-0.9685,-0.9855,-1.0034,-1.0221,-1.0297,-1.0341,-1.0472,-1.0472,-1.0472,-1.0472,-1.0472,-1.0472,-1.0472,-1.0472,-1.0359,0.0,0.0,0.0,-0.9824,-1.0122,-1.0356,-1.0616,-1.0917,-1.128,-1.1367,-1.1049,-1.0815,-1.0547,0.0,0.0,0.0,0.0,0.0,0.0,0.0,0.0,0.0,0.0,0.0,0.0,0.0,0.0,0.0,0.0,0.0,0.0,0.0,0.0,0.0,0.0,0.0,0.0,-0.2961,-0.335,-0.3488,-0.3353,-0.3846,-0.4074,-0.4054,-0.3999,-0.3897,-0.3819,-0.3585,-0.334,-0.3105,0.0,0.0,0.0,-0.2782,0.0,0.0,0.0,0.0,0.0,-0.2712,-0.2712,0.0,-0.2712,-0.2712,-0.2712,0.0,0.0,0.0,0.0,-0.274,-0.2805,-0.2732,-0.2944,-0.3202,-0.3119,-0.3162,-0.3165,0.0,0.0,0.0,0.0,0.0,0.0,0.0,0.0,0.0,0.0,-0.4144,0.0,0.0,0.0,0.0,0.0,0.0,0.0,0.0,0.0,0.0,0.0,0.0,-0.9628,-0.9628,-0.9791,-0.9933,-1.003,-1.0294,-1.0517,-1.0688,-1.0692,-1.0692,-1.0692,-1.0692,-1.0692,-1.0692,-1.0692,-1.0578,0.0,0.0,0.0,-1.0272,-1.0619,-1.0763,-1.1029,-1.1383,-1.1647,-1.1732,-1.1358,-1.1109,-1.0942,0.0,0.0,0.0,0.0,0.0,0.0,0.0,0.0,0.0,0.0,0.0,0.0,0.0,0.0,0.0,0.0,0.0,0.0,0.0,0.0,0.0,0.0,0.0,-0.3026,-0.2935,-0.3302,-0.3428,-0.3317,-0.3883,-0.4099,-0.3962,-0.3998,-0.3957,-0.3851,-0.3448,-0.3201,-0.3043,-0.2882,0.0,0.0,-0.2716,0.0,0.0,0.0,0.0,0.0,0.0,0.0,0.0,-0.2671,-0.2678,-0.2649,-0.2673,0.0,0.0,0.0,0.0,0.0,-0.2712,-0.2827,-0.2898,-0.2744,-0.2838,-0.2939,0.0,0.0,0.0,0.0,0.0,0.0,0.0,0.0,0.0,0.0,0.0,0.0,0.0,0.0,0.0,0.0,0.0,0.0,0.0,0.0,0.0,0.0,0.0,-0.9628,-0.9628,-0.9766,-0.9868,-0.9925,-1.0229,-1.0489,-1.0688,-1.0692,-1.0692,-1.0692,-1.0692,-1.0692,-1.0692,-1.0692,-1.0692,-1.0692,0.0,0.0,-1.0716,-1.1049,-1.1183,-1.122,-1.1561,-1.1691,-1.165,-1.1309,-1.1183,-1.1135,0.0,0.0,0.0,0.0,0.0,0.0,0.0,0.0,0.0,0.0,0.0,0.0,0.0,0.0,0.0,0.0,0.0,0.0,0.0,0.0,0.0,0.0,-0.2966,-0.2973,-0.3075,-0.3299,-0.3422,-0.3462,-0.3851,-0.4057,-0.4158,-0.4117,-0.3918,-0.3651,-0.3411,-0.3135,-0.2849,-0.2815,-0.2782,-0.2716,-0.2712,0.0,0.0,0.0,0.0,0.0,0.0,0.0,0.0,-0.2476,-0.2486,-0.2479,-0.2639,0.0,0.0,0.0,0.0,0.0,-0.2712,-0.2713,-0.2747,-0.2713,-0.281,-0.2897,0.0,0.0,0.0,0.0,0.0,0.0,0.0,0.0,0.0,0.0,0.0,0.0,0.0,0.0,0.0,0.0,0.0,0.0,0.0,0.0,0.0,0.0,0.0,-0.9628,-0.9628,-0.9652,-0.9807,-1.0111,-1.0172,-1.0359,-1.0688,-1.0692,-1.0692,-1.0692,-1.0692,-1.0692,-1.0692,-1.0692,-1.0692,-1.0692,0.0,-1.0692,-1.0708,-1.0919,-1.1009,-1.1029,-1.1228,-1.1309,-1.1281,-1.1082,-1.1009,-1.0976,0.0,0.0,0.0,0.0,0.0,0.0,0.0,0.0,0.0,0.0,0.0,0.0,0.0,0.0,0.0,0.0,0.0,0.0,0.0,0.0,0.0,0.0,-0.2783,-0.2878,-0.309,-0.322,-0.3384,-0.3555,-0.3932,-0.4125,-0.4161,-0.4089,-0.387,-0.3575,-0.3334,-0.3066,-0.2782,-0.2749,-0.2716,-0.2712,0.0,0.0,0.0,0.0,0.0,0.0,0.0,0.0,0.0,0.0,-0.2366,-0.2318,-0.2388,0.0,0.0,0.0,0.0,0.0,-0.2589,-0.2651,-0.2733,-0.2781,-0.2856,-0.2927,0.0,0.0,0.0,0.0,0.0,0.0,0.0,0.0,0.0,0.0,0.0,0.0,0.0,0.0,0.0,0.0,0.0,0.0,0.0,0.0,0.0,0.0,0.0,0.0,-0.9628,-0.9713,-0.9803,-0.9981,-1.016,-1.0343,-1.0519,-1.0599,-1.0692,-1.0692,-1.0692,-1.0692,-1.0692,-1.0692,-1.0692,-1.0692,0.0,-1.0692,-1.0708,-1.0891,-1.0968,-1.0984,-1.1155,-1.1224,-1.12,-1.1033,-1.0907,-1.0806,0.0,0.0,0.0,0.0,0.0,0.0,0.0,0.0,0.0,0.0,0.0,0.0,0.0,0.0,0.0,0.0,0.0,0.0,0.0,0.0,-0.2336,-0.2597,-0.2661,-0.2836,-0.3148,-0.3171,-0.3345,-0.3675,-0.3994,-0.413,-0.4148,-0.4028,-0.3834,-0.3578,-0.3297,-0.3027,-0.2782,-0.2716,-0.2692,-0.2661,0.0,0.0,0.0,0.0,0.0,0.0,0.0,0.0,0.0,0.0,0.0,0.0,0.0,0.0,0.0,-0.2191,-0.2335,-0.252,-0.2527,-0.2623,-0.2723,0.0,0.0,0.0,0.0,0.0,0.0,0.0,0.0,0.0,0.0,0.0,0.0,0.0,0.0,0.0,0.0,0.0,0.0,0.0,0.0,0.0,0.0,0.0,0.0,0.0,0.0,0.0,-0.9727,-0.9996,-1.015,-1.0162,-1.0502,-1.0588,-1.0611,-1.067,-1.0806,-1.0692,-1.0692,-1.0692,-1.0692,-1.0692,-1.0692,-1.0692,-1.0692,-1.0692,-1.0704,-1.0846,-1.0907,-1.0919,-1.1045,-1.1098,-1.1082,-1.0952,-1.0814,-1.0692,0.0,0.0,0.0,0.0,0.0,0.0,0.0,0.0,0.0,0.0,0.0,0.0,0.0,0.0,0.0,0.0,0.0,0.0,0.0,0.0,-0.2392,-0.2597,-0.2661,-0.2879,-0.3291,-0.3218,-0.3421,-0.3889,-0.3959,-0.4124,-0.4295,-0.4047,-0.3758,-0.3509,-0.3224,-0.2958,-0.2712,-0.2712,-0.263,-0.25,-0.25,0.0,0.0,0.0,0.0,0.0,0.0,0.0,0.0,0.0,0.0,0.0,0.0,0.0,-0.215,-0.2398,-0.2472,-0.2513,-0.2658,-0.2706,-0.2751,-0.3035,0.0,0.0,0.0,0.0,0.0,0.0,0.0,0.0,0.0,0.0,0.0,0.0,0.0,0.0,0.0,0.0,0.0,0.0,0.0,0.0,0.0,0.0,0.0,0.0,0.0,0.0,-0.992,-1.0401,-1.068,-1.0944,-1.112,-1.1202,-1.1088,-1.1017,-1.0924,-1.0692,-1.0692,-1.0692,-1.0692,-1.0692,-1.0692,-1.0692,-1.0692,-1.0692,-1.0692,-1.0708,-1.0712,-1.0712,-1.0724,-1.0729,-1.0729,-1.0716,-1.0704,-1.0692,0.0,0.0,0.0,0.0,0.0,0.0,0.0,0.0,0.0,0.0,0.0,0.0,0.0,0.0,0.0,0.0,0.0,0.0,0.0,0.0,-0.2145,-0.2336,-0.2411,-0.2664,-0.3114,-0.3101,-0.3301,-0.3765,-0.3805,-0.3848,-0.3854,-0.3644,-0.3418,-0.3239,-0.3007,-0.2835,-0.2706,-0.2609,-0.2537,-0.2476,-0.2357,-0.2232,0.0,0.0,0.0,0.0,0.0,0.0,0.0,0.0,-0.1773,-0.1806,0.0,-0.1929,-0.196,-0.2133,-0.2245,-0.235,-0.253,-0.2709,-0.2869,-0.3073,0.0,0.0,0.0,0.0,0.0,0.0,0.0,0.0,0.0,0.0,0.0,0.0,0.0,0.0,0.0,0.0,0.0,0.0,0.0,0.0,0.0,0.0,0.0,0.0,0.0,0.0,-1.0216,-1.061,-1.0949,-1.0989,-1.1313,-1.1463,-1.1428,-1.1463,-1.1362,-1.124,-1.1021,-1.0911,-1.0911,-1.1126,-1.124,-1.124,-1.124,-1.1131,-1.0911,-1.0911,-1.0802,-1.0692,-1.0692,-1.0692,-1.0692,-1.0692,-1.0692,-1.0692,0.0,0.0,0.0,0.0,0.0,0.0,0.0,0.0,0.0,0.0,0.0,0.0,0.0,0.0,0.0,0.0,0.0,0.0,0.0,-0.1822,-0.1987,-0.2196,-0.2263,-0.2517,-0.2993,-0.2918,-0.3113,-0.3595,-0.3659,-0.3659,-0.3578,-0.3374,-0.3226,-0.3104,-0.2883,-0.2749,-0.2702,-0.2548,-0.2455,-0.24,-0.2197,-0.205,0.0,0.0,0.0,0.0,0.0,0.0,0.0,0.0,0.0,0.0,0.0,0.0,0.0,0.0,-0.213,-0.2251,-0.2503,-0.2747,-0.3024,0.0,0.0,0.0,0.0,0.0,0.0,0.0,0.0,0.0,0.0,0.0,0.0,0.0,0.0,0.0,0.0,0.0,0.0,0.0,0.0,0.0,0.0,0.0,0.0,0.0,0.0,0.0,0.0,-1.0981,-1.1236,-1.1212,-1.1621,-1.1773,-1.1751,-1.1778,-1.1682,-1.1568,-1.145,-1.1345,-1.124,-1.1459,-1.1568,-1.1568,-1.1568,-1.1459,-1.1236,-1.1126,-1.0911,-1.0692,-1.0692,-1.0692,-1.0692,-1.0692,-1.0692,-1.0692,0.0,0.0,0.0,0.0,0.0,0.0,0.0,0.0,0.0,0.0,0.0,0.0,0.0,0.0,0.0,0.0,0.0,0.0,0.0,-0.1822,-0.1981,-0.2196,-0.2263,-0.2517,-0.2988,-0.2728,-0.2859,-0.3392,-0.3594,-0.3655,-0.3575,-0.3334,-0.3151,-0.3104,-0.2815,-0.2712,-0.2702,-0.2548,-0.2367,-0.2197,-0.2043,-0.1916,-0.1803,0.0,0.0,0.0,0.0,0.0,0.0,0.0,-0.1759,0.0,0.0,0.0,0.0,0.0,-0.2211,-0.2274,-0.2601,-0.2891,0.0,0.0,0.0,0.0,0.0,0.0,0.0,0.0,0.0,0.0,0.0,0.0,0.0,0.0,0.0,0.0,0.0,0.0,0.0,0.0,0.0,0.0,0.0,0.0,0.0,0.0,0.0,0.0,0.0,-1.1489,-1.1817,-1.1817,-1.2224,-1.2323,-1.1982,-1.1982,-1.1882,-1.1568,-1.1878,-1.1882,-1.1568,-1.1568,-1.1568,-1.1568,-1.1568,-1.1568,-1.1568,-1.1236,-1.0911,-1.0692,-1.0692,-1.0692,-1.0692,-1.0692,-1.0692,-1.0692,0.0,0.0,0.0,0.0,0.0,0.0,0.0,0.0,0.0,0.0,0.0,0.0,0.0,0.0,0.0,0.0,0.0,0.0,0.0,-0.1655,-0.1792,-0.219,-0.2135,-0.231,-0.2772,-0.2655,-0.2741,-0.3044,-0.3249,-0.3332,-0.3259,-0.3068,-0.2944,-0.2883,0.0,-0.2712,-0.2699,-0.2411,-0.2251,-0.2187,-0.1954,-0.1844,-0.1803,0.0,0.0,0.0,0.0,0.0,0.0,0.0,0.0,0.0,0.0,0.0,0.0,-0.2249,-0.237,-0.2492,-0.2929,0.0,0.0,0.0,0.0,0.0,0.0,0.0,0.0,0.0,0.0,0.0,0.0,0.0,0.0,0.0,0.0,0.0,0.0,0.0,0.0,0.0,0.0,0.0,0.0,0.0,0.0,0.0,0.0,0.0,0.0,-1.159,-1.1817,-1.1817,-1.2224,-1.2327,-1.2323,-1.2323,-1.2219,-1.2114,-1.2219,-1.211,-1.1896,-1.2114,-1.2114,-1.2114,-1.2114,-1.2114,-1.1896,-1.1568,-1.124,-1.1021,-1.1021,-1.0911,-1.0692,-1.0692,-1.0692,-1.0692,0.0,0.0,0.0,0.0,0.0,0.0,0.0,0.0,0.0,0.0,0.0,0.0,0.0,0.0,0.0,0.0,0.0,0.0,0.0,0.0,-0.17,-0.2137,-0.2051,-0.2178,-0.2562,-0.2599,-0.2642,-0.2753,-0.2977,-0.3039,-0.2975,-0.2939,-0.2874,-0.2782,0.0,-0.2712,-0.2695,-0.2361,-0.2232,-0.2205,-0.195,-0.1825,-0.1803,0.0,0.0,0.0,0.0,0.0,0.0,0.0,0.0,0.0,0.0,0.0,0.0,-0.2355,-0.2476,-0.2589,-0.309,0.0,0.0,0.0,0.0,0.0,0.0,0.0,0.0,0.0,0.0,0.0,0.0,0.0,0.0,0.0,0.0,0.0,0.0,0.0,0.0,0.0,0.0,0.0,0.0,0.0,0.0,0.0,0.0,0.0,0.0,-1.1515,-1.1737,-1.1813,-1.2143,-1.2361,-1.2441,-1.2441,-1.2441,-1.2441,-1.2361,-1.221,-1.1999,-1.2295,-1.2441,-1.2441,-1.2441,-1.2223,-1.2005,-1.1787,-1.1568,-1.135,-1.135,-1.1131,-1.0911,-1.0911,-1.0802,-1.0692,0.0,0.0,0.0,0.0,0.0,0.0,0.0,0.0,0.0,0.0,0.0,0.0,0.0,0.0,0.0,0.0,0.0,0.0,0.0,0.0,-0.171,-0.2084,-0.2075,-0.2163,-0.2394,-0.2515,-0.253,-0.2477,-0.2737,-0.2864,-0.28,0.0,-0.286,-0.2815,0.0,-0.2712,-0.2692,-0.2441,-0.2335,-0.2306,-0.202,-0.1872,-0.1803,-0.1825,0.0,0.0,0.0,0.0,0.0,0.0,0.0,0.0,0.0,0.0,-0.2069,-0.2389,-0.2496,-0.2618,0.0,0.0,0.0,0.0,0.0,0.0,0.0,0.0,0.0,0.0,0.0,0.0,0.0,0.0,0.0,0.0,0.0,0.0,0.0,0.0,0.0,0.0,0.0,0.0,0.0,0.0,0.0,0.0,0.0,0.0,0.0,-1.1401,-1.1605,-1.1784,-1.1997,-1.2195,-1.238,-1.2384,-1.2384,-1.238,-1.2195,-1.211,-1.212,-1.2299,-1.2394,-1.2413,-1.2432,-1.2219,-1.2005,-1.2005,-1.1896,-1.1678,-1.1678,-1.1459,-1.1126,-1.1126,-1.0911,-1.0692,0.0,0.0,0.0,0.0,0.0,0.0,0.0,0.0,0.0,0.0,0.0,0.0,0.0,0.0,0.0,0.0,0.0,0.0,0.0,0.0,-0.19,-0.2094,-0.2335,-0.2447,-0.2398,-0.2373,-0.2328,-0.2256,-0.258,-0.2802,0.0,0.0,0.0,-0.3043,0.0,-0.2871,-0.2849,-0.2561,-0.248,-0.2504,-0.2118,-0.1942,-0.1894,-0.1942,-0.1964,0.0,0.0,0.0,0.0,0.0,0.0,0.0,-0.1986,-0.203,-0.2117,-0.2297,-0.2483,0.0,0.0,0.0,0.0,0.0,0.0,0.0,0.0,0.0,0.0,0.0,0.0,0.0,0.0,0.0,0.0,0.0,0.0,0.0,0.0,0.0,0.0,0.0,0.0,0.0,0.0,0.0,0.0,0.0,0.0,0.0,-1.1194,-1.1401,-1.1539,-1.1581,-1.1779,-1.1907,-1.195,-1.195,-1.195,0.0,-1.1907,-1.1888,-1.1888,-1.1931,-1.2044,-1.2214,-1.237,-1.2332,-1.2327,-1.2327,-1.2114,-1.1896,-1.1896,-1.1787,-1.1459,-1.1236,-1.1017,-1.1021,0.0,0.0,0.0,0.0,0.0,0.0,0.0,0.0,0.0,0.0,0.0,0.0,0.0,0.0,0.0,0.0,0.0,0.0,0.0,0.0,0.0,-0.2196,-0.2426,-0.2517,-0.2446,-0.2376,-0.2311,-0.2241,0.0,0.0,0.0,0.0,0.0,-0.3105,0.0,-0.29,-0.2882,-0.2677,-0.259,-0.2531,-0.2192,-0.203,-0.1986,-0.2008,-0.2008,-0.2008,-0.2008,0.0,0.0,0.0,0.0,0.0,0.0,0.0,-0.2136,-0.2327,-0.2556,-0.2855,0.0,0.0,0.0,0.0,0.0,0.0,0.0,0.0,0.0,0.0,0.0,0.0,0.0,0.0,0.0,0.0,0.0,0.0,0.0,0.0,0.0,0.0,0.0,0.0,0.0,0.0,0.0,0.0,0.0,-1.1389,-1.1389,-1.1599,-1.181,-1.1917,-1.2025,-1.2128,-1.223,-1.2024,-1.2024,-1.2024,-1.1718,-1.1619,-1.1524,-1.1723,-1.1879,-1.1992,-1.2096,-1.2139,-1.2148,-1.2252,-1.2187,-1.2093,-1.2186,-1.2005,-1.1787,-1.1564,-1.1345,-1.1126,0.0,0.0,0.0,0.0,0.0,0.0,0.0,0.0,0.0,0.0,0.0,0.0,0.0,0.0,0.0,0.0,0.0,0.0,0.0,0.0,0.0,0.0,-0.2463,-0.2495,-0.2495,-0.2425,-0.2376,-0.2307,0.0,0.0,0.0,0.0,0.0,-0.3105,0.0,-0.2937,-0.2951,-0.28,-0.2649,-0.2508,-0.2247,-0.2128,-0.21,-0.2034,-0.2008,-0.2008,-0.2008,-0.2008,-0.2008,-0.2008,0.0,0.0,0.0,0.0,-0.2168,-0.2386,-0.263,-0.2905,0.0,0.0,0.0,0.0,0.0,0.0,0.0,0.0,0.0,0.0,0.0,0.0,0.0,0.0,0.0,0.0,0.0,0.0,0.0,0.0,0.0,0.0,0.0,0.0,0.0,0.0,0.0,0.0,0.0,-1.1683,-1.1683,-1.1883,-1.2066,-1.2258,-1.2264,-1.2349,-1.2526,-1.2322,-1.2118,-1.2118,-1.1644,-1.1368,-1.1208,-1.1553,-1.1732,-1.1765,-1.1803,-1.1817,-1.1836,-1.2049,-1.2139,-1.2157,-1.2361,-1.2219,-1.211,-1.2005,-1.1673,-1.1236,0.0,0.0,0.0,0.0,0.0,0.0,0.0,0.0,0.0,0.0,0.0,0.0,0.0,0.0,0.0,0.0,0.0,0.0,-0.2157,0.0,0.0,-0.2646,-0.2562,-0.2495,-0.2495,-0.2425,-0.2376,0.0,0.0,0.0,0.0,0.0,0.0,-0.3175,0.0,0.0,-0.3163,-0.2958,-0.2785,-0.266,-0.2449,-0.2255,-0.21,-0.21,-0.2078,-0.2078,-0.2078,-0.2078,-0.2078,-0.2078,-0.21,0.0,0.0,0.0,-0.2202,-0.2227,-0.2552,0.0,0.0,0.0,0.0,0.0,0.0,0.0,0.0,0.0,0.0,0.0,0.0,0.0,0.0,0.0,0.0,0.0,0.0,0.0,0.0,0.0,0.0,0.0,0.0,0.0,0.0,0.0,0.0,0.0,-1.1883,-1.198,-1.198,-1.1975,-1.1991,-1.2026,-1.2026,-1.2041,-1.2066,-1.2066,-1.187,-1.1673,-1.1349,-1.1222,-1.1198,-1.125,-1.1383,-1.1567,-1.1742,-1.1817,-1.1836,-1.2049,-1.2139,-1.2157,-1.2361,-1.2332,-1.2332,-1.2114,-1.2005,-1.1782,0.0,0.0,0.0,0.0,0.0,0.0,0.0,0.0,0.0,0.0,0.0,0.0,0.0,0.0,0.0,-0.234,-0.2421,-0.2494,-0.2533,-0.2522,-0.2574,-0.2697,-0.2599,-0.2538,-0.2495,-0.2468,-0.2425,0.0,0.0,0.0,0.0,-0.2884,-0.3033,0.0,0.0,0.0,0.0,0.0,-0.3044,-0.2958,-0.2766,-0.2591,-0.2445,-0.2445,-0.2445,-0.2445,-0.2445,-0.238,-0.2314,-0.2314,-0.2271,-0.2202,-0.2202,0.0,0.0,0.0,-0.2537,0.0,0.0,0.0,0.0,0.0,0.0,0.0,0.0,0.0,0.0,0.0,0.0,0.0,0.0,0.0,0.0,0.0,0.0,0.0,0.0,0.0,0.0,0.0,0.0,0.0,0.0,0.0,0.0,0.0,-1.2175,-1.2175,-1.2175,-1.237,-1.2467,-1.2467,-1.2467,-1.2467,-1.2467,-1.2273,-1.198,-1.1585,-1.1487,-1.1389,-1.1194,-1.1194,-1.1246,-1.134,-1.143,-1.1468,-1.1496,-1.1822,-1.1959,-1.1992,-1.2313,-1.2441,-1.2436,-1.2219,-1.2114,-1.1891,0.0,0.0,0.0,0.0,0.0,0.0,0.0,0.0,0.0,0.0,0.0,0.0,0.0,0.0,0.0,0.0,-0.2671,-0.2764,-0.2826,-0.2745,-0.2697,-0.2697,-0.2647,-0.2587,-0.2517,-0.2517,0.0,0.0,0.0,0.0,-0.2822,-0.2925,-0.305,0.0,-0.3208,0.0,0.0,0.0,0.0,0.0,0.0,-0.283,0.0,-0.2801,-0.283,-0.2868,-0.2846,-0.2769,-0.2664,-0.2617,-0.2526,-0.2447,-0.2399,-0.2386,0.0,0.0,0.0,0.0,0.0,0.0,0.0,0.0,0.0,0.0,0.0,0.0,0.0,0.0,0.0,0.0,0.0,0.0,0.0,0.0,0.0,0.0,0.0,0.0,0.0,0.0,0.0,0.0,0.0,0.0,0.0,0.0,-1.237,-1.2467,-1.2467,-1.2667,-1.2764,-1.2764,-1.2764,-1.2764,-1.2764,-1.2565,-1.2175,-1.1785,-1.1683,-1.1492,-1.1296,-1.1194,-1.1194,-1.1194,-1.1194,-1.1194,-1.1227,-1.1647,-1.1817,-1.186,-1.2276,-1.2441,-1.2441,-1.2441,-1.2219,-1.2005,0.0,0.0,0.0,0.0,0.0,0.0,0.0,0.0,0.0,0.0,0.0,0.0,-0.274,-0.277,-0.2854,-0.3052,-0.306,-0.3014,-0.2907,-0.2767,-0.2697,-0.2697,-0.2647,0.0,-0.2587,-0.2538,0.0,0.0,0.0,0.0,-0.2887,-0.29,-0.3048,-0.3278,-0.3245,-0.3208,-0.3208,0.0,0.0,0.0,0.0,0.0,0.0,0.0,0.0,0.0,0.0,-0.3163,-0.3128,-0.2935,-0.2865,-0.2825,-0.2649,-0.2621,-0.2634,0.0,0.0,0.0,0.0,0.0,0.0,0.0,0.0,0.0,0.0,0.0,0.0,0.0,0.0,0.0,0.0,0.0,0.0,0.0,0.0,0.0,0.0,0.0,0.0,0.0,0.0,0.0,0.0,0.0,0.0,0.0,-1.2764,-1.2764,-1.2764,-1.2764,-1.2764,-1.2764,-1.2764,-1.2764,-1.2764,-1.2565,-1.237,-1.237,-1.1883,-1.1585,-1.159,-1.1292,-1.1194,-1.1194,-1.1194,-1.1194,-1.1227,-1.1647,-1.1817,-1.186,-1.2276,-1.2441,-1.2441,-1.2441,-1.2436,-1.2327,0.0,0.0,0.0,0.0,0.0,0.0,0.0,0.0,0.0,0.0,0.0,0.0,0.0,-0.3089,-0.3084,-0.3153,-0.3089,-0.3004,-0.2907,-0.2816,-0.2745,-0.2697,-0.2681,-0.2664,-0.2664,-0.2637,0.0,0.0,0.0,-0.2613,-0.2767,-0.2914,-0.306,-0.3233,-0.3256,-0.3245,-0.3208,-0.3245,0.0,0.0,0.0,0.0,0.0,0.0,0.0,0.0,0.0,0.0,0.0,-0.3574,-0.341,-0.3207,-0.3133,-0.2988,-0.2808,-0.2636,-0.2752,0.0,0.0,0.0,0.0,0.0,0.0,0.0,0.0,0.0,0.0,0.0,0.0,0.0,0.0,0.0,0.0,0.0,0.0,0.0,0.0,0.0,0.0,0.0,0.0,0.0,0.0,0.0,0.0,0.0,0.0,-1.2608,-1.2754,-1.2764,-1.2764,-1.2764,-1.2764,-1.2764,-1.2764,-1.2662,-1.257,-1.237,-1.2175,-1.1883,-1.1585,-1.1487,-1.1389,-1.1194,-1.1194,-1.1194,-1.1227,-1.1647,-1.1817,-1.186,-1.2276,-1.2441,-1.2441,-1.2441,-1.2441,-1.2332,0.0,0.0,0.0,0.0,0.0,0.0,0.0,0.0,0.0,0.0,0.0,0.0,0.0,0.0,-0.3439,-0.3348,-0.3241,-0.3117,-0.2972,-0.288,-0.2816,-0.2767,-0.2724,-0.2697,-0.2697,-0.2697,0.0,0.0,0.0,0.0,0.0,-0.2944,-0.3101,-0.328,-0.3317,-0.328,0.0,0.0,0.0,-0.418,0.0,0.0,-0.432,0.0,0.0,0.0,0.0,0.0,0.0,0.0,-0.4109,-0.3932,-0.368,-0.335,-0.3053,-0.2951,-0.3041,0.0,0.0,0.0,0.0,0.0,0.0,0.0,0.0,0.0,0.0,0.0,0.0,0.0,0.0,0.0,0.0,0.0,0.0,0.0,0.0,0.0,0.0,0.0,0.0,0.0,0.0,0.0,0.0,0.0,0.0,0.0,-1.2517,-1.2603,-1.2684,-1.2759,-1.2764,-1.2764,-1.2764,-1.2764,-1.2662,-1.2565,-1.2467,-1.2175,-1.1878,-1.1683,-1.1487,-1.1292,-1.1194,-1.1194,-1.1222,-1.1572,-1.1756,-1.185,-1.2205,-1.238,-1.2441,-1.2441,-1.2441,-1.2332,0.0,0.0,0.0,0.0,0.0,0.0,0.0,0.0,0.0,0.0,0.0,0.0,0.0,0.0,0.0,-0.3633,-0.3561,-0.34,-0.3119,-0.2978,-0.2918,-0.2907,-0.2767,-0.2697,-0.2697,-0.2697,0.0,0.0,0.0,0.0,0.0,0.0,-0.3151,0.0,-0.3402,-0.3331,-0.3216,0.0,-0.3836,-0.4378,0.0,-0.4199,-0.4718,0.0,0.0,0.0,-0.5382,-0.5413,0.0,-0.5017,0.0,0.0,0.0,0.0,-0.3428,-0.3423,0.0,0.0,0.0,0.0,0.0,0.0,0.0,0.0,0.0,0.0,0.0,0.0,0.0,0.0,0.0,0.0,0.0,0.0,0.0,0.0,0.0,0.0,0.0,0.0,0.0,0.0,0.0,0.0,0.0,0.0,-1.2129,-1.2129,-1.214,-1.2274,-1.2511,-1.2748,-1.2754,-1.2759,-1.2764,-1.2764,-1.2764,-1.2764,-1.257,-1.237,-1.237,-1.1878,-1.159,-1.1585,-1.1292,-1.1194,-1.1212,-1.143,-1.1633,-1.1841,-1.2054,-1.2261,-1.2441,-1.2441,-1.2441,-1.2332,0.0,0.0,0.0,0.0,0.0,0.0,0.0,0.0,0.0,0.0,0.0,0.0,-0.4164,-0.4078,-0.3962,-0.3895,-0.3843,-0.3678,-0.3406,-0.3307,-0.3181,-0.2988,-0.2934,-0.2912,-0.2912,-0.2912,0.0,0.0,0.0,0.0,0.0,0.0,0.0,0.0,-0.326,-0.3423,-0.3551,-0.357,0.0,0.0,-0.4437,-0.4782,0.0,0.0,0.0,0.0,0.0,-0.6322,-0.6334,0.0,-0.5896,-0.5696,0.0,0.0,0.0,0.0,0.0,0.0,-0.378,0.0,0.0,0.0,0.0,0.0,0.0,0.0,0.0,0.0,0.0,0.0,0.0,0.0,0.0,0.0,0.0,0.0,0.0,0.0,0.0,0.0,0.0,0.0,0.0,0.0,0.0,0.0,-1.1795,-1.1871,-1.2129,-1.2113,-1.2258,-1.2506,-1.2511,-1.2592,-1.2759,-1.2764,-1.2764,-1.2764,-1.2764,-1.2565,-1.237,-1.2273,-1.198,-1.1585,-1.1487,-1.1394,-1.1212,-1.143,-1.1633,-1.1841,-1.2054,-1.2261,-1.2441,-1.2441,-1.2441,-1.2332,0.0,0.0,0.0,0.0,0.0,0.0,0.0,0.0,0.0,0.0,0.0,0.0,-0.4895,-0.4853,-0.4691,-0.4402,-0.4332,-0.4146,-0.3735,-0.3536,-0.3365,-0.3203,-0.3077,-0.2998,-0.2998,-0.2998,-0.2955,0.0,0.0,0.0,0.0,0.0,0.0,0.0,0.0,0.0,0.0,0.0,0.0,0.0,-0.4739,0.0,0.0,-0.6237,-0.6521,0.0,0.0,0.0,-0.7012,-0.6786,-0.6483,0.0,0.0,0.0,0.0,0.0,0.0,0.0,0.0,0.0,0.0,0.0,0.0,0.0,-0.5722,-0.5968,0.0,0.0,0.0,0.0,0.0,0.0,0.0,0.0,0.0,0.0,0.0,0.0,0.0,0.0,0.0,0.0,0.0,-1.1198,-1.1295,-1.1537,-1.1553,-1.1655,-1.1892,-1.1903,-1.2016,-1.2253,-1.2361,-1.2484,-1.2614,-1.2716,-1.2764,-1.2764,-1.2764,-1.2764,-1.2565,-1.2467,-1.2273,-1.1883,-1.1688,-1.1487,-1.1399,-1.1331,-1.1557,-1.1831,-1.1954,-1.2181,-1.2441,-1.2441,-1.2441,-1.2332,0.0,0.0,0.0,0.0,0.0,0.0,0.0,0.0,0.0,0.0,0.0,0.0,-0.5879,-0.5893,-0.5653,-0.5053,-0.5009,-0.4747,-0.4174,-0.3833,-0.3639,-0.3549,-0.3248,-0.307,-0.3041,-0.3019,-0.3019,-0.3019,0.0,0.0,0.0,0.0,0.0,0.0,0.0,0.0,0.0,0.0,0.0,-0.48,-0.4969,-0.5414,0.0,0.0,-0.6905,-0.7124,-0.7454,-0.7662,-0.767,-0.7428,-0.7015,0.0,0.0,0.0,0.0,0.0,-0.5432,0.0,0.0,0.0,0.0,0.0,0.0,0.0,-0.5599,-0.6004,-0.6356,0.0,0.0,0.0,0.0,0.0,0.0,0.0,0.0,0.0,0.0,0.0,0.0,0.0,0.0,0.0,-1.0923,-1.0945,-1.1036,-1.1166,-1.1209,-1.1413,-1.1645,-1.1661,-1.1768,-1.2091,-1.2221,-1.2361,-1.2414,-1.2619,-1.2737,-1.2764,-1.2764,-1.2764,-1.2764,-1.2565,-1.2467,-1.237,-1.1878,-1.1585,-1.159,-1.1292,-1.1439,-1.1817,-1.1817,-1.2072,-1.2441,-1.2441,-1.2441,-1.2332,-0.4335,0.0,0.0,0.0,0.0,0.0,0.0,0.0,0.0,0.0,0.0,0.0,0.0,-0.5937,-0.5849,-0.5704,-0.5691,-0.5462,-0.4934,-0.4814,-0.4477,-0.3766,-0.3619,-0.3473,-0.3236,-0.3187,-0.3138,-0.3089,0.0,0.0,0.0,0.0,0.0,0.0,0.0,0.0,0.0,0.0,0.0,-0.5398,-0.5272,0.0,-0.623,-0.7119,-0.7517,-0.7752,-0.8559,-0.8727,-0.8529,-0.8471,-0.8079,-0.7635,0.0,0.0,0.0,0.0,0.0,0.0,0.0,0.0,0.0,0.0,0.0,0.0,-0.6201,-0.6167,-0.615,0.0,0.0,0.0,0.0,0.0,0.0,0.0,0.0,0.0,0.0,0.0,0.0,0.0,0.0,0.0,-1.0697,-1.0702,-1.0724,-1.0767,-1.095,-1.116,-1.1408,-1.1418,-1.1526,-1.1758,-1.1817,-1.2027,-1.2414,-1.2463,-1.2576,-1.2764,-1.2764,-1.2764,-1.2764,-1.2764,-1.2565,-1.237,-1.2073,-1.1785,-1.159,-1.1292,-1.1439,-1.1817,-1.1817,-1.2072,-1.2441,-1.2441,-1.2441,-1.2332,-0.448,0.0,0.0,0.0,0.0,0.0,0.0,0.0,0.0,0.0,0.0,0.0,0.0,0.0,0.0,-0.667,-0.6657,-0.6369,-0.5721,-0.5554,-0.5196,-0.4482,-0.4294,-0.4,-0.3551,-0.3516,-0.3396,-0.319,0.0,0.0,0.0,0.0,0.0,0.0,0.0,0.0,0.0,0.0,-0.4891,-0.5468,-0.5611,0.0,-0.658,-0.7559,-0.799,-0.8138,-0.8995,-0.9332,-0.9281,-0.8971,-0.873,0.0,0.0,-0.7804,-0.7466,0.0,-0.7071,-0.6713,0.0,0.0,0.0,-0.6597,0.0,0.0,0.0,-0.6527,-0.6419,0.0,0.0,0.0,0.0,0.0,0.0,0.0,0.0,0.0,0.0,0.0,0.0,0.0,0.0,0.0,-1.0094,-1.0213,-1.0379,-1.0697,-1.0985,-1.1106,-1.1233,-1.127,-1.139,-1.151,-1.1663,-1.1871,-1.2226,-1.2355,-1.2533,-1.2764,-1.2764,-1.2764,-1.2764,-1.2764,-1.2764,-1.2565,-1.2273,-1.2078,-1.1785,-1.1487,-1.1539,-1.1817,-1.1817,-1.2072,-1.2441,-1.2441,-1.2441,-1.2332,-0.4642,0.0,0.0,0.0,0.0,0.0,0.0,0.0,0.0,0.0,0.0,0.0,0.0,0.0,0.0,0.0,-0.7782,-0.7443,0.0,0.0,-0.6037,-0.5359,-0.5105,-0.4652,-0.4011,-0.3973,-0.3782,-0.3393,0.0,0.0,0.0,0.0,0.0,0.0,0.0,0.0,0.0,0.0,0.0,-0.5462,0.0,-0.6435,-0.6993,-0.7915,-0.832,-0.8451,-0.9208,-0.9656,-0.9921,-0.9458,-0.9267,-0.9215,-0.881,-0.8487,0.0,0.0,0.0,0.0,0.0,0.0,0.0,0.0,0.0,-0.7156,0.0,0.0,0.0,0.0,0.0,0.0,0.0,0.0,0.0,0.0,0.0,0.0,0.0,0.0,0.0,0.0,0.0,0.0,0.0,-0.9721,-1.0116,-1.0712,-1.0942,-1.1073,-1.1118,-1.1193,-1.1266,-1.1311,-1.1532,-1.1782,-1.1978,-1.2221,-1.2463,-1.2694,-1.2743,-1.2764,-1.2764,-1.2764,-1.2764,-1.2764,-1.2565,-1.2273,-1.198,-1.1683,-1.1644,-1.1817,-1.1817,-1.2072,-1.2441,-1.2441,-1.2441,-1.2332,-0.5,-0.5076,0.0,0.0,0.0,0.0,0.0,0.0,0.0,0.0,0.0,0.0,0.0,0.0,0.0,0.0,0.0,0.0,-0.8049,0.0,0.0,-0.6142,-0.5983,-0.5537,-0.4699,-0.4635,-0.4308,-0.3731,0.0,0.0,0.0,0.0,0.0,0.0,-0.3713,0.0,0.0,0.0,-0.5699,0.0,-0.652,-0.6937,0.0,-0.7989,-0.8423,-0.8747,-0.9414,-1.0053,-1.0563,0.0,-1.0018,-0.9778,0.0,-0.9202,-0.8932,-0.8705,0.0,0.0,0.0,0.0,0.0,0.0,-0.7979,0.0,0.0,0.0,-0.7158,-0.7158,0.0,0.0,0.0,0.0,0.0,0.0,0.0,0.0,0.0,0.0,0.0,0.0,0.0,0.0,0.0,-0.95,-0.9834,-1.0177,-1.0404,-1.0625,-1.0857,-1.1101,-1.1252,-1.1311,-1.1366,-1.145,-1.1736,-1.1973,-1.221,-1.2457,-1.2662,-1.2764,-1.2764,-1.2764,-1.2764,-1.2764,-1.2565,-1.2273,-1.198,-1.1683,-1.1644,-1.1817,-1.1817,-1.2072,-1.2441,-1.2441,-1.2441,-1.2332,-0.5162,-0.528,0.0,0.0,0.0,0.0,0.0,0.0,0.0,0.0,0.0,0.0,0.0,0.0,0.0,0.0,0.0,-1.0087,0.0,0.0,0.0,0.0,-0.7439,-0.6927,-0.5793,-0.5607,-0.5185,-0.4482,-0.4314,0.0,0.0,0.0,0.0,0.0,-0.412,0.0,-0.4917,0.0,0.0,0.0,0.0,0.0,0.0,-0.8443,-0.9013,-0.9663,-0.9956,-1.0502,-1.1052,0.0,-1.0695,0.0,0.0,0.0,0.0,0.0,0.0,0.0,0.0,0.0,0.0,0.0,0.0,0.0,-0.8033,0.0,-0.7431,0.0,0.0,0.0,0.0,0.0,0.0,0.0,-0.7351,0.0,0.0,0.0,0.0,0.0,0.0,0.0,0.0,0.0,0.0,0.0,-1.016,-1.0484,-1.0748,-1.086,-1.0964,-1.1055,-1.1249,-1.1313,-1.1494,-1.186,-1.2172,-1.242,-1.2651,-1.2764,-1.2764,-1.2764,-1.2764,-1.2764,-1.2667,-1.237,-1.1991,-1.2023,-1.1957,-1.1831,-1.1954,-1.2181,-1.2441,-1.2441,-1.2441,-1.2332,-0.5459,0.0,0.0,0.0,0.0,0.0,0.0,0.0,0.0,0.0,0.0,0.0,-1.0888,-1.121,0.0,0.0,-1.171,-1.1496,0.0,0.0,-1.0215,-0.8962,-0.8912,0.0,0.0,-0.6739,-0.6194,-0.5415,0.0,0.0,0.0,0.0,0.0,0.0,0.0,-0.5036,-0.546,0.0,0.0,-0.6832,-0.7519,-0.8266,-0.9055,-0.9172,-0.9719,-1.0478,-1.0551,-1.0947,-1.1452,-1.1259,-1.1213,0.0,-1.1058,0.0,0.0,0.0,0.0,0.0,-0.9806,0.0,0.0,0.0,0.0,0.0,0.0,0.0,0.0,0.0,0.0,0.0,0.0,0.0,0.0,0.0,0.0,-0.7315,0.0,0.0,0.0,0.0,0.0,0.0,0.0,0.0,0.0,-0.9338,-0.9789,-1.02,-1.0387,-1.0652,-1.0773,-1.0881,-1.1209,-1.1338,-1.1332,-1.1804,-1.2167,-1.2318,-1.2554,-1.27,-1.2764,-1.2764,-1.2764,-1.2764,-1.2764,-1.2504,-1.2087,-1.2253,-1.2181,-1.1921,-1.2077,-1.2261,-1.2441,-1.2441,-1.2441,-1.2332,-0.5987,-0.592,0.0,0.0,0.0,0.0,0.0,0.0,0.0,0.0,0.0,0.0,0.0,0.0,0.0,0.0,0.0,-1.3084,-1.2308,0.0,-1.1632,-1.0193,-1.0143,-0.9559,0.0,0.0,0.0,0.0,0.0,0.0,0.0,0.0,0.0,0.0,0.0,-0.5596,-0.602,-0.6683,-0.6965,-0.7085,-0.8134,-0.8957,-0.9672,0.0,-1.0619,-1.0918,-1.1185,0.0,0.0,-1.1694,-1.1516,0.0,0.0,0.0,0.0,0.0,0.0,0.0,0.0,0.0,0.0,-0.9829,0.0,0.0,0.0,0.0,-0.8639,0.0,0.0,0.0,0.0,0.0,0.0,0.0,0.0,0.0,0.0,0.0,0.0,0.0,0.0,0.0,0.0,0.0,-0.8705,-0.8717,-0.9208,-0.9514,-0.952,-1.0245,-1.0718,-1.0773,-1.1347,-1.1491,-1.1327,-1.1728,-1.2007,-1.2151,-1.2307,-1.2544,-1.2764,-1.2764,-1.2764,-1.2764,-1.2764,-1.2599,-1.2314,-1.2319,-1.2172,-1.2129,-1.2139,-1.2261,-1.2441,-1.2441,-1.2441,-1.2332,0.0,0.0,0.0,0.0,0.0,0.0,0.0,-0.9349,0.0,0.0,0.0,0.0,0.0,-1.355,-1.3928,0.0,0.0,-1.4313,-1.3645,-1.3615,0.0,0.0,0.0,-1.1146,0.0,0.0,0.0,0.0,0.0,0.0,0.0,0.0,0.0,0.0,0.0,-0.6072,0.0,0.0,0.0,0.0,0.0,-0.9673,-0.9997,0.0,-1.0645,-1.0918,-1.1198,-1.1544,0.0,-1.1929,-1.1937,-1.1932,-1.1932,-1.1873,-1.1827,-1.1636,-1.1435,-1.1307,0.0,0.0,-1.0657,-1.0354,0.0,0.0,0.0,0.0,0.0,0.0,0.0,0.0,0.0,0.0,0.0,0.0,0.0,0.0,0.0,0.0,0.0,0.0,0.0,0.0,0.0,0.0,0.0,-0.8423,-0.8747,-0.9106,-0.9466,-0.973,-1.0093,-1.0554,-1.0918,-1.1149,-1.1322,-1.1742,-1.2104,-1.2323,-1.2582,-1.2729,-1.2764,-1.2764,-1.2764,-1.277,-1.292,-1.2835,-1.2535,-1.273,-1.2636,-1.237,-1.2285,-1.238,-1.2441,-1.2441,-1.2441,-1.2332,-0.7921,0.0,0.0,0.0,0.0,0.0,0.0,0.0,0.0,0.0,-1.2296,0.0,-1.4022,0.0,-1.4958,0.0,-1.5644,-1.5637,-1.5136,-1.5008,0.0,-1.3536,-1.3308,0.0,0.0,0.0,0.0,0.0,0.0,-0.7357,0.0,0.0,0.0,0.0,0.0,0.0,0.0,0.0,-0.7993,0.0,0.0,-1.0308,0.0,0.0,-1.1066,-1.1138,0.0,-1.1846,-1.2077,-1.2077,-1.2157,-1.2305,-1.2305,-1.2305,-1.2265,-1.2078,-1.1952,-1.1814,-1.153,-1.1381,0.0,-1.0886,-1.0678,0.0,-1.0258,0.0,-0.9861,0.0,0.0,0.0,0.0,0.0,0.0,0.0,0.0,0.0,0.0,-0.6802,0.0,0.0,0.0,0.0,0.0,0.0,-0.81,-0.8147,-0.8393,-0.8693,0.0,0.0,-0.9688,-1.0213,-1.0668,-1.1083,-1.1439,-1.1778,-1.2152,-1.2377,-1.2579,-1.272,-1.2789,-1.2807,-1.2764,-1.2775,-1.3007,-1.2952,-1.2856,-1.2898,-1.2896,-1.2695,-1.2497,-1.2441,-1.2441,-1.2441,-1.2332,-1.2228,0.0,0.0,0.0,0.0,-0.8251,0.0,0.0,0.0,-1.1287,0.0,-1.3107,-1.3792,-1.4191,-1.5395,-1.6102,-1.6216,-1.6799,-1.7021,-1.6691,-1.6392,0.0,0.0,-1.4904,-1.4244,-1.3232,0.0,0.0,0.0,0.0,0.0,0.0,0.0,0.0,0.0,-0.6982,0.0,-0.7173,-0.7961,-0.8545,-0.8982,-1.0121,-1.0961,-1.1549,-1.1857,-1.1778,-1.1523,-1.2098,-1.2305,-1.2305,-1.2305,-1.2305,-1.2305,-1.2318,-1.2325,-1.2325,-1.2345,-1.2338,-1.2265,-1.1991,-1.1904,-1.1824,-1.1523,-1.1312,0.0,0.0,0.0,-1.0949,0.0,0.0,0.0,0.0,0.0,0.0,0.0,0.0,0.0,0.0,0.0,0.0,0.0,0.0,0.0,0.0,-0.7595,-0.7704,-0.7859,-0.8111,0.0,0.0,0.0,-0.9568,-0.9844,-1.0665,-1.1258,-1.1576,-1.1846,-1.2155,-1.2414,-1.2428,-1.2547,-1.2769,-1.2811,-1.2764,-1.2775,-1.3012,-1.3047,-1.2967,-1.3033,-1.2951,-1.2881,-1.255,-1.2441,-1.2441,-1.2441,-1.2232,-1.2023,-0.9904,-1.0092,-1.0288,0.0,-1.0233,-1.0524,0.0,0.0,0.0,0.0,-1.4111,-1.4788,-1.5913,-1.6354,-1.6778,-1.729,-1.7494,0.0,0.0,0.0,0.0,-1.6285,-1.5873,-1.5339,-1.4659,-1.3715,0.0,-1.2112,0.0,0.0,-0.8776,0.0,0.0,0.0,0.0,0.0,-0.7575,-0.8318,-0.9127,-0.9987,-1.0543,-1.1023,0.0,0.0,-1.2123,-1.2234,-1.2462,-1.2526,-1.2526,-1.2378,-1.2305,-1.2338,-1.2559,-1.2708,-1.2679,-1.2913,-1.2812,-1.2694,-1.2614,-1.2358,-1.2124,-1.183,-1.1757,-1.1627,0.0,0.0,0.0,0.0,0.0,0.0,0.0,0.0,0.0,0.0,0.0,0.0,0.0,0.0,0.0,-0.7194,0.0,0.0,0.0,-0.7595,-0.7625,-0.7698,-0.7765,0.0,0.0,0.0,0.0,-0.9568,-1.0177,-1.084,-1.1546,-1.1768,-1.2169,-1.2591,-1.28,-1.2865,-1.277,-1.2934,-1.2953,-1.278,-1.3187,-1.342,-1.3399,-1.3234,-1.3234,-1.3118,-1.2663,-1.2441,-1.2441,-1.2441,-1.2332,-1.2228,-1.1107,0.0,0.0,-1.1952,0.0,0.0,-1.2255,0.0,0.0,-1.4669,-1.5422,0.0,-1.6895,-1.7395,-1.7838,-1.8321,-1.8411,0.0,-1.824,0.0,0.0,-1.7367,-1.7032,-1.6534,-1.5849,-1.4961,0.0,-1.3037,0.0,0.0,-0.9399,0.0,0.0,0.0,0.0,-0.7807,0.0,-0.9015,-0.9857,-1.0581,-1.1124,0.0,0.0,-1.2334,-1.2656,-1.2956,-1.291,-1.2826,-1.2673,-1.2599,-1.2688,-1.2825,-1.2844,-1.2986,-1.3128,-1.316,-1.3086,-1.2946,-1.2946,-1.2826,-1.2659,-1.2498,-1.2458,-1.2412,-1.2245,-1.2204,-1.2164,0.0,-1.1897,-1.17,0.0,0.0,0.0,0.0,0.0,0.0,0.0,0.0,0.0,0.0,-0.7807,0.0,0.0,-0.7631,-0.7467,-0.7583,-0.7486,0.0,0.0,0.0,0.0,-0.928,-0.9861,-1.0524,-1.1341,-1.1738,-1.2129,-1.2514,-1.2922,-1.3003,-1.2731,-1.3008,-1.2948,-1.2786,-1.3285,-1.3507,-1.3513,-1.3534,-1.3413,-1.3232,-1.2663,-1.2441,-1.2441,-1.2441,-1.2441,-1.2327,0.0,0.0,0.0,0.0,0.0,0.0,0.0,-1.4405,0.0,-1.5588,0.0,-1.7516,-1.7664,-1.8523,-1.9133,-1.9224,0.0,-1.9426,-1.9426,-1.8951,-1.8576,-1.8528,-1.8185,-1.7674,-1.6889,-1.6134,-1.5086,0.0,0.0,0.0,0.0,0.0,0.0,0.0,0.0,0.0,0.0,-0.9933,-1.0613,-1.1017,-1.174,-1.2255,-1.2614,-1.2899,-1.3214,-1.3499,-1.3273,-1.3119,-1.2973,-1.2949,-1.3138,-1.3376,-1.3216,-1.3345,-1.3571,-1.3386,-1.3293,-1.3267,-1.3267,-1.324,-1.3213,-1.3213,-1.3213,-1.3213,-1.3213,-1.3213,-1.3133,-1.2866,-1.2599,-1.2331,-1.2037,0.0,0.0,0.0,0.0,0.0,0.0,0.0,0.0,0.0,0.0,0.0,0.0,0.0,0.0,0.0,0.0,0.0,0.0,0.0,0.0,-0.9053,-0.9586,-1.0239,-1.1051,-1.1576,-1.2014,-1.2373,-1.2895,-1.2995,-1.2746,-1.3076,-1.3039,-1.2791,-1.3254,-1.3497,-1.3495,-1.3672,-1.3527,-1.3227,-1.2663,-1.2441,-1.2441,-1.2441,-1.2441,-1.2332,0.0,0.0,0.0,0.0,0.0,-1.5762,-1.6387,-1.6326,-1.6548,-1.7229,-1.7646,-1.8253,-1.9165,-1.934,-1.9703,-2.0322,-2.0438,0.0,0.0,0.0,0.0,-1.9832,-1.9279,-1.8669,-1.7973,-1.6708,-1.557,0.0,0.0,0.0,0.0,0.0,0.0,0.0,0.0,0.0,-0.9903,-1.0631,0.0,-1.1667,-1.2059,-1.2528,-1.2928,-1.2987,-1.3214,-1.3492,-1.3492,-1.3346,-1.3162,-1.3276,-1.332,-1.3453,-1.3957,-1.4072,-1.417,-1.4172,-1.407,-1.3797,-1.3567,-1.3394,-1.3213,-1.3213,-1.3213,-1.3213,-1.3213,-1.3213,-1.32,-1.314,-1.3086,-1.2959,-1.2728,0.0,0.0,0.0,0.0,0.0,0.0,0.0,0.0,0.0,0.0,-0.8706,0.0,0.0,0.0,0.0,0.0,0.0,0.0,0.0,0.0,0.0,-0.9473,0.0,0.0,0.0,-1.2123,-1.2644,-1.32,-1.3336,-1.3034,-1.3312,-1.3244,-1.2786,-1.3347,-1.3474,-1.3495,-1.3691,-1.3413,-1.2994,-1.2881,-1.2659,-1.2441,-1.2441,-1.2441,-1.2332,0.0,0.0,0.0,0.0,0.0,0.0,0.0,-1.8475,0.0,-1.8258,-1.8735,-1.9419,-1.9951,-2.0264,-2.0643,-2.1004,-2.095,-2.0958,-2.0958,-2.0757,-2.0586,-2.0404,-1.9939,-1.9404,-1.8962,-1.7709,-1.6626,-1.547,0.0,0.0,0.0,0.0,0.0,0.0,0.0,-1.0124,0.0,0.0,0.0,-1.2119,-1.2608,-1.2937,-1.3171,-1.3199,-1.336,-1.3514,-1.3689,-1.3673,-1.3614,-1.3697,-1.3856,-1.4001,-1.4379,-1.4554,-1.4717,-1.4608,-1.4462,-1.4352,-1.4103,-1.3926,-1.3818,-1.3661,-1.3667,-1.3667,-1.3667,-1.3667,-1.3621,-1.3467,-1.3434,-1.3293,-1.2909,-1.2392,0.0,0.0,0.0,0.0,0.0,0.0,-1.0164,0.0,0.0,0.0,0.0,0.0,0.0,0.0,0.0,0.0,0.0,0.0,-0.7906,0.0,0.0,0.0,-1.0713,0.0,-1.2176,-1.2711,-1.3254,-1.3463,-1.3344,-1.3419,-1.3346,-1.298,-1.3295,-1.354,-1.3499,-1.3639,-1.3527,-1.3315,-1.2989,-1.2772,-1.2659,-1.2441,-1.2441,-1.2327,0.0,-1.6221,0.0,0.0,-1.817,0.0,-1.9244,-2.0303,-2.0678,-1.9238,-1.9961,-2.0649,-2.0643,-2.1182,-2.1567,-2.1645,-2.1468,-2.1379,-2.1379,-2.1184,-2.1053,-2.0978,-2.0516,-2.0102,-1.9654,-1.8568,-1.7498,0.0,0.0,0.0,0.0,0.0,0.0,0.0,0.0,0.0,0.0,0.0,-1.2563,-1.2639,-1.3256,-1.358,-1.3607,-1.3792,-1.3844,-1.3807,-1.4065,-1.416,-1.4092,-1.4165,-1.4355,-1.4626,-1.4698,-1.4972,-1.509,-1.4824,-1.4824,-1.4734,-1.4482,-1.4482,-1.4398,-1.425,-1.4166,-1.4166,-1.4166,-1.4166,-1.4021,-1.3788,-1.3687,-1.35,-1.3026,-1.2692,0.0,0.0,0.0,0.0,0.0,0.0,0.0,0.0,0.0,0.0,-0.9424,0.0,0.0,0.0,0.0,0.0,-0.7273,0.0,0.0,0.0,0.0,-0.9862,-1.0713,0.0,-1.2216,-1.2795,-1.3284,-1.3499,-1.362,-1.3544,-1.3346,-1.3077,-1.3371,-1.3534,-1.3658,-1.3709,-1.3753,-1.364,-1.3207,-1.2989,-1.2881,-1.255,-1.2441,-1.2441,0.0,0.0,0.0,0.0,0.0,0.0,-2.1414,-2.1364,-2.106,-2.0596,-2.1186,-2.1726,-2.1799,-2.1901,-2.2081,-2.2415,-2.2441,-2.2441,-2.2441,-2.2441,-2.2295,-2.1855,-2.1286,-2.0668,-1.9962,-1.8662,-1.7631,0.0,0.0,-1.4197,0.0,0.0,0.0,0.0,0.0,0.0,0.0,-1.2846,-1.3262,-1.3723,-1.4143,-1.4348,-1.4507,-1.4851,-1.4819,-1.4665,-1.4702,-1.4639,-1.4465,-1.4757,-1.4874,-1.4955,-1.5194,-1.5318,-1.534,-1.509,-1.509,-1.4999,-1.4734,-1.465,-1.465,-1.465,-1.4482,-1.4398,-1.4398,-1.4243,-1.4082,-1.4048,-1.3834,-1.3546,-1.3567,-1.332,-1.3019,0.0,0.0,0.0,0.0,0.0,-1.1328,-1.1184,0.0,0.0,-1.0072,-0.9455,0.0,0.0,-0.7598,0.0,0.0,0.0,0.0,-0.8651,-0.9202,-0.9862,-1.0713,-1.1522,-1.2312,-1.3091,-1.3381,-1.36,-1.3896,-1.3624,-1.3346,-1.3077,-1.3371,-1.3723,-1.4132,-1.4175,-1.3975,-1.3645,-1.3423,-1.3098,-1.2881,-1.255,-1.2441,-1.2441,0.0,0.0,0.0,0.0,0.0,0.0,0.0,-2.219,-2.2414,-2.2321,-2.2387,-2.2399,-2.2469,-2.2589,-2.2681,-2.2837,-2.2644,-2.2644,-2.2644,-2.2644,-2.2484,-2.2329,-2.1872,-2.1428,-2.0883,-1.9898,-1.887,0.0,0.0,0.0,0.0,0.0,0.0,0.0,0.0,-1.2905,-1.3826,-1.3942,-1.4237,-1.4639,-1.4911,-1.5062,-1.5042,-1.5096,-1.5072,-1.5017,-1.5222,-1.5219,-1.52,-1.536,-1.5175,-1.4999,-1.5328,-1.5431,-1.5347,-1.5257,-1.5257,-1.5257,-1.4999,-1.4915,-1.4915,-1.4734,-1.465,-1.4566,-1.4566,-1.4489,-1.4496,-1.4496,-1.4226,-1.4007,-1.3674,-1.3547,-1.3326,-1.3048,0.0,0.0,0.0,0.0,0.0,-1.1647,0.0,-1.1134,0.0,0.0,0.0,0.0,0.0,0.0,0.0,0.0,0.0,-0.8945,0.0,-1.0173,-1.1196,-1.1836,-1.256,-1.3363,-1.3628,-1.3854,-1.4112,-1.3829,-1.3711,-1.3613,-1.3643,-1.3879,-1.4196,-1.4196,-1.4083,-1.3975,-1.3645,-1.3423,-1.3098,-1.2772,-1.255,-1.2441,-2.2264,0.0,-2.2147,0.0,-2.2447,-2.2447,-2.2447,-2.3088,-2.3574,-2.3574,-2.3374,-2.3144,-2.2948,-2.3088,-2.3147,-2.3147,-2.2946,-2.2846,-2.2846,-2.2846,-2.2846,-2.2745,-2.2292,0.0,-2.1422,-2.0677,-1.9847,-1.893,-1.8057,0.0,0.0,0.0,0.0,0.0,-1.3687,-1.4169,-1.4897,-1.4936,-1.5168,-1.5364,-1.5551,-1.5615,-1.5631,-1.5568,-1.5528,-1.5472,-1.5717,-1.5809,-1.5767,-1.5831,-1.5591,-1.5286,-1.5357,-1.5431,-1.5431,-1.5431,-1.5431,-1.5347,-1.5257,-1.5173,-1.5173,-1.4908,-1.4824,-1.4824,-1.4824,-1.4741,-1.4734,-1.4734,-1.4566,-1.4337,-1.3966,-1.3926,-1.3878,-1.354,0.0,0.0,0.0,-1.292,0.0,-1.2224,-1.1977,-1.1623,-1.1068,-1.0724,0.0,0.0,0.0,0.0,0.0,0.0,0.0,0.0,0.0,0.0,-1.1522,-1.2125,-1.2795,-1.3519,-1.3857,-1.4159,-1.4425,-1.4119,-1.3996,-1.4007,-1.3854,-1.3959,-1.4196,-1.4196,-1.4196,-1.4196,-1.3862,-1.3532,-1.3315,-1.2989,-1.2659,-1.2441,-2.3057,-2.3047,-2.3323,-2.4036,-2.4125,-2.4125,-2.4125,-2.4134,-2.4143,-2.4143,-2.4143,-2.3945,-2.3447,-2.3347,-2.3447,-2.3447,-2.3347,-2.3347,-2.3347,-2.3347,-2.3247,0.0,0.0,-2.2108,-2.1413,-2.0677,-2.0103,-1.9727,0.0,0.0,-1.7415,0.0,-1.548,-1.5488,-1.5649,-1.5667,-1.5536,-1.5826,-1.5904,-1.5705,-1.6055,-1.6198,-1.6238,-1.6587,-1.655,-1.6378,-1.6386,-1.6229,-1.6087,-1.6087,-1.6087,-1.6004,-1.5506,-1.5431,-1.5431,-1.5431,-1.5431,-1.5431,-1.5431,-1.5431,-1.5431,-1.5431,-1.5257,-1.509,-1.509,-1.4908,-1.4734,-1.4734,-1.4734,-1.465,-1.4734,-1.4734,-1.4629,-1.4328,0.0,0.0,0.0,-1.3235,0.0,-1.2808,-1.2298,-1.1864,-1.1857,-1.1329,0.0,0.0,0.0,0.0,0.0,0.0,0.0,-0.9792,-1.0372,0.0,-1.1522,-1.2306,-1.2976,-1.3519,-1.4045,-1.4437,-1.4721,-1.4465,-1.4316,-1.4245,-1.393,-1.3959,-1.4196,-1.4196,-1.4196,-1.4196,-1.3862,-1.3532,-1.3315,-1.2989,-1.2659,-1.2441,-2.4912,-2.4912,-2.4983,-2.5149,-2.4646,-2.4152,-2.4152,-2.4152,-2.4152,-2.4152,-2.4152,-2.4152,-2.3954,-2.3755,-2.3646,0.0,-2.3555,-2.3447,0.0,-2.3447,-2.3347,-2.3247,-2.3132,-2.2786,-2.2108,-2.1596,-2.0931,-2.0121,0.0,0.0,0.0,-1.7525,-1.703,-1.6649,-1.6775,-1.6577,-1.6228,-1.6674,-1.6689,-1.6357,-1.6508,-1.6563,-1.6579,-1.669,-1.6648,-1.6566,-1.6566,-1.6566,-1.6492,-1.6319,-1.6319,-1.6237,-1.6004,-1.5756,-1.5582,-1.5423,-1.5431,-1.5431,-1.5431,-1.5431,-1.5431,-1.5431,-1.5347,-1.5257,-1.5257,-1.5257,-1.5173,-1.4999,-1.4999,-1.4915,-1.4734,-1.4734,-1.4706,-1.4608,-1.458,0.0,-1.4093,0.0,-1.3824,-1.362,-1.3194,-1.2913,-1.2716,-1.2445,0.0,0.0,0.0,0.0,0.0,0.0,0.0,0.0,-1.1056,0.0,-1.2579,-1.2857,-1.3344,-1.4051,-1.4413,-1.4727,-1.4992,-1.4836,-1.4688,-1.4472,-1.4417,-1.4325,-1.4196,-1.4196,-1.4196,-1.4191,-1.4083,-1.3862,-1.3532,-1.3315,-1.2989,-1.2659,-2.5742,-2.5742,-2.5742,-2.5742,-2.5147,-2.4745,-2.4745,-2.4449,-2.4251,-2.4449,-2.435,-2.4251,-2.4341,-2.4143,0.0,-2.3954,-2.3755,-2.3646,-2.3646,-2.3646,-2.3646,-2.3546,-2.3546,-2.3269,-2.2593,-2.2338,0.0,-2.0698,-1.9992,-1.9418,-1.8802,-1.8571,-1.8258,-1.7963,-1.7972,-1.7784,-1.7327,-1.7521,-1.7425,-1.7137,-1.6934,-1.6812,-1.6812,-1.673,-1.673,-1.673,-1.673,-1.673,-1.6656,-1.6566,-1.6476,-1.6484,-1.6245,-1.6072,-1.5899,-1.5582,-1.5499,-1.5506,-1.5431,-1.5431,-1.5431,-1.5431,-1.5431,-1.5431,-1.5431,-1.5431,-1.5347,-1.5257,-1.5173,-1.5173,-1.4999,-1.4992,-1.4992,-1.4992,-1.4985,-1.4913,-1.4646,0.0,-1.4292,0.0,0.0,0.0,0.0,-1.3222,-1.3033,0.0,0.0,0.0,0.0,0.0,-1.1449,-1.1919,-1.2068,-1.2569,-1.3372,-1.3601,-1.3908,-1.4496,-1.4781,-1.5149,-1.5409,-1.5258,-1.5018,-1.4707,-1.4646,-1.4396,-1.4196,-1.4196,-1.4196,-1.4196,-1.4196,-1.3975,-1.3645,-1.3537,-1.3371,-1.3217,-2.5742,-2.5742,-2.5742,0.0,-2.5742,0.0,-2.5742,-2.4941,-2.4449,-2.4932,-2.4548,-2.435,-2.4529,-2.4341,-2.4251,-2.4251,0.0,0.0,-2.4152,-2.4152,-2.4053,-2.3854,-2.3854,-2.3485,-2.2921,-2.2797,-2.2302,-2.1348,-2.0318,-1.9598,-1.9342,-1.9342,-1.9325,-1.9213,-1.9213,-1.9118,-1.8818,-1.8465,-1.8221,-1.8012,-1.7401,-1.7155,-1.7057,-1.6812,-1.6738,-1.6738,-1.6738,-1.673,-1.673,-1.673,-1.673,-1.6648,-1.6476,-1.6394,-1.6312,-1.5899,-1.5733,-1.5658,-1.5506,-1.5431,-1.5431,-1.5431,-1.5431,-1.5431,-1.5431,-1.5431,-1.5431,-1.5431,-1.5431,-1.5431,-1.5431,-1.5431,-1.5431,-1.5431,-1.5431,-1.534,-1.5173,-1.4832,-1.4565,0.0,0.0,0.0,-1.4001,-1.3777,-1.3742,0.0,0.0,0.0,0.0,0.0,-1.2785,-1.2974,-1.3342,-1.3681,-1.3988,-1.4515,-1.4737,-1.4787,-1.5263,-1.5656,-1.5891,-1.569,-1.5369,-1.5041,-1.4713,-1.4504,-1.4196,-1.4196,-1.4196,-1.4196,-1.4196,-1.3986,-1.3774,-1.3774,-1.3696,-1.3775,0.0,0.0,-2.5742,-2.5742,-2.5742,-2.5742,-2.5742,-2.5538,-2.5342,-2.5538,-2.544,-2.5137,-2.4735,-2.4735,-2.4637,-2.444,-2.4251,-2.4152,-2.4152,-2.4152,-2.4152,-2.4152,-2.4152,-2.3908,-2.3619,-2.3224,-2.259,-2.1516,-2.0931,-2.0552,-2.0384,-2.0384,-2.0058,-1.9607,-1.9607,-1.9461,-1.9299,-1.8836,-1.8541,-1.828,-1.7921,-1.7631,-1.731,-1.7057,-1.6976,-1.6976,-1.673,-1.673,-1.673,-1.673,-1.673,-1.6648,-1.6648,-1.6648,-1.6566,-1.6162,-1.5824,-1.565,-1.5658,-1.5499,-1.5431,-1.5431,-1.5431,-1.5431,-1.5431,-1.5431,-1.5431,-1.5431,-1.5431,-1.5431,-1.5431,-1.5431,-1.5431,-1.5431,-1.5431,-1.5347,-1.5347,-1.5274,-1.5231,0.0,-1.5209,-1.5226,-1.5226,-1.5183,-1.5172,0.0,0.0,0.0,-1.4994,-1.463,-1.4283,-1.413,-1.4294,-1.454,-1.5139,-1.5287,-1.5419,-1.5636,-1.5719,-1.5831,-1.5891,-1.5785,-1.5684,-1.5374,-1.5041,-1.4713,-1.4504,-1.4299,-1.4196,-1.4196,-1.4196,-1.4299,-1.4345,-1.4119,-1.4155,-1.423,-2.5742,-2.5742,-2.5742,-2.5742,-2.5742,-2.5742,-2.5742,-2.5742,-2.5742,-2.5742,-2.5742,-2.5538,-2.5235,-2.503,-2.4833,-2.4735,-2.444,-2.4341,-2.4251,-2.4152,-2.4152,-2.4152,-2.4152,-2.4152,-2.3954,-2.3744,-2.3139,-2.2053,-2.1372,-2.0907,-2.0826,-2.0744,-2.0558,-2.0179,-2.0001,-1.9889,-1.9789,-1.9329,-1.9151,-1.9256,-1.8608,-1.8229,-1.8062,-1.7803,-1.7711,-1.7535,-1.7199,-1.706,-1.6961,-1.6786,-1.673,-1.673,-1.673,-1.673,-1.6656,-1.6409,-1.6237,-1.5982,-1.5733,-1.5658,-1.5499,-1.5423,-1.5431,-1.5431,-1.5431,-1.554,-1.565,-1.565,-1.576,-1.5818,-1.5679,-1.565,-1.5606,-1.5452,-1.5431,-1.5431,-1.5431,-1.5431,-1.5489,-1.5635,-1.5718,-1.5792,-1.593,-1.5927,-1.597,-1.626,-1.6085,0.0,-1.6296,-1.6135,-1.5665,-1.513,-1.5087,-1.5444,-1.6031,-1.6267,-1.6291,-1.6293,-1.6457,-1.6363,-1.626,-1.626,-1.6156,-1.5828,-1.5719,-1.5315,-1.4778,-1.4795,-1.4559,-1.4363,-1.4466,-1.4584,-1.4692,-1.4468,-1.4616,-1.4823,-2.5732,-2.5742,-2.5742,-2.5742,-2.5742,-2.582,-2.6084,-2.6123,-2.6123,-2.6123,-2.5898,-2.5742,-2.5742,-2.5333,-2.503,-2.4932,-2.4735,-2.4538,-2.435,-2.4251,-2.4251,-2.4251,-2.4251,-2.4152,-2.4152,-2.4033,-2.3532,-2.265,-2.157,-2.1087,-2.0997,-2.0934,-2.0843,-2.0744,-2.0473,-2.0382,-2.0266,-1.9843,-1.9909,-2.0272,-1.9349,-1.898,-1.8835,-1.8654,-1.8395,-1.8284,-1.7795,-1.7596,-1.7395,-1.6992,-1.6889,-1.6889,-1.6889,-1.6857,-1.6818,-1.6818,-1.6613,-1.6312,-1.5899,-1.5733,-1.5658,-1.5506,-1.5467,-1.5504,-1.5504,-1.5752,-1.5987,-1.5987,-1.6184,-1.6287,-1.603,-1.5987,-1.5884,-1.5555,-1.5504,-1.5504,-1.5504,0.0,-1.5621,-1.5943,-1.6023,-1.6177,-1.6484,-1.6386,-1.6485,-1.7167,-1.6918,-1.7056,-1.7584,-1.732,-1.6803,-1.6142,-1.6025,-1.6313,-1.6901,-1.7101,-1.7167,-1.6898,-1.7135,-1.703,-1.6812,-1.67,-1.6588,-1.6357,-1.6357,-1.5893,-1.526,-1.5367,-1.5109,-1.4717,-1.4917,-1.5015,-1.5053,-1.5053,-1.509,-1.5305,-2.583,-2.5742,-2.5742,-2.5742,-2.5742,-2.623,-2.7676,-2.79,-2.79,-2.79,-2.6641,-2.5742,-2.5742,-2.5635,-2.544,-2.5235,-2.5235,-2.5039,-2.4833,-2.4538,-2.443,-2.443,-2.4251,-2.4152,-2.4152,-2.3492,-2.2984,-2.2857,-2.2044,-2.1463,-2.1284,-2.1302,-2.1006,-2.0413,-2.0546,-2.0473,-2.0283,-2.0223,-2.0248,-2.0298,-2.014,-1.9696,-1.9084,-1.8826,-1.8749,-1.8654,-1.8251,-1.8062,-1.8054,-1.7722,-1.7612,-1.7612,-1.7612,-1.7421,-1.7191,-1.7191,-1.6976,-1.6566,-1.6394,-1.5982,-1.565,-1.5658,-1.5712,-1.584,-1.584,-1.6074,-1.6301,-1.6301,-1.6338,-1.6352,-1.6309,-1.6301,-1.6199,-1.5891,-1.584,-1.584,-1.584,0.0,-1.5957,-1.6265,-1.6543,-1.6828,-1.715,-1.7334,-1.7654,-1.8032,-1.7865,-1.7711,-1.7811,-1.7619,-1.7589,-1.7649,-1.7245,-1.7235,-1.7836,-1.76,-1.7675,-1.7851,-1.7452,-1.7136,-1.7136,-1.6812,-1.67,-1.6588,-1.6357,-1.6222,-1.6074,-1.5879,-1.5642,-1.5614,-1.5654,-1.5682,-1.5528,-1.5528,-1.5571,-1.5542,-2.6688,-2.612,-2.5742,-2.5742,-2.5742,-2.6318,-2.8027,-2.8291,-2.8291,-2.8291,-2.7598,-2.6875,-2.625,-2.6133,-2.5898,-2.5557,-2.5538,-2.544,-2.5333,-2.4932,-2.4735,-2.4735,-2.4637,-2.4538,-2.4341,-2.3574,-2.3176,-2.3176,-2.2583,-2.2189,-2.1978,-2.1996,-2.1913,-2.1719,-2.155,-2.1051,-2.0305,-2.0326,-2.0279,-2.0274,-2.0274,-2.0145,-1.9778,-1.969,-1.9512,-1.9309,-1.9021,-1.8778,-1.857,-1.8112,-1.8048,-1.7961,-1.7866,-1.7668,-1.754,-1.754,-1.7075,-1.6523,-1.662,-1.6431,-1.6224,-1.6397,-1.647,-1.659,-1.659,-1.6669,-1.681,-1.681,-1.686,-1.6835,-1.6667,-1.663,-1.6528,-1.6213,-1.6162,-1.6162,-1.6162,-1.6162,-1.6279,-1.6594,-1.6916,-1.7238,-1.756,-1.7882,-1.8211,-1.854,-1.8469,-1.8448,-1.8622,-1.8425,-1.8394,-1.8433,-1.8073,-1.7975,-1.8043,-1.8247,-1.8243,-1.8255,-1.8184,-1.7919,-1.7588,-1.7473,-1.7244,-1.7123,-1.7008,-1.6803,-1.6462,-1.6483,-1.623,-1.6006,-1.6138,-1.6141,-1.6127,-1.6127,-1.597,-1.5844,-2.7262,-2.6592,-2.6024,-2.6024,-2.6163,-2.6777,-2.8096,-2.8291,-2.8291,-2.8291,-2.8291,-2.79,-2.6875,-2.6543,-2.625,-2.5918,-2.5791,-2.5742,-2.5742,-2.5333,-2.5039,-2.503,-2.4932,-2.4735,-2.4538,-2.3943,-2.3547,-2.3547,-2.3048,-2.2838,-2.2604,-2.2623,-2.2781,-2.3146,-2.2526,-2.1578,-2.05,-2.0337,-2.03,-2.0275,-2.0292,-2.0292,-2.0292,-2.0292,-2.0201,-1.9985,-1.9608,-1.9418,-1.9109,-1.866,-1.8482,-1.8386,-1.8194,-1.8042,-1.7898,-1.7898,-1.7368,-1.6773,-1.704,-1.7056,-1.6962,-1.7106,-1.7221,-1.7186,-1.7186,-1.7274,-1.7432,-1.734,-1.735,-1.7353,-1.7011,-1.6967,-1.6857,-1.6535,0.0,-1.6484,-1.6484,-1.6543,-1.6711,-1.704,-1.7362,-1.7684,-1.8013,-1.8269,-1.8547,-1.8877,-1.8906,-1.9016,-1.9264,-1.9078,-1.9009,-1.8976,-1.8673,-1.8435,-1.8359,-1.8698,-1.8838,-1.8663,-1.877,-1.8655,-1.82,-1.8083,-1.796,-1.7608,-1.7608,-1.737,-1.6848,-1.7055,-1.6903,-1.6512,-1.6698,-1.6655,-1.6661,-1.6661,-1.6425,-1.62,-2.7262,-2.7262,-2.7167,-2.7167,-2.7652,-2.8144,-2.8271,-2.8291,-2.8291,-2.8291,-2.8291,-2.8057,-2.7422,-2.6777,-2.6377,-2.6338,-2.5967,-2.5742,-2.5742,-2.5635,-2.5538,-2.5235,-2.503,-2.4735,-2.4538,-2.404,-2.374,-2.3547,-2.3048,-2.2857,-2.2857,-2.2857,-2.3344,-2.4013,-2.3006,-2.1986,-2.0922,-2.0492,-2.0305,-2.0314,-2.0275,-2.0292,-2.0292,-2.0292,-2.0292,-2.0192,-1.9994,-1.9894,-1.9795,-1.9604,-1.9314,-1.9107,-1.9115,-1.8699,-1.8255,-1.8255,-1.7993,-1.7699,-1.7723,-1.7874,-1.793,-1.7541,-1.7494,-1.7537,-1.7537,-1.7804,-1.7956,-1.7684,-1.7707,-1.7621,-1.7296,-1.7296,-1.7186,-1.6872,0.0,0.0,-1.6821,-1.7069,-1.7377,-1.7706,-1.8028,-1.8357,-1.8686,-1.8738,-1.8891,-1.9213,-1.9242,-1.925,-1.9279,-1.9279,-1.9306,-1.9291,-1.8784,-1.8742,-1.9296,-1.9011,-1.9065,-1.9332,-1.8991,-1.8881,-1.8881,-1.8538,-1.8194,-1.7972,-1.7972,-1.7713,-1.7455,-1.7479,-1.7473,-1.7455,-1.7473,-1.725,-1.6903,-1.6903,-1.6779,-1.6419,-2.7262,-2.7262,-2.7262,-2.7262,-2.8471,-2.9353,-2.9353,-2.9353,-2.9353,-2.9353,-2.9036,-2.8519,-2.792,-2.7633,-2.7157,-2.6435,-2.624,-2.6025,-2.5752,-2.5742,-2.5635,-2.5538,-2.5333,-2.5137,-2.503,-2.4683,-2.4403,-2.411,-2.3962,-2.3791,-2.3694,-2.3694,-2.3837,-2.4193,-2.335,-2.3053,-2.2944,-2.1666,-2.0937,-2.0597,-2.0633,-2.068,-2.0689,-2.0391,-2.0292,-2.0292,-2.0201,-2.011,-2.011,-1.9845,-1.9754,-1.9654,-1.9479,-1.9198,-1.8803,-1.8629,-1.8533,-1.843,-1.843,-1.8287,-1.8281,-1.83,-1.8352,-1.8355,-1.8355,-1.8372,-1.8288,-1.8195,-1.8094,-1.79,-1.7621,-1.7527,-1.7483,-1.7172,0.0,-1.745,-1.745,-1.7728,-1.7977,-1.8101,-1.8401,-1.865,-1.8774,-1.8972,-1.914,-1.9264,-1.9279,-1.9279,-1.9279,-1.9469,-1.9725,-1.9831,-1.9711,-1.9591,-1.9371,-1.9441,-1.9483,-1.9366,-1.9243,-1.912,-1.8874,-1.8765,-1.8538,-1.8194,-1.8083,-1.7966,-1.7843,-1.7602,-1.7485,-1.7485,-1.7485,-1.7367,-1.7256,-1.7256,-1.7132,-1.6785,-2.7262,-2.7262,-2.7262,-2.7262,-2.8773,-2.9994,-2.9994,-2.9994,-2.9994,-2.9994,-2.9564,-2.9011,-2.8501,-2.8237,-2.7825,-2.7029,-2.6643,-2.626,-2.5967,-2.581,-2.5742,-2.5742,-2.5538,-2.544,-2.5333,-2.5137,-2.4932,-2.4637,-2.4637,-2.443,-2.4223,-2.4242,-2.4251,-2.4143,-2.3742,-2.3818,-2.4091,-2.2799,-2.1933,-2.1476,-2.116,-2.1128,-2.1128,-2.0616,-2.0374,-2.0266,-2.0283,-2.0292,-2.0292,-2.011,-1.9928,-1.9845,-1.9762,-1.9479,-1.9288,-1.8896,-1.8812,-1.892,-1.8827,-1.8653,-1.8526,-1.8764,-1.8827,-1.8827,-1.8827,-1.8651,-1.8574,-1.8481,-1.8381,-1.8187,-1.7908,-1.7815,-1.7845,-1.7747,-1.786,-1.8045,-1.8052,-1.8346,-1.8552,-1.8452,-1.8745,-1.8942,-1.8942,-1.9147,-1.9279,-1.9279,-1.9367,-1.9469,-1.9572,-1.9791,-2.0062,-2.0377,-2.0388,-2.021,-1.9842,-1.9821,-1.9707,-1.9482,-1.9482,-1.9243,-1.9004,-1.9004,-1.8881,-1.8532,-1.8305,-1.82,-1.8083,-1.7843,-1.7608,-1.7608,-1.7485,-1.7485,-1.7485,-1.7485,-1.7367,-1.7138,-2.7262,-2.7262,-2.7262,-2.7262,-2.8763,-2.9973,-2.9994,-2.9994,-2.9994,-2.9994,-2.9659,-2.9333,-2.9132,-2.853,-2.8157,-2.8053,-2.7078,-2.6387,-2.6387,-2.5977,-2.5742,-2.5742,-2.5742,-2.5538,-2.5342,-2.5333,-2.5137,-2.4932,-2.4932,-2.4609,-2.4168,-2.4412,-2.444,-2.4152,-2.4152,-2.4184,-2.4178,-2.3505,-2.3057,-2.2866,-2.1964,-2.1609,-2.1564,-2.0902,-2.0538,-2.0322,-2.0283,-2.03,-2.0292,-2.0292,-2.011,-1.9928,-1.9928,-1.9754,-1.9479,-1.8956,-1.8972,-1.9096,-1.892,-1.8827,-1.8827,-1.8827,-1.8827,-1.8827,-1.8827,-1.8827,-1.8743,-1.8574,-1.8481,-1.8388,-1.8179,-1.8087,-1.8201,-1.8537,-1.8598,-1.8616,-1.8746,-1.8977,-1.9085,-1.8789,-1.9074,-1.9279,-1.9279,-1.9279,-1.9279,-1.9279,-1.9579,-1.9908,-2.0223,-2.0237,-2.0391,-2.0713,-2.0728,-2.0754,-2.0716,-2.0155,-1.9815,-1.9815,-1.9475,-1.9366,-1.9366,-1.9366,-1.9243,-1.8874,-1.8874,-1.8765,-1.8421,-1.8083,-1.7972,-1.7972,-1.7602,-1.7485,-1.7485,-1.7485,-1.7485,-1.7485,-2.7262,-2.7262,-2.7262,-2.7262,-2.7717,-2.8504,-2.9798,-2.9994,-2.9994,-2.9994,-2.9889,-2.9774,-2.9448,-2.9221,-2.8914,-2.8405,-2.7752,-2.7063,-2.6241,-2.5898,-2.5742,-2.5742,-2.5742,-2.5635,-2.5538,-2.5538,-2.544,-2.5137,-2.5137,-2.503,-2.4716,-2.4529,-2.4421,-2.4196,-2.4233,-2.4205,-2.4193,-2.356,-2.3272,-2.324,-2.2546,-2.2049,-2.1687,-2.1746,-2.1515,-2.1096,-2.1242,-2.1104,-2.0703,-2.0703,-2.0523,-2.011,-1.9928,-1.9837,-1.9745,-1.9579,-1.9379,-1.9271,-1.9196,-1.9104,-1.9004,-1.8827,-1.8827,-1.8827,-1.8827,-1.8827,-1.8735,-1.8743,-1.8743,-1.8651,-1.8381,-1.8566,-1.8658,-1.8575,-1.8995,-1.9338,-1.9337,-1.9626,-1.9831,-1.9728,-1.962,-1.9576,-1.9576,-1.9589,-1.9616,-1.9616,-1.9916,-2.0135,-2.023,-2.0457,-2.0625,-2.072,-2.0947,-2.0994,-2.1081,-2.0615,-2.0263,-1.9815,-1.97,-1.9591,-1.9366,-1.9366,-1.9366,-1.9243,-1.8997,-1.8874,-1.8765,-1.8421,-1.82,-1.7972,-1.7849,-1.7726,-1.7485,-1.7485,-1.7485,-1.7485,-2.7262,-2.7262,-2.7262,-2.7262,-2.7262,-2.7872,-2.9715,-2.9994,-2.9994,-2.9994,-2.9994,-2.9994,-2.9774,-2.9659,-2.9452,-2.8968,-2.8278,-2.7412,-2.6603,-2.621,-2.5927,-2.582,-2.582,-2.583,-2.5742,-2.5742,-2.5635,-2.544,-2.544,-2.5333,-2.503,-2.4932,-2.4716,-2.4492,-2.4332,-2.4341,-2.4332,-2.3868,-2.3669,-2.3749,-2.3144,-2.2867,-2.2622,-2.2411,-2.2393,-2.2438,-2.1995,-2.1561,-2.1276,-2.1088,-2.0934,-2.0711,-2.0382,-2.0247,-2.0213,-1.9912,-1.9662,-1.9554,-1.9479,-1.9387,-1.9296,-1.9012,-1.892,-1.8827,-1.8827,-1.8827,-1.8827,-1.8827,-1.8827,-1.8783,-1.8839,-1.9036,-1.9161,-1.9338,-1.9628,-1.9954,-1.9992,-2.0177,-2.0189,-2.0086,-1.9983,-1.9836,-1.9867,-1.9955,-1.9972,-2.0128,-2.0318,-2.0486,-2.0611,-2.0808,-2.0911,-2.0911,-2.1108,-2.1211,-2.1211,-2.0967,-2.0615,-2.0148,-1.9924,-1.97,-1.9591,-1.9482,-1.9366,-1.9366,-1.9243,-1.912,-1.912,-1.8771,-1.8538,-1.8311,-1.8083,-1.7849,-1.7726,-1.7602,-1.7485,-1.7485,-2.7262,-2.7262,-2.7262,-2.7262,-2.7262,-2.7872,-2.9715,-2.9942,-2.9932,-2.9984,-2.9994,-2.9994,-2.9994,-2.9774,-2.9659,-2.9659,-2.8522,-2.7633,-2.7289,-2.6748,-2.64,-2.6197,-2.61,-2.6004,-2.5732,-2.5732,-2.5742,-2.5742,-2.5742,-2.5538,-2.5333,-2.5333,-2.5137,-2.4932,-2.4637,-2.4529,-2.4529,-2.435,-2.4251,-2.4214,-2.3749,-2.3851,-2.4072,-2.3121,-2.337,-2.4003,-2.2536,-2.197,-2.1839,-2.1518,-2.1413,-2.1353,-2.1028,-2.0925,-2.0755,-2.0188,-1.9978,-1.9978,-1.9687,-1.9587,-1.9579,-1.9288,-1.9036,-1.8867,-1.8835,-1.8827,-1.8827,-1.8827,-1.8851,-1.8978,-1.9312,-1.9423,-1.9669,-2.0289,-2.0416,-2.0458,-2.0577,-2.0522,-2.0411,-2.0189,-2.0181,-2.0216,-2.0242,-2.0233,-2.0424,-2.072,-2.0764,-2.0896,-2.1196,-2.1211,-2.1211,-2.1211,-2.1211,-2.1211,-2.1211,-2.1211,-2.1081,-2.0716,-2.0155,-1.9815,-1.9815,-1.9597,-1.9366,-1.9366,-1.9366,-1.9366,-1.9366,-1.912,-1.8874,-1.8881,-1.8311,-1.8083,-1.7966,-1.7719,-1.7602,-1.7485,-2.7262,-2.7262,-2.7262,-2.7262,-2.7262,-2.7872,-2.9715,-2.958,-2.9446,-2.9932,-2.9994,-2.9994,-2.9994,-2.9994,-2.9879,-2.9879,-2.8829,-2.7913,-2.7574,-2.6835,-2.6496,-2.64,-2.64,-2.6304,-2.6004,-2.583,-2.5742,-2.5742,-2.5742,-2.5635,-2.5635,-2.544,-2.5235,-2.5235,-2.4932,-2.4833,-2.4833,-2.4538,-2.443,-2.443,-2.415,-2.4131,-2.4141,-2.3932,-2.4049,-2.4113,-2.3529,-2.2903,-2.2205,-2.1612,-2.1413,-2.1396,-2.1319,-2.1173,-2.0984,-2.0755,-2.0763,-2.0602,-2.002,-1.9845,-1.9754,-1.9579,-1.9507,-1.9357,-1.8891,-1.8827,-1.8827,-1.8827,-1.9058,-1.928,-1.936,-1.9812,-2.0218,-2.0369,-2.0623,-2.0837,-2.0806,-2.0822,-2.0822,-2.0712,-2.0514,-2.0542,-2.0763,-2.097,-2.1011,-2.1079,-2.1101,-2.1137,-2.1203,-2.1211,-2.1211,-2.1211,-2.1211,-2.1211,-2.1211,-2.1211,-2.1081,-2.0716,-2.0608,-2.027,-1.9815,-1.97,-1.9591,-1.9366,-1.9366,-1.9366,-1.9366,-1.9366,-1.912,-1.8881,-1.8765,-1.8538,-1.8305,-1.8188,-1.8077,-1.7849,-2.7262,-2.7262,-2.7262,-2.7262,-2.7262,-2.7686,-2.8938,-2.9094,-2.9208,-2.9611,-2.986,-2.9994,-2.9994,-2.9994,-2.9911,-2.9684,-2.891,-2.8212,-2.776,-2.7221,-2.6784,-2.6699,-2.6699,-2.6602,-2.6294,-2.611,-2.5927,-2.5742,-2.5742,-2.5742,-2.5742,-2.5538,-2.5538,-2.544,-2.5235,-2.5128,-2.503,-2.4833,-2.4726,-2.4637,-2.444,-2.4332,-2.4214,-2.4242,-2.417,-2.4189,-2.3863,-2.3322,-2.2624,-2.2325,-2.2051,-2.1927,-2.1985,-2.1696,-2.1391,-2.1234,-2.1131,-2.1097,-2.0696,-2.0636,-2.0551,-2.0381,-2.0326,-2.0178,-1.9442,-1.9295,-1.932,-1.932,-1.9471,-1.9662,-1.9828,-2.0154,-2.0448,-2.0615,-2.0805,-2.0925,-2.0925,-2.0925,-2.0925,-2.0925,-2.0972,-2.1063,-2.1448,-2.1544,-2.1587,-2.1645,-2.1554,-2.1439,-2.1439,-2.1325,-2.1211,-2.1211,-2.1211,-2.1211,-2.1211,-2.1211,-2.1089,-2.096,-2.0838,-2.0486,-2.0263,-1.9924,-1.97,-1.9591,-1.9482,-1.9366,-1.9379,-1.9512,-1.9369,-1.9133,-1.9148,-1.8881,-1.8648,-1.8421,-1.8305,-1.8194,-2.7357,-2.7262,-2.7262,-2.7262,-2.7262,-2.7469,-2.809,-2.8576,-2.898,-2.927,-2.9642,-2.9911,-2.9984,-2.9994,-2.9808,-2.9342,-2.8887,-2.8421,-2.7955,-2.751,-2.7167,-2.6996,-2.6996,-2.6794,-2.6592,-2.6602,-2.6304,-2.5732,-2.5732,-2.5732,-2.5742,-2.5742,-2.5742,-2.5732,-2.544,-2.5342,-2.5333,-2.5039,-2.4941,-2.4932,-2.4637,-2.4402,-2.4177,-2.4233,-2.4251,-2.4152,-2.3954,-2.3546,-2.3147,-2.3164,-2.2946,-2.2593,-2.2658,-2.2438,-2.2013,-2.1627,-2.1508,-2.1499,-2.143,-2.1413,-2.1318,-2.123,-2.1193,-2.0967,-2.0172,-1.9999,-1.9965,-1.9965,-2.0013,-2.0043,-2.0337,-2.044,-2.0575,-2.0869,-2.0925,-2.0925,-2.0925,-2.0925,-2.0925,-2.0925,-2.1282,-2.1676,-2.1978,-2.2135,-2.2116,-2.2116,-2.1888,-2.1782,-2.1782,-2.1439,-2.1325,-2.1325,-2.1211,-2.1211,-2.1211,-2.1211,-2.1211,-2.1211,-2.096,-2.0723,-2.0716,-2.0155,-1.9924,-1.9815,-1.9591,-1.9482,-1.9502,-1.9626,-1.9586,-1.9386,-1.9384,-1.9207,-1.8997,-1.8648,-1.8538,-1.8538,-2.7452,-2.7262,-2.7262,-2.7262,-2.7262,-2.7469,-2.809,-2.8121,-2.8369,-2.9197,-2.9363,-2.9549,-2.9953,-2.9994,-2.9808,-2.9342,-2.8887,-2.8421,-2.7955,-2.751,-2.7262,-2.7262,-2.7262,-2.7081,-2.69,-2.6805,-2.6602,-2.6004,-2.6004,-2.5917,-2.5742,-2.5742,-2.5742,-2.5742,-2.5635,-2.5645,-2.5635,-2.5333,-2.5235,-2.5235,-2.4932,-2.4609,-2.4276,-2.4548,-2.4467,-2.4152,-2.4152,-2.3836,-2.352,-2.3447,-2.302,-2.2676,-2.2885,-2.2785,-2.2398,-2.203,-2.1919,-2.1841,-2.1499,-2.1413,-2.1405,-2.1413,-2.1476,-2.1517,-2.1368,-2.0753,-2.0281,-2.0281,-2.0319,-2.0337,-2.0384,-2.0647,-2.0861,-2.0909,-2.0925,-2.0925,-2.0925,-2.0925,-2.0925,-2.0925,-2.1489,-2.1937,-2.2001,-2.2359,-2.2456,-2.2116,-2.2116,-2.2002,-2.2002,-2.1774,-2.1668,-2.1668,-2.1325,-2.1211,-2.1211,-2.1211,-2.1211,-2.1211,-2.1203,-2.0967,-2.0716,-2.0608,-2.0493,-2.0155,-1.9931,-1.97,-1.97,-1.9522,-1.9406,-1.9372,-1.9406,-1.9399,-1.9243,-1.8997,-1.8881,-1.8765,-2.8019,-2.782,-2.7631,-2.7441,-2.7452,-2.7535,-2.7624,-2.781,-2.8069,-2.8483,-2.898,-2.9384,-2.9591,-2.9611,-2.9425,-2.8959,-2.8493,-2.8038,-2.7583,-2.7365,-2.7262,-2.7262,-2.7262,-2.7262,-2.7177,-2.7081,-2.689,-2.6506,-2.64,-2.6207,-2.5917,-2.5917,-2.582,-2.5742,-2.5742,-2.5742,-2.5732,-2.5538,-2.5538,-2.5538,-2.5235,-2.5039,-2.5049,-2.4833,-2.4655,-2.4585,-2.426,-2.4071,-2.3881,-2.389,-2.3456,-2.312,-2.3256,-2.3164,-2.302,-2.2655,-2.2603,-2.246,-2.2189,-2.2038,-2.2038,-2.2038,-2.2076,-2.2204,-2.2204,-2.1678,-2.1255,-2.1163,-2.0986,-2.0889,-2.0889,-2.0915,-2.0925,-2.0925,-2.0925,-2.0925,-2.0925,-2.0925,-2.1068,-2.1457,-2.1949,-2.2394,-2.2521,-2.2702,-2.2788,-2.2562,-2.2456,-2.2343,-2.2343,-2.2116,-2.1888,-2.1888,-2.1668,-2.1439,-2.1439,-2.1325,-2.1211,-2.1211,-2.1211,-2.1089,-2.0967,-2.0838,-2.0601,-2.0493,-2.0155,-2.0046,-2.0053,-2.0,-1.9739,-1.9604,-1.9663,-1.9512,-1.9366,-1.9243,-1.912,-1.9127]},{"header":{"parameterUnit":"m.s-1","parameterCategory":1,"la1":30.6,"la2":28.766,"lo1":-90.7593,"lo2":-88.6598,"dy":0.0162,"dx":0.0183,"nx":116,"ny":114,"refTime":"2023-07-17T00:00:00:Z","depth":0,"parameterNumber":3,"parameterNumberName":"V-component_of_WINDS"},"data":[0.0,0.0,0.0,0.0,0.0,0.0,0.0,0.0,0.0,0.0,0.0,0.0,0.0,0.0,0.0,0.0,0.0,0.0,0.0,0.0,0.0,0.0,0.0,0.0,0.0,0.0,0.0,0.0,0.0,0.0,0.0,0.0,0.0,0.0,0.0,0.0,0.0,0.0,0.0,0.0,0.0,0.0,0.0,0.0,0.0,0.0,0.0,0.0,0.0,0.0,0.0,0.0,0.0,0.0,0.0,0.0,0.0,0.0,0.0,0.0,0.0,0.0,0.0,0.0,0.0,0.0,0.0,0.0,0.0,0.0,0.0,0.0,0.0,0.0,0.0,0.0,0.0,0.0,0.0,0.0,0.0,0.0,0.0,0.0,0.0,0.0,0.0,0.0,0.0,0.0,0.0,0.0,0.0,0.0,0.0,0.0,0.0,0.0,0.0,0.0,0.0,0.0,0.0,0.0,0.0,0.0,0.0,0.0,0.0,0.0,0.0,0.0,0.0,0.0,0.0,0.0,0.0,0.0,0.0,0.0,0.0,0.0,0.0,0.0,0.0,0.0,0.0,0.0,0.0,0.0,0.0,0.0,0.0,0.0,0.0,0.0,0.0,0.0,0.0,0.0,0.0,0.0,0.0,0.0,0.0,0.0,0.0,0.0,0.0,0.0,0.0,0.0,0.0,0.0,0.0,0.0,0.0,0.0,0.0,0.0,0.0,0.0,0.0,0.0,0.0,0.0,0.0,0.0,0.0,0.0,0.0,0.0,0.0,0.0,0.0,0.0,0.0,0.0,0.0,0.0,0.0,0.0,0.0,0.0,0.0,0.0,0.0,0.0,0.0,0.0,0.0,0.0,0.0,0.0,0.0,0.0,0.0,0.0,0.0,0.0,0.0,0.0,0.0,0.0,0.0,0.0,0.0,0.0,0.0,0.0,0.0,0.0,0.0,0.0,0.0,0.0,0.0,0.0,0.0,0.0,0.0,0.0,0.0,0.0,0.0,0.0,0.0,0.0,0.0,0.0,0.0,0.0,0.0,0.0,0.0,0.0,0.0,0.0,0.0,0.0,0.0,0.0,0.0,0.0,0.0,0.0,0.0,0.0,0.0,0.0,0.0,0.0,0.0,0.0,0.0,0.0,0.0,0.0,0.0,0.0,0.0,0.0,0.0,0.0,0.0,0.0,0.0,0.0,0.0,0.0,0.0,0.0,0.0,0.0,0.0,0.0,0.0,0.0,0.0,0.0,0.0,0.0,0.0,0.0,0.0,0.0,0.0,0.0,0.0,0.0,0.0,0.0,0.0,0.0,0.0,0.0,0.0,0.0,0.0,0.0,0.0,0.0,0.0,0.0,0.0,0.0,0.0,0.0,0.0,0.0,0.0,0.0,0.0,0.0,0.0,0.0,0.0,0.0,0.0,0.0,0.0,0.0,0.0,0.0,0.0,0.0,0.0,0.0,0.0,0.0,0.0,0.0,0.0,0.0,0.0,0.0,0.0,0.0,0.0,0.0,0.0,0.0,0.0,0.0,0.0,0.0,0.0,0.0,0.0,0.0,0.0,0.0,0.0,0.0,0.0,0.0,0.0,0.0,0.0,0.0,0.0,0.0,0.0,0.0,0.0,0.0,0.0,0.0,0.0,0.0,0.0,0.0,0.0,0.0,0.0,0.0,0.0,0.0,0.0,0.0,0.0,0.0,0.0,0.0,0.0,0.0,0.0,0.0,0.0,0.0,0.0,0.0,0.0,0.0,0.0,0.0,0.0,0.0,0.0,0.0,0.0,0.0,0.0,0.0,0.0,0.0,0.0,0.0,0.0,0.0,0.0,0.0,0.0,0.0,0.0,0.0,0.0,0.0,0.0,0.0,0.0,0.0,0.0,0.0,0.0,0.0,0.0,0.0,0.0,0.0,0.0,0.0,0.0,0.0,0.0,0.0,0.0,0.0,0.0,0.0,0.0,0.0,0.0,0.0,0.0,0.0,0.0,0.0,0.0,0.0,0.0,0.0,0.0,0.0,0.0,0.0,0.0,0.0,0.0,0.0,0.0,0.0,0.0,0.0,0.0,0.0,0.0,0.0,0.0,0.0,0.0,0.0,0.0,0.0,0.0,0.0,0.0,0.0,0.0,0.0,0.0,0.0,0.0,0.0,0.0,0.0,0.0,0.0,0.0,0.0,0.0,0.0,0.0,0.0,0.0,0.0,0.0,0.0,0.0,0.0,0.0,0.0,0.0,0.0,0.0,0.0,0.0,0.0,0.0,0.0,0.0,0.0,0.0,0.0,0.0,0.0,0.0,0.0,0.0,0.0,0.0,0.0,0.0,0.0,0.0,0.0,0.0,0.0,0.0,0.0,0.0,0.0,0.0,0.0,0.0,0.0,0.0,0.0,0.0,0.0,0.0,0.0,0.0,0.0,0.0,0.0,0.0,0.0,0.0,0.0,0.0,0.0,0.0,0.0,0.0,0.0,0.0,0.0,0.0,0.0,0.0,0.0,0.0,0.0,0.0,0.0,0.0,0.0,0.0,0.0,0.0,0.0,0.0,0.0,0.0,0.0,0.0,0.0,0.0,0.0,0.0,0.0,0.0,0.0,0.0,0.0,0.0,0.0,0.0,0.0,0.0,0.0,0.0,0.0,0.0,0.0,0.0,0.0,0.0,0.0,0.0,0.0,0.0,0.0,0.0,0.0,0.0,0.0,0.0,0.0,0.0,0.0,0.0,0.0,0.0,0.0,0.0,0.0,0.0,0.0,0.0,0.0,0.0,0.0,0.0,0.0,0.0,0.0,0.0,0.0,0.0,0.0,0.0,0.0,0.0,0.0,0.0,0.0,0.0,0.0,0.0,0.0,0.0,0.0,0.0,0.0,0.0,0.0,0.0,0.0,0.0,0.0,0.0,0.0,0.0,0.0,0.0,0.0,0.0,0.0,0.0,0.0,0.0,0.0,0.0,0.0,0.0,0.0,0.0,0.0,0.0,0.0,0.0,0.0,0.0,0.0,0.0,0.0,0.0,0.0,0.0,0.0,0.0,0.0,0.0,0.0,0.0,0.0,0.0,0.0,0.0,0.0,0.0,0.0,0.0,0.0,0.0,0.0,0.0,0.0,0.0,0.0,0.0,0.0,0.0,0.0,0.0,0.0,0.0,0.0,0.0,0.0,0.0,0.0,0.0,0.0,0.0,0.0,0.0,0.0,0.0,0.0,0.0,0.0,0.0,0.0,0.0,0.0,0.0,0.0,0.0,0.0,0.0,0.0,0.0,0.0,0.0,0.0,0.0,0.0,0.0,0.0,0.0,0.0,0.0,0.0,0.0,0.0,0.0,0.0,0.0,0.0,0.0,0.0,0.0,0.0,0.0,0.0,0.0,0.0,0.0,0.0,0.0,0.0,0.0,0.0,0.0,0.0,0.0,0.0,0.0,0.0,0.0,0.0,0.0,0.0,0.0,0.0,0.0,0.0,0.0,0.0,0.0,0.0,0.0,0.0,0.0,0.0,0.0,0.0,0.0,0.0,0.0,0.0,0.0,0.0,0.0,0.0,0.0,0.0,0.0,0.0,0.0,0.0,0.0,0.0,0.0,0.0,0.0,0.0,0.0,0.0,0.0,0.0,0.0,0.0,0.0,0.0,0.0,0.0,0.0,0.0,0.0,0.0,0.0,0.0,0.0,0.0,0.0,0.0,0.0,0.0,0.0,0.0,0.0,0.0,0.0,0.0,0.0,0.0,0.0,0.0,0.0,0.0,0.0,0.0,0.0,0.0,0.0,0.0,0.0,0.0,0.0,0.0,0.0,0.0,0.0,0.0,0.0,0.0,0.0,0.0,0.0,0.0,0.0,0.0,0.0,0.0,0.0,0.0,0.0,0.0,0.0,0.0,0.0,0.0,0.0,0.0,0.0,0.0,0.0,0.0,0.0,0.0,0.0,0.0,0.0,0.0,0.0,0.0,0.0,0.0,0.0,0.0,0.0,0.0,0.0,0.0,0.0,0.0,0.0,0.0,0.0,0.0,0.0,0.0,0.0,0.0,0.0,0.0,0.0,0.0,0.0,0.0,0.0,0.0,0.0,0.0,0.0,0.0,0.0,0.0,0.0,0.0,0.0,0.0,0.0,0.0,0.0,0.0,0.0,0.0,0.0,0.0,0.0,0.0,0.0,0.0,0.0,0.0,0.0,0.0,0.0,0.0,0.0,0.0,0.0,0.0,0.0,0.0,0.0,0.0,0.0,0.0,0.0,0.0,0.0,0.0,0.0,0.0,0.0,0.0,0.0,0.0,0.0,0.0,0.0,0.0,0.0,0.0,0.0,0.0,0.0,0.0,0.0,0.0,0.0,0.0,0.0,0.0,0.0,0.0,0.0,0.0,0.0,0.0,0.0,0.0,0.0,0.0,0.0,0.0,0.0,0.0,0.0,0.0,0.0,0.0,0.0,0.0,0.0,0.0,0.0,0.0,0.0,0.0,0.0,0.0,0.0,0.0,0.0,0.0,0.0,0.0,0.0,0.0,0.0,0.0,0.0,0.0,0.0,0.0,0.0,0.0,0.0,0.0,0.0,0.0,0.0,0.0,0.0,0.0,0.0,0.0,0.0,0.0,0.0,0.0,0.0,0.0,0.0,0.0,0.0,0.0,0.0,0.0,0.0,0.0,0.0,0.0,0.0,0.0,0.0,0.0,0.0,0.0,0.0,0.0,0.0,0.0,0.0,0.0,0.0,0.0,0.0,0.0,0.0,0.0,0.0,0.0,0.0,0.0,0.0,0.0,0.0,0.0,0.0,0.0,0.0,0.0,0.0,0.0,0.0,0.0,0.0,0.0,0.0,0.0,0.0,0.0,0.0,0.0,0.0,0.0,0.0,0.0,0.0,0.0,0.0,0.0,0.0,0.0,0.0,0.0,0.0,0.0,0.0,0.0,0.0,0.0,0.0,0.0,0.0,0.0,0.0,0.0,0.0,0.0,0.0,0.0,0.0,0.0,0.0,0.0,0.0,0.0,0.0,0.0,0.0,0.0,0.0,0.0,0.0,0.0,0.0,0.0,0.0,0.0,0.0,0.0,0.0,0.0,0.0,0.0,0.0,0.0,0.0,0.0,0.0,0.0,0.0,0.0,0.0,0.0,0.0,0.0,0.0,0.0,0.0,0.0,0.0,0.0,0.0,0.0,0.0,0.0,0.0,0.0,0.0,0.0,0.0,0.0,0.0,0.0,0.0,0.0,0.0,0.0,0.0,0.0,0.0,0.0,0.0,0.0,0.0,0.0,0.0,0.0,0.0,0.0,0.0,0.0,0.0,0.0,0.0,0.0,0.0,0.0,0.0,0.0,0.0,0.0,0.0,0.0,0.0,0.0,0.0,0.0,0.0,0.0,0.0,0.0,0.0,0.0,0.0,0.0,0.0,0.0,0.0,0.0,0.0,0.0,0.0,0.0,0.0,0.0,0.0,0.0,0.0,0.0,0.0,0.0,0.0,0.0,0.0,0.0,0.0,0.0,0.0,0.0,0.0,0.0,0.0,0.0,0.0,0.0,0.0,0.0,0.0,0.0,0.0,0.0,0.0,0.0,0.0,0.0,0.0,0.0,0.0,0.0,0.0,0.0,0.0,0.0,0.0,0.0,0.0,0.0,0.0,0.0,0.0,0.0,0.0,0.0,0.0,0.0,0.0,0.0,0.0,0.0,0.0,0.0,0.0,0.0,0.0,0.0,0.0,0.0,0.0,0.0,0.0,0.0,0.0,0.0,0.0,0.0,0.0,0.0,0.0,0.0,0.0,0.0,0.0,0.0,0.0,0.0,0.0,0.0,0.0,0.0,0.0,0.0,0.0,0.0,0.0,0.0,0.0,0.0,0.0,0.0,0.0,0.0,0.0,0.0,0.0,0.0,0.0,0.0,0.0,0.0,0.0,0.0,0.0,0.0,0.0,0.0,0.0,0.0,0.0,0.0,0.0,0.0,0.0,0.0,0.0,0.0,0.0,0.0,0.0,0.0,0.0,0.0,0.0,0.0,0.0,0.0,0.0,0.0,0.0,0.0,0.0,0.0,0.0,0.0,0.0,0.0,0.0,0.0,0.0,0.0,0.0,0.0,0.0,0.0,0.0,0.0,0.0,0.0,0.0,0.0,-1.7305,0.0,0.0,0.0,0.0,0.0,0.0,0.0,0.0,0.0,0.0,0.0,0.0,0.0,0.0,0.0,0.0,0.0,0.0,0.0,0.0,0.0,0.0,0.0,0.0,0.0,0.0,0.0,0.0,0.0,0.0,0.0,0.0,0.0,0.0,0.0,0.0,0.0,0.0,0.0,0.0,0.0,0.0,0.0,0.0,0.0,0.0,0.0,0.0,0.0,0.0,0.0,0.0,0.0,0.0,0.0,0.0,0.0,0.0,0.0,0.0,0.0,0.0,0.0,0.0,0.0,0.0,0.0,0.0,0.0,0.0,0.0,0.0,0.0,0.0,0.0,0.0,0.0,0.0,0.0,0.0,0.0,0.0,0.0,0.0,0.0,0.0,0.0,0.0,0.0,0.0,0.0,0.0,0.0,0.0,0.0,0.0,0.0,0.0,0.0,0.0,0.0,0.0,0.0,0.0,0.0,0.0,0.0,0.0,0.0,0.0,0.0,0.0,0.0,0.0,0.0,0.0,-1.9051,0.0,0.0,0.0,0.0,0.0,0.0,0.0,0.0,0.0,0.0,0.0,0.0,0.0,0.0,0.0,0.0,0.0,0.0,0.0,0.0,0.0,0.0,0.0,0.0,0.0,0.0,0.0,0.0,0.0,0.0,0.0,0.0,0.0,0.0,0.0,0.0,0.0,0.0,0.0,0.0,0.0,0.0,0.0,0.0,0.0,0.0,0.0,0.0,0.0,0.0,0.0,0.0,0.0,0.0,0.0,0.0,0.0,0.0,0.0,0.0,0.0,0.0,0.0,0.0,0.0,0.0,0.0,0.0,0.0,0.0,0.0,0.0,0.0,0.0,0.0,0.0,0.0,0.0,0.0,0.0,0.0,0.0,0.0,0.0,0.0,0.0,0.0,0.0,0.0,0.0,0.0,0.0,0.0,0.0,0.0,0.0,0.0,0.0,0.0,0.0,0.0,0.0,0.0,0.0,0.0,0.0,0.0,0.0,-2.379,-2.4699,-2.6401,-2.6401,-2.6401,-2.6227,-2.3403,-2.1829,-2.1288,-2.1288,0.0,0.0,0.0,0.0,0.0,0.0,0.0,0.0,0.0,0.0,0.0,0.0,0.0,0.0,0.0,0.0,0.0,0.0,0.0,0.0,0.0,0.0,0.0,0.0,0.0,0.0,0.0,0.0,0.0,0.0,0.0,0.0,0.0,0.0,0.0,0.0,0.0,0.0,-2.2058,-2.293,-2.3563,-2.3832,0.0,0.0,0.0,0.0,0.0,0.0,0.0,0.0,0.0,0.0,0.0,0.0,0.0,0.0,0.0,0.0,0.0,0.0,0.0,0.0,0.0,0.0,0.0,0.0,0.0,0.0,0.0,0.0,0.0,0.0,0.0,0.0,0.0,0.0,0.0,0.0,0.0,0.0,0.0,0.0,0.0,0.0,0.0,0.0,-1.0638,-1.3198,0.0,0.0,0.0,0.0,0.0,0.0,0.0,0.0,0.0,0.0,0.0,0.0,0.0,-2.259,-2.3345,-2.4331,-2.5666,-2.7337,-2.7337,-2.8238,-2.9921,-2.9921,-2.9921,-2.9901,-2.9457,0.0,-2.4834,-2.4834,0.0,0.0,0.0,0.0,0.0,0.0,0.0,0.0,0.0,0.0,0.0,0.0,0.0,0.0,0.0,0.0,0.0,0.0,0.0,0.0,0.0,0.0,0.0,0.0,0.0,0.0,0.0,0.0,0.0,0.0,0.0,0.0,0.0,0.0,0.0,0.0,0.0,0.0,0.0,0.0,-2.6584,-2.7332,-2.6357,-2.486,-2.3015,-2.1696,0.0,0.0,0.0,0.0,0.0,0.0,0.0,0.0,0.0,0.0,0.0,0.0,0.0,0.0,0.0,0.0,0.0,0.0,0.0,0.0,0.0,0.0,0.0,0.0,0.0,0.0,0.0,0.0,0.0,0.0,0.0,0.0,0.0,0.0,0.0,0.0,0.0,0.0,0.0,-1.1149,-1.3464,-1.4545,-1.5948,-1.697,0.0,0.0,0.0,0.0,0.0,0.0,0.0,0.0,0.0,-2.4447,-2.5337,-2.6169,-2.7058,-2.7929,-2.8954,-3.0133,-3.0636,-3.1526,-3.2745,-3.3247,-3.346,-3.346,-3.346,-3.2628,-3.1081,-2.9166,-2.8371,-2.8377,0.0,0.0,0.0,0.0,-2.8469,-2.8476,0.0,0.0,0.0,0.0,0.0,0.0,0.0,0.0,0.0,0.0,0.0,0.0,0.0,0.0,0.0,-1.5915,0.0,0.0,0.0,0.0,0.0,0.0,0.0,0.0,0.0,0.0,0.0,0.0,0.0,0.0,0.0,0.0,0.0,0.0,0.0,-2.9198,-2.6177,-2.4716,-2.3851,0.0,0.0,0.0,0.0,0.0,0.0,0.0,0.0,0.0,0.0,0.0,0.0,0.0,0.0,0.0,0.0,0.0,0.0,0.0,0.0,0.0,0.0,0.0,0.0,0.0,0.0,0.0,0.0,0.0,0.0,0.0,0.0,0.0,0.0,0.0,0.0,0.0,0.0,-1.3856,-1.5824,-1.6438,-1.857,-2.008,0.0,0.0,0.0,0.0,0.0,0.0,-2.4157,-2.5027,-2.6265,-2.7939,-2.8857,-2.9727,-3.0598,-3.1468,-3.2319,-3.3112,-3.377,-3.4524,-3.5394,-3.6033,-3.6342,-3.6342,-3.6342,-3.6353,-3.6121,-3.3141,-3.1903,-3.1891,-3.1676,-3.1759,-3.1977,-3.1759,-3.1817,-3.1992,0.0,0.0,0.0,0.0,0.0,0.0,0.0,0.0,0.0,0.0,0.0,0.0,0.0,0.0,-1.679,-1.8384,-1.9352,-1.9552,0.0,0.0,0.0,0.0,0.0,0.0,0.0,0.0,0.0,0.0,0.0,0.0,0.0,0.0,0.0,0.0,0.0,0.0,0.0,-2.7995,-2.6697,-2.5014,0.0,0.0,0.0,0.0,0.0,0.0,0.0,0.0,0.0,0.0,0.0,0.0,0.0,0.0,0.0,0.0,0.0,0.0,0.0,0.0,0.0,0.0,0.0,0.0,0.0,0.0,0.0,0.0,0.0,0.0,0.0,0.0,0.0,0.0,0.0,0.0,0.0,0.0,0.0,-1.9764,-2.1567,0.0,0.0,0.0,0.0,-2.5232,-2.5986,-2.6826,-2.7705,-2.8567,-2.9805,-3.1487,-3.2386,-3.3267,-3.4118,-3.5007,-3.5858,-3.6651,-3.669,-3.7174,-3.8005,-3.8063,-3.8083,-3.8083,-3.8083,-3.8114,-3.8031,-3.6192,-3.5427,-3.5379,-3.4592,-3.4811,-3.5441,-3.4614,-3.4828,-3.5546,0.0,0.0,0.0,0.0,0.0,0.0,0.0,0.0,0.0,0.0,0.0,0.0,0.0,-1.6971,-1.8894,-1.9473,-2.0801,-2.1495,-2.1206,0.0,0.0,0.0,0.0,0.0,0.0,0.0,0.0,0.0,0.0,0.0,0.0,0.0,0.0,0.0,0.0,0.0,0.0,0.0,0.0,-2.8437,-2.6755,-2.4736,0.0,0.0,0.0,0.0,0.0,0.0,0.0,0.0,0.0,0.0,0.0,0.0,0.0,0.0,0.0,0.0,0.0,0.0,0.0,0.0,0.0,0.0,0.0,0.0,0.0,0.0,0.0,0.0,0.0,0.0,0.0,0.0,0.0,0.0,0.0,0.0,0.0,-2.1751,-2.3879,0.0,-2.6467,-2.7335,-2.8116,-2.8741,-2.9534,-3.0366,-3.1236,-3.2106,-3.3344,-3.5027,-3.5375,-3.5955,-3.6845,-3.7154,-3.7444,-3.7754,-3.8876,-3.9572,-3.9901,-4.0984,-4.1487,-4.1467,-4.1126,-4.1209,-4.1497,-4.0552,-3.9043,-3.7347,-3.7065,-3.7161,-3.743,-3.712,-3.7217,-3.7469,0.0,0.0,0.0,0.0,0.0,0.0,0.0,0.0,0.0,0.0,0.0,-1.4206,-1.5592,-1.8541,-2.0634,-2.1214,-2.2533,-2.3228,-2.293,0.0,0.0,0.0,0.0,0.0,0.0,0.0,0.0,0.0,0.0,0.0,0.0,0.0,0.0,0.0,0.0,0.0,0.0,0.0,0.0,0.0,-2.9375,-2.7358,-2.5168,0.0,0.0,0.0,0.0,0.0,0.0,0.0,0.0,0.0,0.0,0.0,0.0,0.0,0.0,0.0,0.0,0.0,0.0,0.0,0.0,0.0,0.0,0.0,0.0,0.0,0.0,0.0,0.0,0.0,0.0,0.0,0.0,0.0,0.0,0.0,-2.2956,-2.4351,-2.6505,-2.8238,-2.9129,-3.0248,-3.1186,-3.1835,-3.2899,-3.377,-3.435,-3.522,-3.6187,-3.7309,-3.7909,-3.8489,-3.9069,-3.9649,-3.992,-3.9939,-4.1081,-4.1641,-4.168,-4.2783,-4.3305,-4.3285,-4.2924,-4.2892,-4.3085,-4.2928,-4.1856,-4.0277,-3.9801,-3.983,-4.0092,-3.9781,-3.9858,-4.0111,0.0,0.0,0.0,0.0,0.0,0.0,0.0,0.0,0.0,0.0,-1.2091,-1.4606,-1.711,-1.97,-2.1897,-2.3523,-2.449,-2.4636,-2.3784,-2.3803,0.0,0.0,0.0,0.0,0.0,0.0,0.0,0.0,0.0,0.0,0.0,0.0,0.0,0.0,0.0,0.0,0.0,0.0,0.0,0.0,-3.1142,-2.9436,-2.7719,0.0,0.0,0.0,0.0,0.0,0.0,0.0,0.0,0.0,0.0,0.0,0.0,0.0,0.0,0.0,0.0,0.0,0.0,0.0,0.0,0.0,0.0,0.0,0.0,0.0,0.0,0.0,0.0,0.0,0.0,0.0,0.0,0.0,-2.1581,-2.3129,-2.5188,-2.7678,-2.9486,-3.0895,-3.183,-3.3412,-3.443,-3.4505,-3.6013,-3.6961,-3.698,-3.7812,-3.8295,-3.8315,-3.9978,-4.0868,-4.0868,-4.2492,-4.3305,-4.3305,-4.3324,-4.3343,-4.3343,-4.3363,-4.3382,-4.3382,-4.3382,-4.3086,-4.2647,-4.3238,-4.3815,-4.4217,-4.2782,-4.2753,-4.3394,-4.2539,-4.2772,-4.351,0.0,0.0,0.0,0.0,0.0,0.0,0.0,0.0,0.0,0.0,-1.2938,-1.5245,-1.7117,-2.0174,-2.2256,-2.2709,-2.4044,-2.4776,-2.4577,0.0,0.0,0.0,0.0,0.0,0.0,0.0,0.0,0.0,0.0,0.0,0.0,0.0,0.0,0.0,0.0,0.0,0.0,0.0,0.0,0.0,-3.4825,-3.2541,-3.0299,0.0,0.0,0.0,0.0,0.0,0.0,0.0,0.0,0.0,0.0,0.0,0.0,0.0,0.0,0.0,0.0,0.0,0.0,0.0,0.0,0.0,0.0,0.0,0.0,0.0,0.0,0.0,0.0,0.0,0.0,0.0,0.0,-2.4062,-2.3475,-2.59,-2.8217,-2.9544,-3.1756,-3.3513,-3.4398,-3.5463,-3.6407,-3.71,-3.7588,-3.8121,-3.874,-3.9611,-4.0346,-4.0945,-4.2028,-4.2609,-4.2609,-4.3073,-4.3305,-4.3305,-4.3943,-4.4253,-4.4272,-4.4852,-4.5104,-4.5104,-4.5104,-4.5073,-4.4983,-4.5131,-4.5311,-4.5309,-4.3742,-4.3297,-4.3471,-4.3238,-4.3297,-4.3588,0.0,0.0,0.0,0.0,0.0,0.0,0.0,0.0,0.0,0.0,-1.3438,-1.5582,-1.7592,-2.0521,-2.2499,-2.2819,-2.4058,-2.4827,-2.4856,0.0,0.0,0.0,0.0,0.0,0.0,0.0,0.0,0.0,0.0,0.0,0.0,0.0,0.0,0.0,0.0,0.0,0.0,0.0,0.0,0.0,-3.7439,-3.5312,-3.2843,-3.0814,-2.9532,-2.8556,-2.6718,-2.5283,-2.4203,-2.3715,0.0,0.0,0.0,0.0,0.0,0.0,0.0,0.0,0.0,0.0,0.0,0.0,0.0,0.0,0.0,0.0,0.0,0.0,0.0,0.0,0.0,0.0,0.0,0.0,-2.6043,-2.7101,-2.7698,-2.9159,-3.0775,-3.2352,-3.3833,-3.5213,-3.6427,-3.7327,-3.8099,-3.8672,-3.9032,-3.9637,-4.05,-4.1023,-4.168,-4.2512,-4.3401,-4.3846,-4.3846,-4.4175,-4.4349,-4.4349,-4.4852,-4.5104,-4.5123,-4.5587,-4.58,-4.58,-4.58,-4.5814,-4.586,-4.5893,-4.5887,0.0,0.0,0.0,0.0,0.0,-4.4559,-4.4617,0.0,0.0,0.0,0.0,0.0,0.0,0.0,0.0,0.0,0.0,0.0,-1.553,-1.8071,-2.0539,-2.2332,-2.3136,-2.4086,-2.4685,0.0,0.0,0.0,0.0,0.0,0.0,0.0,0.0,0.0,0.0,0.0,0.0,0.0,0.0,0.0,0.0,0.0,0.0,0.0,0.0,0.0,-3.9127,-3.9049,-3.754,-3.5095,-3.2783,-3.1369,-3.0491,-2.9541,-2.8211,-2.6898,-2.6802,0.0,0.0,0.0,0.0,0.0,0.0,0.0,0.0,0.0,0.0,0.0,0.0,0.0,0.0,0.0,0.0,0.0,0.0,0.0,0.0,0.0,0.0,0.0,0.0,-2.9083,-3.0487,-3.2852,-3.2737,-3.3218,-3.5391,-3.5815,-3.6521,-3.7993,-3.895,-3.9518,-3.9683,-4.0397,-4.1235,-4.2093,0.0,0.0,0.0,0.0,-4.4736,-4.4736,-4.5432,-4.58,-4.58,-4.58,-4.58,-4.58,-4.58,-4.58,-4.58,-4.58,-4.58,-4.5814,-4.586,-4.597,-4.608,-4.6026,-4.5991,-4.6003,-4.6005,-4.5997,-4.5997,0.0,0.0,0.0,0.0,0.0,0.0,0.0,0.0,0.0,-1.0891,-1.2696,-1.4678,-1.7179,-1.9089,-2.0551,-2.1414,-2.2882,-2.4057,0.0,0.0,0.0,0.0,0.0,0.0,0.0,0.0,0.0,0.0,0.0,0.0,0.0,0.0,0.0,0.0,0.0,0.0,0.0,-4.0196,-4.012,-3.991,-3.926,-3.7903,-3.6126,-3.4942,-3.3987,-3.307,-3.1541,-3.0338,-2.9377,-2.8676,-2.7778,-2.6835,-2.5956,0.0,0.0,0.0,0.0,0.0,0.0,0.0,0.0,0.0,0.0,0.0,0.0,0.0,0.0,0.0,0.0,0.0,0.0,0.0,0.0,-3.0525,-3.2218,-3.3622,-3.4834,-3.6026,-3.6699,-3.6488,-3.7719,-3.8681,-3.9022,-3.9841,-4.0646,-4.1354,-4.1576,-4.2049,-4.2922,-4.3617,-4.4114,-4.4349,-4.5142,-4.5568,-4.5568,-4.5722,-4.58,-4.58,0.0,0.0,-4.58,-4.58,-4.58,-4.58,-4.58,-4.58,-4.58,-4.5814,-4.6402,-4.7184,-4.6273,-4.5949,-4.5991,-4.6003,-4.6005,-4.5997,0.0,0.0,0.0,0.0,0.0,0.0,0.0,0.0,0.0,0.0,-1.2159,-1.408,-1.5766,-1.7788,-1.9395,-2.0255,-2.2243,0.0,0.0,0.0,0.0,0.0,0.0,0.0,0.0,0.0,0.0,0.0,0.0,0.0,0.0,0.0,0.0,0.0,0.0,-4.0057,-4.0117,-4.0137,-4.0157,-4.008,-3.928,-3.8211,-3.7009,-3.6167,-3.5076,-3.3891,-3.3051,-3.1923,-3.0777,-3.0357,-2.9363,-2.8223,-2.7797,-2.709,-2.6109,0.0,0.0,0.0,0.0,0.0,0.0,0.0,0.0,0.0,0.0,0.0,0.0,0.0,0.0,-2.6255,0.0,0.0,-3.1102,-3.3256,-3.4641,-3.5911,-3.7219,-3.8123,-3.8488,-3.8046,-3.8757,-3.945,-3.9854,-4.0273,-4.0939,-4.1821,-4.1894,-4.2463,-4.3728,-4.421,-4.4684,-4.5172,-4.5578,-4.5805,-4.58,-4.58,-4.6013,-4.6438,-4.6013,-4.6032,-4.6438,-4.5993,-4.58,-4.58,-4.58,-4.6051,-4.6477,-4.6922,-4.7458,-4.7937,-4.7384,-4.7178,-4.719,-4.6806,-4.6643,-4.6577,0.0,0.0,0.0,0.0,0.0,0.0,0.0,0.0,0.0,0.0,0.0,-1.3299,-1.435,-1.6373,-1.8224,0.0,0.0,0.0,0.0,0.0,0.0,0.0,0.0,0.0,0.0,0.0,0.0,0.0,0.0,0.0,-3.7428,-3.8963,-3.9781,-3.9975,-3.9975,-4.0015,-4.0057,-4.0096,-4.0001,-3.9792,-3.9128,-3.8289,-3.7337,-3.6551,-3.5403,-3.4197,-3.4063,-3.3012,-3.1713,-3.1541,-3.0452,-2.914,-2.914,-2.8586,-2.7663,-2.6319,-2.5681,0.0,0.0,0.0,0.0,0.0,0.0,0.0,0.0,0.0,-2.6726,-2.8313,-2.8756,-2.9602,-3.2006,-3.3103,-3.416,-3.5738,-3.668,-3.77,-3.9104,-3.9431,-3.9527,-3.9527,-3.9527,-3.9777,-4.0431,-4.0489,-4.0947,-4.2056,-4.2133,-4.2861,-4.4565,-4.4662,-4.5021,-4.5781,-4.58,-4.5887,-4.6051,-4.6051,-4.6477,-4.7347,-4.6631,-4.667,-4.7328,-4.6631,-4.6303,-4.6303,-4.6303,-4.6689,-4.7405,-4.8101,-4.8508,-4.8643,-4.8643,-4.8769,-4.8845,-4.7876,-4.7416,-4.7183,0.0,0.0,0.0,0.0,0.0,0.0,0.0,0.0,0.0,0.0,0.0,0.0,0.0,0.0,0.0,0.0,0.0,0.0,0.0,0.0,0.0,0.0,0.0,0.0,-3.2279,-3.309,-3.3979,-3.4907,-3.5796,-3.663,-3.7409,-3.8376,-3.921,-3.9911,-3.9911,-3.9911,-3.9933,-3.9975,-3.9597,-3.8953,-3.8861,-3.7871,-3.6386,-3.5621,-3.5234,-3.498,-3.4254,-3.3375,-3.2443,-3.1675,-3.0815,-3.0051,-3.0051,-2.9459,-2.872,-2.8529,0.0,-2.6242,-2.6113,-2.5447,-2.5171,-2.6818,-2.7251,-2.7685,0.0,0.0,-3.0035,-3.1052,-3.1833,-3.291,-3.4737,-3.5738,-3.6584,-3.7565,-3.845,-3.9084,-3.9258,-3.9912,-4.0354,-4.0354,-4.0354,-4.0392,-4.0489,-4.0489,-4.1181,-4.2835,-4.297,-4.3715,-4.5459,-4.5555,-4.5626,-4.5781,-4.58,-4.6177,-4.6941,-4.6941,-4.7386,-4.8256,-4.8159,-4.8159,-4.8256,-4.814,-4.8101,-4.8101,-4.8101,-4.8159,-4.8256,-4.8353,-4.8856,-4.9552,-4.9552,-4.9997,-5.0438,-4.8875,-4.7818,-4.7185,0.0,0.0,0.0,0.0,0.0,0.0,0.0,0.0,0.0,0.0,0.0,0.0,0.0,0.0,0.0,0.0,0.0,0.0,-2.1171,-2.3409,-2.5032,-2.5759,-2.7841,-2.9568,-3.0828,-3.1638,-3.2713,-3.4092,-3.4923,-3.5775,-3.6649,-3.7539,-3.8128,-3.8452,-3.8452,-3.8452,-3.8452,-3.8472,-3.8284,-3.7943,-3.7528,-3.6616,-3.5456,-3.4691,-3.3808,-3.3001,-3.3169,-3.2707,0.0,0.0,-3.0892,-3.0204,-3.0204,-2.9956,-2.9555,-2.9044,-2.8395,0.0,-2.7886,-2.7631,0.0,0.0,-3.0335,-3.1019,-3.2201,-3.2875,-3.353,-3.4408,-3.4878,-3.5488,-3.6738,-3.7642,-3.8334,0.0,-3.945,-3.9988,-3.9988,-4.0277,-4.0489,-4.0489,-4.0489,-4.0489,-4.0489,-4.0489,-4.1219,-4.297,-4.3104,-4.3852,-4.5543,-4.564,-4.5673,-4.5738,-4.6217,-4.6692,-4.7105,-4.7603,-4.8295,-4.9146,-4.8643,-4.8662,-4.9146,-4.8624,-4.8392,-4.843,-4.8933,-4.9165,-4.9184,-4.9668,-5.0074,-5.0403,-5.0403,-5.0596,-5.077,-4.9596,-4.8933,-4.8535,0.0,0.0,0.0,0.0,0.0,0.0,0.0,0.0,0.0,0.0,0.0,0.0,0.0,0.0,0.0,0.0,0.0,0.0,0.0,-2.1957,-2.3712,-2.4663,-2.642,0.0,-2.9756,-3.034,-3.145,-3.3146,-3.3769,-3.4658,-3.5756,-3.64,-3.6931,-3.7389,-3.7389,-3.7409,-3.739,-3.7163,-3.6917,-3.6632,-3.5875,-3.5059,-3.4167,-3.3137,-3.2045,-3.1119,-3.176,-3.1469,0.0,0.0,-3.0032,-2.9516,-2.9516,-2.965,-2.9726,-2.9082,-2.9235,-2.9631,-2.9612,0.0,0.0,-3.2153,-3.3181,-3.4052,-3.4856,-3.5573,-3.6247,-3.6895,-3.7213,-3.7589,-3.8238,-3.9065,-3.9623,-3.9623,-4.0123,-4.0489,-4.0489,-4.0489,-4.0489,-4.0489,-4.0489,-4.0489,-4.0489,-4.0489,-4.1219,-4.297,-4.3104,-4.3835,-4.5509,-4.5586,-4.5736,-4.602,-4.6667,-4.7256,-4.777,-4.8435,-4.9184,-5.0016,-4.9397,-4.9417,-5.0016,-4.9378,-4.9088,-4.9126,-4.9765,-5.0035,-5.0074,-5.0674,-5.0906,-5.0906,-5.0906,-5.0906,-5.0828,-5.0259,-4.9892,-4.9538,0.0,0.0,0.0,0.0,0.0,0.0,0.0,0.0,0.0,0.0,0.0,0.0,0.0,0.0,0.0,0.0,0.0,0.0,0.0,-1.9697,-2.1237,-2.4551,-2.4757,-2.6345,-2.9626,-2.972,-3.0565,-3.2241,-3.2278,-3.3164,-3.4826,-3.4864,-3.5773,-3.7404,-3.7404,-3.7387,-3.7353,-3.6557,-3.5742,-3.4908,-3.4093,-3.3259,-3.2312,-3.0712,-3.0133,-3.0145,-3.017,0.0,0.0,0.0,-2.7797,-2.7778,-2.7778,-2.8313,0.0,-2.8911,-3.0109,0.0,0.0,0.0,-3.4044,-3.4885,-3.5744,-3.6604,-3.7477,-3.7704,-3.774,-3.784,-3.8527,-3.9154,-3.9238,-3.9912,-4.045,-4.045,-4.0469,-4.0489,-4.0489,-4.0489,-4.0489,-4.0489,-4.0489,-4.0489,0.0,-4.0489,-4.1219,-4.297,-4.3104,-4.3835,-4.5509,-4.5586,-4.5988,-4.6831,-4.6957,-4.7816,-4.9509,-4.9614,-5.0074,-5.0867,-5.0848,-5.0848,-5.0867,-5.0848,-5.0828,-5.0828,-5.0848,-5.0867,-5.0867,-5.0906,-5.0906,-5.0906,-5.0906,-5.0906,-5.0906,-5.0867,-5.0364,-4.9687,0.0,0.0,0.0,0.0,0.0,0.0,0.0,0.0,0.0,0.0,0.0,0.0,0.0,0.0,0.0,0.0,0.0,0.0,0.0,-1.8366,-2.0108,-2.1274,-2.3438,-2.5171,-2.6364,-2.7433,-2.882,-3.0547,-3.0547,-3.1412,-3.307,-3.307,-3.341,-3.4017,-3.4055,-3.4074,-3.4056,-3.379,-3.3505,-3.3164,-3.2368,-3.1553,-3.0701,-2.9561,-2.8131,-2.673,0.0,0.0,0.0,0.0,0.0,0.0,-2.7701,0.0,0.0,-3.03,-3.1045,-3.1866,0.0,0.0,-3.5133,-3.6509,-3.7521,-3.8247,-3.8532,-3.9045,-3.9293,-3.8791,-3.8955,-3.9023,-3.8462,-3.8627,-3.8834,-3.8834,-3.9335,-3.97,-3.97,-4.0162,-4.0489,-4.0489,-4.0489,0.0,0.0,0.0,0.0,-4.297,-4.3104,-4.3835,-4.5509,-4.5586,-4.6007,-4.6873,-4.7484,-4.8364,-4.9534,-5.0165,-5.0623,-5.0906,-5.0906,-5.0906,-5.0906,-5.0906,-5.0906,-5.0906,-5.0906,-5.0906,-5.0906,-5.0906,-5.0906,-5.0906,-5.0906,-5.0906,-5.0906,-5.0906,-5.0732,-5.0422,0.0,0.0,0.0,0.0,0.0,0.0,0.0,0.0,0.0,0.0,0.0,0.0,0.0,0.0,0.0,0.0,0.0,0.0,0.0,0.0,-1.8348,-1.9548,-2.167,-2.3269,-2.4217,-2.5244,-2.6609,-2.8332,-2.8368,-2.9213,-3.0847,-3.0847,-3.1036,-3.1411,-3.1449,-3.1485,-3.1482,-3.1178,-3.1063,-3.1023,-3.0208,-2.9564,-2.8976,-2.782,-2.6375,0.0,0.0,0.0,0.0,0.0,0.0,0.0,0.0,-2.8217,-2.965,-3.1045,-3.2114,-3.3165,0.0,-3.5859,-3.6814,-3.7903,-3.882,-3.947,-3.947,-3.966,-3.9696,-3.9197,-3.8671,-3.8105,-3.7563,-3.7497,-3.7546,-3.7546,-3.8277,-3.8931,-3.9258,-3.9738,-4.0181,-4.0469,-4.0489,-4.0489,0.0,0.0,0.0,-4.2989,-4.3374,-4.4124,-4.5528,-4.5586,-4.6124,-4.7298,-4.791,-4.8754,-4.9926,-5.0557,-5.0897,-5.0906,-5.0906,-5.0906,-5.0906,-5.0906,-5.0906,-5.0906,-5.0906,-5.0906,-5.0906,-5.0906,-5.0906,-5.0906,-5.0906,-5.0906,-5.0906,-5.0906,-5.0906,-5.0828,0.0,0.0,0.0,0.0,0.0,0.0,0.0,0.0,0.0,0.0,0.0,0.0,0.0,0.0,0.0,0.0,0.0,0.0,0.0,0.0,0.0,-1.9199,-1.946,-2.0681,-2.3101,-2.3225,-2.408,-2.571,-2.5834,-2.666,-2.8201,-2.8201,-2.8687,-2.9548,-2.9548,-2.9581,-2.9593,-2.8761,-2.8436,-2.843,-2.7631,-2.7304,-2.7134,-2.5503,0.0,0.0,0.0,0.0,0.0,0.0,0.0,0.0,0.0,0.0,-3.0376,-3.1331,-3.3318,-3.5229,-3.5362,-3.7158,-3.9011,-3.9069,-3.9699,-4.0291,-4.0253,-3.9565,-3.8934,-3.891,-3.7603,-3.6481,0.0,0.0,-3.6526,-3.6565,-3.7296,-3.818,-3.9104,-3.9258,-3.9604,0.0,0.0,0.0,0.0,0.0,0.0,-4.3104,0.0,-4.4682,-4.5547,-4.5624,-4.6413,-4.8048,-4.8198,-4.9044,-5.0682,-5.0829,-5.0897,-5.089,-5.089,-5.089,-5.089,-5.089,-5.089,-5.089,-5.089,-5.089,-5.089,-5.089,-5.089,-5.089,-5.089,-5.089,-5.089,-5.089,-5.089,-5.089,0.0,0.0,0.0,0.0,0.0,0.0,0.0,0.0,0.0,0.0,0.0,0.0,0.0,0.0,0.0,0.0,0.0,0.0,0.0,0.0,0.0,0.0,0.0,0.0,0.0,-2.0886,-2.2069,-2.3143,0.0,-2.4601,-2.5646,-2.5646,-2.5759,0.0,-2.6048,-2.6079,-2.6088,-2.591,-2.5878,-2.5868,0.0,-2.4674,-2.4561,0.0,0.0,0.0,0.0,0.0,0.0,0.0,0.0,0.0,0.0,0.0,-3.072,-3.3452,-3.4694,-3.5611,-3.7521,-3.8514,-3.9164,-3.9814,-4.0138,-4.0138,-3.9489,-3.8667,-3.771,-3.6501,-3.5438,-3.4563,0.0,0.0,0.0,-3.4718,-3.5565,0.0,-3.8123,-3.8892,0.0,0.0,0.0,-4.0758,-4.1412,-4.2258,0.0,0.0,-4.4182,-4.4682,-4.5547,-4.622,-4.7048,-4.8067,-4.8759,-4.9605,-5.0701,-5.0775,-5.0827,-5.0827,-5.0827,-5.0827,-5.0827,-5.0827,-5.0827,-5.0827,-5.0827,-5.0827,-5.0827,-5.0827,-5.0827,-5.0827,-5.0827,-5.0827,-5.0827,-5.0827,-5.0827,-5.0827,0.0,0.0,0.0,0.0,0.0,0.0,0.0,0.0,0.0,0.0,0.0,0.0,0.0,0.0,0.0,0.0,0.0,0.0,0.0,0.0,0.0,0.0,0.0,0.0,0.0,-1.8603,-1.9692,0.0,0.0,0.0,0.0,-2.3093,-2.3281,-2.3656,-2.3685,-2.3729,-2.3752,0.0,0.0,0.0,0.0,0.0,0.0,0.0,0.0,0.0,0.0,0.0,0.0,0.0,0.0,-2.7262,-2.8943,-3.0319,-3.1809,-3.4426,0.0,-3.67,-3.8514,-3.9279,-3.9699,-4.0196,-4.0024,-3.9603,-3.9107,-3.7769,-3.6258,-3.499,-3.3504,0.0,0.0,0.0,0.0,0.0,0.0,0.0,-3.6661,-3.7969,-3.9046,0.0,-4.0623,0.0,-4.1758,-4.2912,-4.3816,0.0,-4.4643,-4.5066,-4.5566,-4.6432,-4.7278,-4.8067,-4.8952,-4.9817,-5.0701,-5.0757,-5.0775,-5.0793,-5.0793,-5.0793,-5.0793,-5.0793,-5.0793,-5.0793,0.0,-5.0793,-5.0793,-5.0793,-5.0793,-5.0793,-5.0793,-5.0793,-5.0793,-5.0793,-5.0793,-5.0793,0.0,0.0,0.0,0.0,0.0,0.0,0.0,0.0,0.0,0.0,0.0,0.0,0.0,0.0,0.0,0.0,0.0,0.0,0.0,0.0,0.0,0.0,0.0,0.0,0.0,0.0,0.0,0.0,0.0,0.0,0.0,0.0,0.0,0.0,0.0,0.0,0.0,0.0,0.0,0.0,0.0,0.0,0.0,0.0,0.0,0.0,0.0,0.0,0.0,0.0,-2.56,-2.8007,-2.9803,-3.1446,-3.3054,-3.498,-3.6566,-3.7922,-3.8897,-3.9718,-4.031,-4.031,-3.9642,-3.8935,-3.8725,-3.67,-3.4614,-3.3689,0.0,-2.9595,-2.8902,0.0,-2.9044,-2.9929,0.0,-3.3211,-3.5064,-3.6762,-3.8185,-3.9169,-4.0684,-4.172,-4.195,-4.3297,-4.422,-4.4451,-4.5163,-4.5643,-4.5759,-4.6586,-4.749,-4.8413,-4.9183,-4.9933,-5.0682,-5.0702,-5.0739,-5.0775,-5.0775,-5.0775,-5.0775,-5.0775,-5.0833,-5.0929,-5.0833,-5.0871,-5.0987,-5.0852,-5.0775,-5.0775,-5.0775,-5.0775,-5.0775,-5.0775,-5.0775,-5.0775,0.0,0.0,0.0,0.0,0.0,0.0,0.0,0.0,0.0,0.0,-0.8914,0.0,0.0,0.0,0.0,0.0,0.0,0.0,0.0,0.0,0.0,0.0,0.0,0.0,0.0,0.0,0.0,0.0,0.0,0.0,0.0,0.0,0.0,0.0,0.0,0.0,0.0,0.0,0.0,0.0,0.0,0.0,0.0,0.0,0.0,0.0,0.0,0.0,0.0,0.0,-2.56,-2.8122,-3.0529,-3.1943,-3.3283,-3.6375,-3.7464,-3.8056,-3.9642,-4.0196,-4.031,-4.031,-3.9642,-3.8629,-3.725,-3.5009,0.0,0.0,0.0,-2.7124,-2.7042,-2.7044,0.0,-2.8198,0.0,0.0,0.0,0.0,-3.7526,0.0,0.0,0.0,0.0,0.0,0.0,0.0,0.0,-4.5913,-4.6644,-4.7451,-4.8625,-5.0202,-5.0394,-5.0568,-5.0702,-5.0702,-5.0702,-5.0721,-5.0721,-5.0721,-5.0721,-5.0721,-5.1068,-5.1664,-5.101,0.0,-5.205,-5.1106,-5.0721,-5.0721,-5.0721,-5.0721,-5.0721,-5.0721,-5.0721,-5.0721,0.0,0.0,0.0,0.0,0.0,0.0,0.0,0.0,0.0,0.0,-0.9004,-0.9508,0.0,0.0,0.0,0.0,0.0,0.0,0.0,0.0,0.0,0.0,0.0,0.0,0.0,0.0,0.0,0.0,0.0,0.0,0.0,0.0,0.0,0.0,0.0,0.0,0.0,0.0,0.0,0.0,0.0,0.0,0.0,0.0,0.0,0.0,0.0,0.0,0.0,0.0,-2.5008,-2.6918,-2.9879,-3.1694,-3.3188,-3.5668,-3.7024,-3.798,-3.9279,-3.9947,-4.0194,-3.9793,-3.872,-3.7417,-3.6151,0.0,0.0,0.0,0.0,-2.5618,-2.4784,0.0,0.0,0.0,0.0,0.0,0.0,0.0,0.0,0.0,0.0,0.0,0.0,0.0,0.0,0.0,0.0,-4.597,-4.6855,-4.8086,-4.9375,-5.0644,-5.0702,-5.0702,-5.0702,-5.0702,-5.0702,-5.0702,-5.0702,-5.0702,-5.0702,-5.0702,-5.0914,-5.1241,-5.0856,0.0,-5.1471,-5.0914,-5.0702,-5.0702,-5.0702,-5.0702,-5.0702,-5.0702,-5.0702,-5.0702,0.0,0.0,0.0,0.0,0.0,0.0,0.0,-0.6687,-0.745,-0.8422,-0.9112,-0.9517,-0.9595,-0.9593,-0.9599,0.0,0.0,0.0,0.0,0.0,0.0,0.0,0.0,0.0,0.0,0.0,0.0,0.0,0.0,0.0,0.0,0.0,0.0,0.0,0.0,0.0,0.0,0.0,0.0,0.0,0.0,0.0,0.0,0.0,0.0,0.0,0.0,0.0,0.0,0.0,-2.3941,-2.5432,-2.8243,-3.0529,-3.2573,-3.4598,-3.6126,-3.7405,-3.8456,-3.9256,-3.9635,-3.8986,-3.7565,-3.6044,-3.5009,-3.2171,0.0,0.0,-2.5638,-2.388,-2.2735,0.0,0.0,0.0,0.0,0.0,0.0,0.0,0.0,0.0,0.0,0.0,0.0,0.0,0.0,0.0,0.0,0.0,-4.7124,-4.8759,-4.999,-5.0664,-5.0702,-5.0702,-5.0702,-5.0702,-5.0702,-5.0702,-5.0702,-5.0702,-5.0702,-5.0702,-5.0779,-5.0952,-5.076,0.0,0.0,-5.0837,-5.0702,-5.0702,-5.0702,-5.0702,-5.0702,-5.0702,-5.0702,-5.0702,0.0,0.0,0.0,0.0,0.0,0.0,0.0,-0.7015,-0.7648,-0.9178,-0.9455,-0.9525,-0.9593,-0.9601,-0.9599,0.0,0.0,0.0,0.0,0.0,0.0,0.0,0.0,0.0,0.0,0.0,0.0,0.0,0.0,0.0,0.0,0.0,0.0,0.0,0.0,0.0,0.0,0.0,0.0,0.0,0.0,0.0,0.0,0.0,0.0,0.0,0.0,0.0,0.0,0.0,0.0,-2.43,-2.5324,-2.7854,-3.1064,-3.4254,0.0,0.0,-3.7494,-3.8008,-3.8098,-3.8022,-3.6699,-3.5028,-3.3465,0.0,0.0,0.0,-2.2996,-2.0938,-2.1504,-2.1023,0.0,0.0,0.0,0.0,0.0,0.0,0.0,0.0,0.0,0.0,0.0,0.0,0.0,0.0,0.0,0.0,-4.799,-4.9644,-5.0606,-5.0702,-5.0702,-5.0702,-5.0702,-5.0702,-5.0702,-5.0702,-5.0702,-5.0702,-5.0702,-5.0702,-5.1106,-5.176,-5.101,0.0,0.0,-5.1337,-5.0702,-5.0702,-5.0702,-5.0702,-5.0702,-5.0702,-5.0702,-5.0702,0.0,0.0,0.0,0.0,0.0,0.0,0.0,-0.7055,-0.7688,-0.9286,-0.9509,-0.9525,-0.9601,-0.9601,-0.9617,0.0,0.0,0.0,0.0,0.0,0.0,0.0,0.0,0.0,0.0,0.0,0.0,0.0,0.0,0.0,0.0,0.0,0.0,0.0,0.0,0.0,0.0,0.0,0.0,0.0,0.0,0.0,0.0,0.0,0.0,0.0,0.0,0.0,0.0,0.0,0.0,0.0,-2.3898,-2.5401,0.0,0.0,-3.2991,-3.4064,-3.5247,-3.5987,-3.6266,-3.5748,-3.4361,-3.2833,-3.1661,0.0,0.0,-2.4812,-2.2293,-2.0227,-2.0035,-1.9727,-1.99,0.0,0.0,0.0,0.0,0.0,0.0,0.0,0.0,0.0,0.0,0.0,0.0,0.0,0.0,0.0,-4.8105,-4.974,-5.0702,-5.0702,-5.0702,-5.0702,-5.0702,-5.0702,-5.0702,-5.0702,-5.0702,-5.0702,-5.0702,-5.0702,-5.0856,-5.1164,-5.0837,0.0,0.0,-5.0971,-5.0702,-5.0702,-5.0702,-5.0702,-5.0702,-5.0702,-5.0702,-5.0702,0.0,0.0,0.0,0.0,0.0,0.0,-0.6439,-0.6905,-0.7584,-0.8962,-0.9347,-0.9525,-0.9601,-0.9601,-0.9625,-0.9698,0.0,0.0,0.0,0.0,0.0,0.0,0.0,0.0,0.0,0.0,0.0,0.0,0.0,0.0,0.0,0.0,0.0,0.0,0.0,0.0,0.0,0.0,0.0,0.0,0.0,0.0,0.0,0.0,0.0,0.0,0.0,0.0,0.0,0.0,0.0,0.0,0.0,0.0,0.0,0.0,-3.0407,-3.1558,-3.267,-3.3426,-3.3761,-3.3166,-3.1962,-3.0641,0.0,0.0,0.0,-2.3254,-2.1139,-1.935,-1.8727,-1.8612,-1.8996,0.0,0.0,-2.4399,0.0,0.0,0.0,0.0,0.0,0.0,0.0,0.0,0.0,0.0,0.0,0.0,-4.8068,-4.9471,-5.0394,-5.0683,-5.0702,-5.0702,-5.0702,-5.0702,-5.0702,-5.0702,-5.0702,-5.0702,-5.0702,-5.0702,-5.0702,-5.0702,-5.0702,0.0,0.0,-5.0702,-5.0702,-5.0702,-5.0702,-5.0702,-5.0702,-5.0702,-5.0702,-5.0702,0.0,0.0,0.0,0.0,0.0,0.0,0.0,-0.6542,-0.7386,-0.8206,-0.9004,-0.9525,-0.9601,-0.9601,-0.9625,-0.9698,0.0,0.0,0.0,0.0,0.0,0.0,0.0,0.0,0.0,0.0,0.0,-1.2306,-1.3979,0.0,0.0,0.0,0.0,0.0,0.0,0.0,0.0,0.0,0.0,0.0,0.0,0.0,0.0,0.0,0.0,0.0,0.0,0.0,0.0,0.0,0.0,0.0,0.0,0.0,0.0,0.0,-2.785,-2.8219,-2.9889,-3.0393,-3.0436,-3.0436,-2.9775,-2.8679,0.0,0.0,0.0,-2.0869,-1.8946,-1.7715,-1.7722,-1.7715,-1.8273,-2.0023,-2.1716,0.0,-2.6236,0.0,0.0,0.0,0.0,0.0,0.0,0.0,0.0,0.0,0.0,0.0,-4.795,-4.8776,-4.9661,-5.0664,-5.0702,-5.0702,-5.0702,-5.0702,-5.0702,-5.0702,-5.0702,-5.0702,-5.0702,-5.0702,-5.0702,-5.0702,0.0,0.0,0.0,-5.0702,-5.0702,-5.0702,-5.0702,-5.0702,-5.0702,-5.0702,-5.0702,-5.0702,0.0,0.0,0.0,0.0,0.0,0.0,0.0,-0.6037,-0.6513,-0.7371,-0.8177,-0.8695,-0.8771,-0.9281,-0.9625,-0.9698,0.0,0.0,0.0,0.0,0.0,0.0,0.0,0.0,0.0,0.0,0.0,-1.2304,-1.4015,-1.4887,-1.4896,0.0,0.0,0.0,0.0,0.0,0.0,0.0,0.0,0.0,0.0,0.0,0.0,0.0,0.0,0.0,0.0,0.0,0.0,0.0,0.0,0.0,0.0,0.0,0.0,0.0,0.0,0.0,-2.7311,-2.7783,-2.7794,-2.7794,-2.7159,-2.6226,-2.5129,0.0,0.0,-2.0482,-1.8482,-1.6888,-1.6881,-1.733,-1.7869,-1.8427,-2.0927,-2.3485,0.0,0.0,0.0,0.0,0.0,0.0,0.0,0.0,0.0,0.0,0.0,0.0,-4.7106,-4.8429,-4.962,-5.0544,-5.0563,-5.0563,-5.0563,-5.0563,-5.0563,-5.0563,-5.0563,-5.0563,-5.0563,-5.0563,-5.0565,0.0,0.0,0.0,0.0,-5.1298,-5.149,-5.1507,-5.2103,-5.2312,-5.2214,-5.1598,-5.141,-5.1353,0.0,0.0,0.0,0.0,0.0,0.0,0.0,-0.5611,-0.6013,-0.6574,-0.7342,-0.7874,-0.7943,-0.8661,-0.9176,-0.9246,0.0,0.0,0.0,0.0,0.0,0.0,0.0,0.0,0.0,-1.1431,-1.2304,-1.2346,-1.4059,-1.4905,-1.4895,-1.4938,-1.4971,0.0,0.0,0.0,0.0,0.0,0.0,0.0,0.0,0.0,-1.5197,0.0,0.0,0.0,0.0,0.0,0.0,0.0,0.0,0.0,0.0,0.0,0.0,0.0,-2.0012,0.0,0.0,-2.4918,-2.5158,-2.5168,-2.4764,0.0,0.0,0.0,0.0,0.0,0.0,-1.6503,-1.6497,-1.7157,-1.7907,-1.8561,-2.1004,-2.3505,0.0,0.0,0.0,0.0,0.0,0.0,0.0,0.0,0.0,0.0,0.0,0.0,-4.6605,-4.7926,-4.9056,-4.9937,-5.0325,-5.05,-5.05,-5.05,-5.05,-5.05,-5.05,-5.05,-5.05,-5.05,-5.0483,0.0,0.0,0.0,0.0,-5.1488,-5.1813,-5.1847,-5.2711,-5.3034,-5.2897,-5.2034,-5.173,-5.1636,0.0,0.0,0.0,0.0,0.0,0.0,0.0,0.0,0.0,0.0,-0.6508,-0.7037,-0.7111,-0.7841,-0.8342,0.0,0.0,0.0,0.0,0.0,0.0,0.0,0.0,0.0,0.0,-1.1431,-1.233,-1.2407,-1.4076,-1.4931,-1.4986,-1.5055,-1.5098,-1.5079,-1.5095,0.0,0.0,0.0,0.0,0.0,0.0,0.0,0.0,0.0,0.0,0.0,0.0,0.0,0.0,0.0,0.0,0.0,0.0,0.0,0.0,0.0,0.0,0.0,0.0,0.0,0.0,0.0,0.0,0.0,0.0,0.0,0.0,0.0,0.0,0.0,0.0,-1.7215,-1.833,-2.0023,-2.1754,-2.3755,0.0,0.0,0.0,0.0,0.0,0.0,0.0,0.0,0.0,0.0,0.0,0.0,-4.6385,-4.7245,-4.8105,-4.8965,-4.9899,-5.0442,-5.05,-5.05,-5.05,-5.05,-5.05,-5.05,-5.05,-5.05,-5.0462,0.0,0.0,0.0,0.0,-5.1439,-5.1782,-5.1877,-5.282,-5.3184,-5.3046,-5.2107,-5.1782,-5.167,0.0,0.0,0.0,0.0,0.0,0.0,0.0,0.0,0.0,0.0,-0.5689,-0.6207,-0.6285,-0.6996,0.0,0.0,0.0,0.0,0.0,0.0,0.0,0.0,0.0,0.0,0.0,-1.1435,-1.2327,-1.241,-1.4084,-1.5233,-1.5903,-1.5946,-1.5999,-1.5988,-1.6002,0.0,0.0,0.0,0.0,0.0,0.0,0.0,0.0,0.0,0.0,0.0,-1.5189,-1.5189,0.0,0.0,0.0,0.0,0.0,0.0,0.0,0.0,-1.6253,-1.6914,-1.7504,0.0,-1.9892,-1.9884,0.0,0.0,0.0,0.0,0.0,0.0,0.0,0.0,0.0,0.0,-1.9049,-2.0139,-2.2274,-2.4456,0.0,0.0,0.0,0.0,0.0,0.0,0.0,0.0,0.0,0.0,0.0,-4.5394,-4.5564,-4.6366,-4.7207,-4.8086,-4.8968,-4.9717,-5.0348,-5.0348,-5.0348,-5.0348,-5.0348,-5.0348,-5.0348,-5.0348,-5.0352,0.0,0.0,0.0,-5.0538,-5.2072,-5.2663,-5.2771,-5.4264,-5.4828,-5.465,-5.3121,-5.2571,-5.2426,0.0,0.0,0.0,0.0,0.0,0.0,0.0,0.0,0.0,0.0,0.0,0.0,0.0,0.0,0.0,0.0,0.0,0.0,0.0,0.0,0.0,0.0,0.0,0.0,-0.9838,-1.1494,-1.2369,-1.2406,-1.4478,-1.5751,-1.626,-1.6656,-1.688,-1.6878,-1.651,-1.5883,-1.5094,0.0,0.0,0.0,-1.5197,0.0,0.0,0.0,0.0,0.0,-1.5189,-1.5189,0.0,-1.5189,-1.5189,-1.5189,0.0,0.0,0.0,0.0,-1.5541,-1.5907,-1.59,-1.7132,-1.8395,-1.839,-1.8402,-1.8184,0.0,0.0,0.0,0.0,0.0,0.0,0.0,0.0,0.0,0.0,-2.3505,0.0,0.0,0.0,0.0,0.0,0.0,0.0,0.0,0.0,0.0,0.0,0.0,-4.5297,-4.5297,-4.6061,-4.6729,-4.7188,-4.843,-4.948,-5.0283,-5.0302,-5.0302,-5.0302,-5.0302,-5.0302,-5.0302,-5.0302,-5.0306,0.0,0.0,0.0,-5.0489,-5.2192,-5.29,-5.3025,-5.4727,-5.539,-5.5193,-5.3435,-5.2829,-5.2604,0.0,0.0,0.0,0.0,0.0,0.0,0.0,0.0,0.0,0.0,0.0,0.0,0.0,0.0,0.0,0.0,0.0,0.0,0.0,0.0,0.0,0.0,0.0,-0.9899,-1.0069,-1.161,-1.2467,-1.2598,-1.5014,-1.6289,-1.6504,-1.7318,-1.7668,-1.7551,-1.6758,-1.5912,-1.5127,-1.5178,0.0,0.0,-1.5209,0.0,0.0,0.0,0.0,0.0,0.0,0.0,0.0,-1.4959,-1.4997,-1.5022,-1.5157,0.0,0.0,0.0,0.0,0.0,-1.5189,-1.624,-1.7318,-1.7323,-1.7427,-1.7331,0.0,0.0,0.0,0.0,0.0,0.0,0.0,0.0,0.0,0.0,0.0,0.0,0.0,0.0,0.0,0.0,0.0,0.0,0.0,0.0,0.0,0.0,0.0,-4.5297,-4.5297,-4.5946,-4.6424,-4.6691,-4.8124,-4.9347,-5.0283,-5.0302,-5.0302,-5.0302,-5.0302,-5.0302,-5.0302,-5.0302,-5.0302,-5.0302,0.0,0.0,-5.0417,-5.1983,-5.2614,-5.2785,-5.439,-5.5002,-5.4811,-5.3206,-5.2614,-5.2384,0.0,0.0,0.0,0.0,0.0,0.0,0.0,0.0,0.0,0.0,0.0,0.0,0.0,0.0,0.0,0.0,0.0,0.0,0.0,0.0,0.0,0.0,-0.9856,-1.0201,-1.0903,-1.1895,-1.2772,-1.3509,-1.5304,-1.6581,-1.732,-1.8192,-1.8236,-1.7554,-1.6766,-1.5945,-1.5184,-1.519,-1.5197,-1.5209,-1.5189,0.0,0.0,0.0,0.0,0.0,0.0,0.0,0.0,-1.3863,-1.4099,-1.4239,-1.4964,0.0,0.0,0.0,0.0,0.0,-1.5189,-1.5388,-1.558,-1.5586,-1.6144,-1.6644,0.0,0.0,0.0,0.0,0.0,0.0,0.0,0.0,0.0,0.0,0.0,0.0,0.0,0.0,0.0,0.0,0.0,0.0,0.0,0.0,0.0,0.0,0.0,-4.5297,-4.5297,-4.5411,-4.6137,-4.757,-4.7857,-4.8735,-5.0283,-5.0302,-5.0302,-5.0302,-5.0302,-5.0302,-5.0302,-5.0302,-5.0302,-5.0302,0.0,-5.0302,-5.0378,-5.1372,-5.1792,-5.1888,-5.2824,-5.3206,-5.3072,-5.2136,-5.1792,-5.1639,0.0,0.0,0.0,0.0,0.0,0.0,0.0,0.0,0.0,0.0,0.0,0.0,0.0,0.0,0.0,0.0,0.0,0.0,0.0,0.0,0.0,0.0,-0.9625,-1.0289,-1.1142,-1.2017,-1.3085,-1.4392,-1.6069,-1.7348,-1.8202,-1.8639,-1.8406,-1.757,-1.6761,-1.5958,-1.5197,-1.5203,-1.5209,-1.5189,0.0,0.0,0.0,0.0,0.0,0.0,0.0,0.0,0.0,0.0,-1.3247,-1.3315,-1.3719,0.0,0.0,0.0,0.0,0.0,-1.4497,-1.4843,-1.5305,-1.5772,-1.6195,-1.6599,0.0,0.0,0.0,0.0,0.0,0.0,0.0,0.0,0.0,0.0,0.0,0.0,0.0,0.0,0.0,0.0,0.0,0.0,0.0,0.0,0.0,0.0,0.0,0.0,-4.5297,-4.5698,-4.6118,-4.6459,-4.7799,-4.8659,-4.8961,-4.9862,-5.0302,-5.0302,-5.0302,-5.0302,-5.0302,-5.0302,-5.0302,-5.0302,0.0,-5.0302,-5.0378,-5.1238,-5.1601,-5.1677,-5.248,-5.2805,-5.269,-5.1907,-5.1314,-5.0837,0.0,0.0,0.0,0.0,0.0,0.0,0.0,0.0,0.0,0.0,0.0,0.0,0.0,0.0,0.0,0.0,0.0,0.0,0.0,0.0,-0.7762,-0.856,-0.9437,-1.0402,-1.145,-1.2152,-1.3417,-1.5307,-1.6797,-1.8069,-1.9106,-1.8952,-1.8434,-1.7589,-1.6769,-1.5946,-1.5197,-1.5209,-1.5074,-1.4901,0.0,0.0,0.0,0.0,0.0,0.0,0.0,0.0,0.0,0.0,0.0,0.0,0.0,0.0,0.0,-1.2921,-1.3412,-1.3934,-1.4151,-1.4689,-1.5445,0.0,0.0,0.0,0.0,0.0,0.0,0.0,0.0,0.0,0.0,0.0,0.0,0.0,0.0,0.0,0.0,0.0,0.0,0.0,0.0,0.0,0.0,0.0,0.0,0.0,0.0,0.0,-4.5275,-4.6037,-4.6263,-4.584,-4.7865,-4.8766,-4.8361,-4.9667,-5.0298,-5.0302,-5.0302,-5.0302,-5.0302,-5.0302,-5.0302,-5.0302,-5.0302,-5.0302,-5.0359,-5.1028,-5.1314,-5.1372,-5.1964,-5.2212,-5.2136,-5.1525,-5.0875,-5.0302,0.0,0.0,0.0,0.0,0.0,0.0,0.0,0.0,0.0,0.0,0.0,0.0,0.0,0.0,0.0,0.0,0.0,0.0,0.0,0.0,-0.7765,-0.856,-0.9437,-1.0653,-1.2282,-1.2442,-1.3721,-1.62,-1.7147,-1.8411,-1.9993,-1.9247,-1.8469,-1.7643,-1.6783,-1.5959,-1.5189,-1.5189,-1.4728,-1.3997,-1.3997,0.0,0.0,0.0,0.0,0.0,0.0,0.0,0.0,0.0,0.0,0.0,0.0,0.0,-1.2849,-1.3599,-1.3843,-1.4074,-1.4882,-1.5151,-1.5599,-1.7215,0.0,0.0,0.0,0.0,0.0,0.0,0.0,0.0,0.0,0.0,0.0,0.0,0.0,0.0,0.0,0.0,0.0,0.0,0.0,0.0,0.0,0.0,0.0,0.0,0.0,0.0,-4.5213,-4.5967,-4.6725,-4.7405,-4.8167,-4.9009,-5.0016,-5.0212,-5.0312,-5.0302,-5.0302,-5.0302,-5.0302,-5.0302,-5.0302,-5.0302,-5.0302,-5.0302,-5.0302,-5.0378,-5.0397,-5.0397,-5.0455,-5.0474,-5.0474,-5.0417,-5.0359,-5.0302,0.0,0.0,0.0,0.0,0.0,0.0,0.0,0.0,0.0,0.0,0.0,0.0,0.0,0.0,0.0,0.0,0.0,0.0,0.0,0.0,-0.6962,-0.7823,-0.8695,-0.9942,-1.1621,-1.221,-1.375,-1.6309,-1.7161,-1.7912,-1.8529,-1.7715,-1.7183,-1.686,-1.6029,-1.5485,-1.5151,-1.4613,-1.4209,-1.3863,-1.3368,-1.2656,0.0,0.0,0.0,0.0,0.0,0.0,0.0,0.0,-1.0595,-1.0649,0.0,-1.1083,-1.1256,-1.2098,-1.2733,-1.3329,-1.417,-1.517,-1.6272,-1.7426,0.0,0.0,0.0,0.0,0.0,0.0,0.0,0.0,0.0,0.0,0.0,0.0,0.0,0.0,0.0,0.0,0.0,0.0,0.0,0.0,0.0,0.0,0.0,0.0,0.0,0.0,-4.5148,-4.642,-4.7424,-4.8076,-4.9004,-4.9651,-4.9999,-5.0152,-5.0215,-5.0182,-5.0231,-5.0255,-5.0255,-5.0188,-5.0182,-5.0182,-5.0182,-5.0207,-5.0255,-5.0255,-5.0278,-5.0302,-5.0302,-5.0302,-5.0302,-5.0302,-5.0302,-5.0302,0.0,0.0,0.0,0.0,0.0,0.0,0.0,0.0,0.0,0.0,0.0,0.0,0.0,0.0,0.0,0.0,0.0,0.0,0.0,-0.5651,-0.65,-0.7355,-0.823,-0.9476,-1.1168,-1.1813,-1.3353,-1.5887,-1.7033,-1.7592,-1.7589,-1.6773,-1.6405,-1.6349,-1.5555,-1.5203,-1.5132,-1.4266,-1.3747,-1.344,-1.2623,-1.1776,0.0,0.0,0.0,0.0,0.0,0.0,0.0,0.0,0.0,0.0,0.0,0.0,0.0,0.0,-1.2238,-1.2931,-1.4017,-1.5382,-1.6721,0.0,0.0,0.0,0.0,0.0,0.0,0.0,0.0,0.0,0.0,0.0,0.0,0.0,0.0,0.0,0.0,0.0,0.0,0.0,0.0,0.0,0.0,0.0,0.0,0.0,0.0,0.0,0.0,-4.6635,-4.7718,-4.8085,-4.9353,-5.0,-4.9905,-5.0019,-5.0101,-5.0108,-5.0095,-5.0139,-5.0182,-5.0133,-5.0108,-5.0108,-5.0108,-5.0133,-5.0163,-5.0188,-5.0255,-5.0302,-5.0302,-5.0302,-5.0302,-5.0302,-5.0302,-5.0302,0.0,0.0,0.0,0.0,0.0,0.0,0.0,0.0,0.0,0.0,0.0,0.0,0.0,0.0,0.0,0.0,0.0,0.0,0.0,-0.5651,-0.6481,-0.7355,-0.823,-0.9476,-1.115,-1.1256,-1.2509,-1.4992,-1.6728,-1.7573,-1.757,-1.6761,-1.6399,-1.6349,-1.5568,-1.5189,-1.5132,-1.4266,-1.3426,-1.2623,-1.1738,-1.0867,-1.0094,0.0,0.0,0.0,0.0,0.0,0.0,0.0,-1.0102,0.0,0.0,0.0,0.0,0.0,-1.27,-1.3065,-1.4753,-1.5792,0.0,0.0,0.0,0.0,0.0,0.0,0.0,0.0,0.0,0.0,0.0,0.0,0.0,0.0,0.0,0.0,0.0,0.0,0.0,0.0,0.0,0.0,0.0,0.0,0.0,0.0,0.0,0.0,0.0,-4.6512,-4.7397,-4.7397,-4.9026,-4.9887,-4.991,-4.991,-4.9974,-5.0108,-4.9955,-4.9974,-5.0108,-5.0108,-5.0108,-5.0108,-5.0108,-5.0108,-5.0108,-5.0163,-5.0255,-5.0302,-5.0302,-5.0302,-5.0302,-5.0302,-5.0302,-5.0302,0.0,0.0,0.0,0.0,0.0,0.0,0.0,0.0,0.0,0.0,0.0,0.0,0.0,0.0,0.0,0.0,0.0,0.0,0.0,-0.513,-0.5906,-0.7336,-0.7698,-0.8622,-1.0257,-1.0952,-1.2236,-1.4169,-1.5284,-1.5845,-1.584,-1.56,-1.5504,-1.5555,0.0,-1.5189,-1.5112,-1.3676,-1.2931,-1.2565,-1.1079,-1.0325,-1.0094,0.0,0.0,0.0,0.0,0.0,0.0,0.0,0.0,0.0,0.0,0.0,0.0,-1.2137,-1.2631,-1.3125,-1.5428,0.0,0.0,0.0,0.0,0.0,0.0,0.0,0.0,0.0,0.0,0.0,0.0,0.0,0.0,0.0,0.0,0.0,0.0,0.0,0.0,0.0,0.0,0.0,0.0,0.0,0.0,0.0,0.0,0.0,0.0,-4.6487,-4.7397,-4.7397,-4.9026,-4.9906,-4.9887,-4.9887,-4.9933,-4.9978,-4.9933,-4.9959,-5.0031,-4.9978,-4.9978,-4.9978,-4.9978,-4.9978,-5.0031,-5.0108,-5.0182,-5.0231,-5.0231,-5.0255,-5.0302,-5.0302,-5.0302,-5.0302,0.0,0.0,0.0,0.0,0.0,0.0,0.0,0.0,0.0,0.0,0.0,0.0,0.0,0.0,0.0,0.0,0.0,0.0,0.0,0.0,-0.5648,-0.7332,-0.7458,-0.8273,-0.9908,-1.0825,-1.1798,-1.2813,-1.4004,-1.4609,-1.4622,-1.4948,-1.514,-1.5197,0.0,-1.5189,-1.5093,-1.3387,-1.2656,-1.2502,-1.0782,-1.009,-1.0094,0.0,0.0,0.0,0.0,0.0,0.0,0.0,0.0,0.0,0.0,0.0,0.0,-1.2117,-1.2591,-1.3166,-1.5715,0.0,0.0,0.0,0.0,0.0,0.0,0.0,0.0,0.0,0.0,0.0,0.0,0.0,0.0,0.0,0.0,0.0,0.0,0.0,0.0,0.0,0.0,0.0,0.0,0.0,0.0,0.0,0.0,0.0,0.0,-4.6184,-4.7074,-4.7378,-4.8704,-4.9576,-4.9898,-4.9898,-4.9898,-4.9898,-4.9576,-4.9432,-4.9504,-4.9773,-4.9898,-4.9898,-4.9898,-4.9952,-5.0005,-5.0057,-5.0108,-5.0158,-5.0158,-5.0207,-5.0255,-5.0255,-5.0278,-5.0302,0.0,0.0,0.0,0.0,0.0,0.0,0.0,0.0,0.0,0.0,0.0,0.0,0.0,0.0,0.0,0.0,0.0,0.0,0.0,0.0,-0.5727,-0.7327,-0.7613,-0.8438,-0.9971,-1.0785,-1.1182,-1.1174,-1.2876,-1.3768,-1.392,0.0,-1.5063,-1.519,0.0,-1.5189,-1.5074,-1.3333,-1.2598,-1.2444,-1.0769,-1.0101,-1.0094,-1.009,0.0,0.0,0.0,0.0,0.0,0.0,0.0,0.0,0.0,0.0,-1.0402,-1.2011,-1.2547,-1.316,0.0,0.0,0.0,0.0,0.0,0.0,0.0,0.0,0.0,0.0,0.0,0.0,0.0,0.0,0.0,0.0,0.0,0.0,0.0,0.0,0.0,0.0,0.0,0.0,0.0,0.0,0.0,0.0,0.0,0.0,0.0,-4.5729,-4.6544,-4.7264,-4.8117,-4.8913,-4.9652,-4.9671,-4.9671,-4.9652,-4.8913,-4.8572,-4.8609,-4.933,-4.9709,-4.9784,-4.986,-4.9933,-5.0005,-5.0005,-5.0031,-5.0082,-5.0082,-5.0133,-5.0188,-5.0188,-5.0255,-5.0302,0.0,0.0,0.0,0.0,0.0,0.0,0.0,0.0,0.0,0.0,0.0,0.0,0.0,0.0,0.0,0.0,0.0,0.0,0.0,0.0,-0.6363,-0.7364,-0.8716,-0.9635,-0.999,-1.0176,-1.0287,-1.0283,-1.2011,-1.3182,0.0,0.0,0.0,-1.5127,0.0,-1.512,-1.5005,-1.333,-1.261,-1.2446,-1.077,-1.0108,-1.0097,-1.0108,-1.0104,0.0,0.0,0.0,0.0,0.0,0.0,0.0,-1.01,-1.0091,-1.0292,-1.1292,-1.2071,0.0,0.0,0.0,0.0,0.0,0.0,0.0,0.0,0.0,0.0,0.0,0.0,0.0,0.0,0.0,0.0,0.0,0.0,0.0,0.0,0.0,0.0,0.0,0.0,0.0,0.0,0.0,0.0,0.0,0.0,0.0,-4.4895,-4.5729,-4.6278,-4.6449,-4.7245,-4.7757,-4.7927,-4.7927,-4.7927,0.0,-4.7757,-4.7681,-4.7681,-4.7851,-4.8306,-4.8988,-4.9614,-4.9925,-4.9906,-4.9906,-4.9978,-5.0031,-5.0031,-5.0057,-5.0133,-5.0163,-5.0212,-5.0231,0.0,0.0,0.0,0.0,0.0,0.0,0.0,0.0,0.0,0.0,0.0,0.0,0.0,0.0,0.0,0.0,0.0,0.0,0.0,0.0,0.0,-0.7985,-0.9298,-1.0001,-0.9998,-0.9995,-1.001,-1.0006,0.0,0.0,0.0,0.0,0.0,-1.5094,0.0,-1.5095,-1.4999,-1.3308,-1.2588,-1.244,-1.0775,-1.0091,-1.01,-1.0095,-1.0095,-1.0095,-1.0095,0.0,0.0,0.0,0.0,0.0,0.0,0.0,-1.0268,-1.1067,-1.1896,-1.3011,0.0,0.0,0.0,0.0,0.0,0.0,0.0,0.0,0.0,0.0,0.0,0.0,0.0,0.0,0.0,0.0,0.0,0.0,0.0,0.0,0.0,0.0,0.0,0.0,0.0,0.0,0.0,0.0,0.0,-4.4846,-4.4846,-4.5256,-4.5665,-4.6081,-4.6497,-4.6895,-4.7292,-4.7345,-4.7345,-4.7345,-4.6999,-4.6601,-4.6222,-4.7018,-4.7643,-4.8098,-4.8515,-4.8685,-4.8723,-4.914,-4.9337,-4.9421,-4.98,-5.0005,-5.0057,-5.0089,-5.0139,-5.0188,0.0,0.0,0.0,0.0,0.0,0.0,0.0,0.0,0.0,0.0,0.0,0.0,0.0,0.0,0.0,0.0,0.0,0.0,0.0,0.0,0.0,0.0,-0.9611,-1.0006,-1.0006,-1.0003,-0.9995,-0.9991,0.0,0.0,0.0,0.0,0.0,-1.5094,0.0,-1.5108,-1.5006,-1.3462,-1.2735,-1.2465,-1.0924,-1.023,-1.0096,-1.011,-1.0095,-1.0095,-1.0095,-1.0095,-1.0095,-1.0095,0.0,0.0,0.0,0.0,-1.0202,-1.0874,-1.174,-1.2839,0.0,0.0,0.0,0.0,0.0,0.0,0.0,0.0,0.0,0.0,0.0,0.0,0.0,0.0,0.0,0.0,0.0,0.0,0.0,0.0,0.0,0.0,0.0,0.0,0.0,0.0,0.0,0.0,0.0,-4.477,-4.477,-4.4738,-4.5032,-4.5749,-4.5768,-4.6089,-4.6749,-4.6803,-4.6857,-4.6857,-4.6272,-4.5596,-4.4952,-4.6335,-4.7055,-4.7188,-4.734,-4.7397,-4.7472,-4.8325,-4.8685,-4.8761,-4.9576,-4.9933,-4.9959,-5.0005,-5.0063,-5.0163,0.0,0.0,0.0,0.0,0.0,0.0,0.0,0.0,0.0,0.0,0.0,0.0,0.0,0.0,0.0,0.0,0.0,0.0,-0.7224,0.0,0.0,-0.9704,-0.9908,-1.0006,-1.0006,-1.0003,-0.9995,0.0,0.0,0.0,0.0,0.0,0.0,-1.5099,0.0,0.0,-1.5042,-1.4067,-1.3245,-1.2513,-1.152,-1.0723,-1.0096,-1.0096,-1.0101,-1.0101,-1.0101,-1.0101,-1.0101,-1.0101,-1.0096,0.0,0.0,0.0,-1.0035,-1.0149,-1.1277,0.0,0.0,0.0,0.0,0.0,0.0,0.0,0.0,0.0,0.0,0.0,0.0,0.0,0.0,0.0,0.0,0.0,0.0,0.0,0.0,0.0,0.0,0.0,0.0,0.0,0.0,0.0,0.0,0.0,-4.4738,-4.4712,-4.4712,-4.4693,-4.4749,-4.4881,-4.4881,-4.4938,-4.5032,-4.5032,-4.5085,-4.5136,-4.5098,-4.5009,-4.4914,-4.5122,-4.5653,-4.6392,-4.7093,-4.7397,-4.7472,-4.8325,-4.8685,-4.8761,-4.9576,-4.9925,-4.9925,-4.9978,-5.0005,-5.0038,0.0,0.0,0.0,0.0,0.0,0.0,0.0,0.0,0.0,0.0,0.0,0.0,0.0,0.0,0.0,-0.731,-0.7797,-0.8285,-0.8762,-0.9171,-0.9522,-0.9893,-0.9959,-0.9995,-1.0006,-0.9993,-1.0003,0.0,0.0,0.0,0.0,-1.3424,-1.4271,0.0,0.0,0.0,0.0,0.0,-1.3589,-1.3208,-1.235,-1.1809,-1.1501,-1.1501,-1.1501,-1.1501,-1.1501,-1.1195,-1.077,-1.077,-1.0459,-1.0035,-1.0035,0.0,0.0,0.0,-1.088,0.0,0.0,0.0,0.0,0.0,0.0,0.0,0.0,0.0,0.0,0.0,0.0,0.0,0.0,0.0,0.0,0.0,0.0,0.0,0.0,0.0,0.0,0.0,0.0,0.0,0.0,0.0,0.0,0.0,-4.4659,-4.4659,-4.4659,-4.4605,-4.4578,-4.4578,-4.4578,-4.4578,-4.4578,-4.4632,-4.4712,-4.4796,-4.4821,-4.4846,-4.4895,-4.4895,-4.5103,-4.5483,-4.5843,-4.5994,-4.6108,-4.7416,-4.7965,-4.8098,-4.9386,-4.9898,-4.9879,-4.9933,-4.9978,-5.0012,0.0,0.0,0.0,0.0,0.0,0.0,0.0,0.0,0.0,0.0,0.0,0.0,0.0,0.0,0.0,0.0,-0.8537,-0.9183,-0.9857,-0.99,-0.9893,-0.9893,-0.9967,-1.0003,-1.0001,-1.0001,0.0,0.0,0.0,0.0,-1.2598,-1.3195,-1.4048,0.0,-1.5092,0.0,0.0,0.0,0.0,0.0,0.0,-1.2896,0.0,-1.2902,-1.3036,-1.3208,-1.2973,-1.249,-1.1893,-1.1683,-1.1163,-1.06,-1.0391,-1.0334,0.0,0.0,0.0,0.0,0.0,0.0,0.0,0.0,0.0,0.0,0.0,0.0,0.0,0.0,0.0,0.0,0.0,0.0,0.0,0.0,0.0,0.0,0.0,0.0,0.0,0.0,0.0,0.0,0.0,0.0,0.0,0.0,-4.4605,-4.4578,-4.4578,-4.4542,-4.4515,-4.4515,-4.4515,-4.4515,-4.4515,-4.4551,-4.4659,-4.4764,-4.477,-4.484,-4.4889,-4.4895,-4.4895,-4.4895,-4.4895,-4.4895,-4.5028,-4.6714,-4.7397,-4.7567,-4.9235,-4.9898,-4.9898,-4.9898,-4.9933,-5.0005,0.0,0.0,0.0,0.0,0.0,0.0,0.0,0.0,0.0,0.0,0.0,0.0,-0.8433,-0.8526,-0.8848,-0.9605,-0.9705,-0.9781,-0.9894,-0.9894,-0.9893,-0.9893,-0.9967,0.0,-1.0003,-0.9995,0.0,0.0,0.0,0.0,-1.2503,-1.256,-1.3468,-1.5097,-1.5105,-1.5092,-1.5092,0.0,0.0,0.0,0.0,0.0,0.0,0.0,0.0,0.0,0.0,-1.3702,-1.355,-1.2712,-1.2408,-1.2237,-1.1475,-1.1241,-1.1078,0.0,0.0,0.0,0.0,0.0,0.0,0.0,0.0,0.0,0.0,0.0,0.0,0.0,0.0,0.0,0.0,0.0,0.0,0.0,0.0,0.0,0.0,0.0,0.0,0.0,0.0,0.0,0.0,0.0,0.0,0.0,-4.4515,-4.4515,-4.4515,-4.4515,-4.4515,-4.4515,-4.4515,-4.4515,-4.4515,-4.4551,-4.4605,-4.4605,-4.4738,-4.4796,-4.4815,-4.487,-4.4895,-4.4895,-4.4895,-4.4895,-4.5028,-4.6714,-4.7397,-4.7567,-4.9235,-4.9898,-4.9898,-4.9898,-4.9879,-4.9906,0.0,0.0,0.0,0.0,0.0,0.0,0.0,0.0,0.0,0.0,0.0,0.0,0.0,-0.9367,-0.9492,-0.9777,-0.9798,-0.9825,-0.9894,-0.99,-0.99,-0.9893,-0.9918,-0.9942,-0.9942,-0.9929,0.0,0.0,0.0,-1.058,-1.1749,-1.2256,-1.3124,-1.4287,-1.4842,-1.5105,-1.5092,-1.5105,0.0,0.0,0.0,0.0,0.0,0.0,0.0,0.0,0.0,0.0,0.0,-1.503,-1.4206,-1.323,-1.2926,-1.2097,-1.1055,-1.0192,-1.0545,0.0,0.0,0.0,0.0,0.0,0.0,0.0,0.0,0.0,0.0,0.0,0.0,0.0,0.0,0.0,0.0,0.0,0.0,0.0,0.0,0.0,0.0,0.0,0.0,0.0,0.0,0.0,0.0,0.0,0.0,-4.397,-4.4477,-4.4515,-4.4515,-4.4515,-4.4515,-4.4515,-4.4515,-4.4524,-4.457,-4.4605,-4.4659,-4.4738,-4.4796,-4.4821,-4.4846,-4.4895,-4.4895,-4.4895,-4.5028,-4.6714,-4.7397,-4.7567,-4.9235,-4.9898,-4.9898,-4.9898,-4.9898,-4.9925,0.0,0.0,0.0,0.0,0.0,0.0,0.0,0.0,0.0,0.0,0.0,0.0,0.0,0.0,-1.0506,-1.0228,-1.0201,-1.0117,-0.9875,-0.9882,-0.99,-0.9894,-0.9906,-0.9893,-0.9893,-0.9893,0.0,0.0,0.0,0.0,0.0,-1.1807,-1.2673,-1.3795,-1.4368,-1.4797,0.0,0.0,0.0,-1.6309,0.0,0.0,-1.8346,0.0,0.0,0.0,0.0,0.0,0.0,0.0,-1.6327,-1.5203,-1.436,-1.2953,-1.1496,-1.0917,-1.1155,0.0,0.0,0.0,0.0,0.0,0.0,0.0,0.0,0.0,0.0,0.0,0.0,0.0,0.0,0.0,0.0,0.0,0.0,0.0,0.0,0.0,0.0,0.0,0.0,0.0,0.0,0.0,0.0,0.0,0.0,0.0,-4.3651,-4.3951,-4.4233,-4.4496,-4.4515,-4.4515,-4.4515,-4.4515,-4.4524,-4.4551,-4.4578,-4.4659,-4.4719,-4.477,-4.4821,-4.487,-4.4895,-4.4895,-4.5009,-4.6411,-4.715,-4.7529,-4.8951,-4.9652,-4.9898,-4.9898,-4.9898,-4.9925,0.0,0.0,0.0,0.0,0.0,0.0,0.0,0.0,0.0,0.0,0.0,0.0,0.0,0.0,0.0,-1.11,-1.1042,-1.0703,-0.9891,-0.9894,-0.9932,-0.9894,-0.9894,-0.9893,-0.9893,-0.9893,0.0,0.0,0.0,0.0,0.0,0.0,-1.2076,0.0,-1.3645,-1.4144,-1.4971,0.0,-1.5529,-1.6338,0.0,-1.7833,-2.0038,0.0,0.0,0.0,-2.1585,-2.1315,0.0,-1.9401,0.0,0.0,0.0,0.0,-1.2467,-1.2448,0.0,0.0,0.0,0.0,0.0,0.0,0.0,0.0,0.0,0.0,0.0,0.0,0.0,0.0,0.0,0.0,0.0,0.0,0.0,0.0,0.0,0.0,0.0,0.0,0.0,0.0,0.0,0.0,0.0,0.0,-4.1954,-4.1954,-4.1991,-4.2806,-4.3632,-4.4458,-4.4477,-4.4496,-4.4515,-4.4515,-4.4515,-4.4515,-4.457,-4.4605,-4.4605,-4.4719,-4.4815,-4.4796,-4.487,-4.4895,-4.4971,-4.5843,-4.6657,-4.7491,-4.8344,-4.9178,-4.9898,-4.9898,-4.9898,-4.9925,0.0,0.0,0.0,0.0,0.0,0.0,0.0,0.0,0.0,0.0,0.0,0.0,-1.2179,-1.2187,-1.2102,-1.1898,-1.1915,-1.1578,-1.0722,-1.0733,-1.0485,-0.985,-0.9825,-0.9832,-0.9832,-0.9832,0.0,0.0,0.0,0.0,0.0,0.0,0.0,0.0,-1.2492,-1.3236,-1.4111,-1.473,0.0,0.0,-1.7795,-1.9178,0.0,0.0,0.0,0.0,0.0,-2.3803,-2.3639,0.0,-2.1815,-2.0715,0.0,0.0,0.0,0.0,0.0,0.0,-1.3403,0.0,0.0,0.0,0.0,0.0,0.0,0.0,0.0,0.0,0.0,0.0,0.0,0.0,0.0,0.0,0.0,0.0,0.0,0.0,0.0,0.0,0.0,0.0,0.0,0.0,0.0,0.0,-4.1135,-4.1398,-4.1954,-4.2243,-4.275,-4.3613,-4.3632,-4.3914,-4.4496,-4.4515,-4.4515,-4.4515,-4.4515,-4.4551,-4.4605,-4.4632,-4.4712,-4.4796,-4.4821,-4.4865,-4.4971,-4.5843,-4.6657,-4.7491,-4.8344,-4.9178,-4.9898,-4.9898,-4.9898,-4.9925,0.0,0.0,0.0,0.0,0.0,0.0,0.0,0.0,0.0,0.0,0.0,0.0,-1.4117,-1.4193,-1.3918,-1.3253,-1.3235,-1.2761,-1.1581,-1.1214,-1.0837,-1.0315,-0.9986,-0.9806,-0.9806,-0.9806,-0.9819,0.0,0.0,0.0,0.0,0.0,0.0,0.0,0.0,0.0,0.0,0.0,0.0,0.0,-1.8323,0.0,0.0,-2.3483,-2.4337,0.0,0.0,0.0,-2.5721,-2.4892,-2.3578,0.0,0.0,0.0,0.0,0.0,0.0,0.0,0.0,0.0,0.0,0.0,0.0,0.0,-1.9632,-2.0476,0.0,0.0,0.0,0.0,0.0,0.0,0.0,0.0,0.0,0.0,0.0,0.0,0.0,0.0,0.0,0.0,0.0,-3.9051,-3.9389,-4.0234,-4.029,-4.0647,-4.1473,-4.1511,-4.1905,-4.2731,-4.3106,-4.3538,-4.3989,-4.4346,-4.4515,-4.4515,-4.4515,-4.4515,-4.4551,-4.4578,-4.4632,-4.4738,-4.4789,-4.4821,-4.4884,-4.5445,-4.6354,-4.7453,-4.7946,-4.8856,-4.9898,-4.9898,-4.9898,-4.9925,0.0,0.0,0.0,0.0,0.0,0.0,0.0,0.0,0.0,0.0,0.0,0.0,-1.6835,-1.6995,-1.6417,-1.4992,-1.4862,-1.4188,-1.2567,-1.1795,-1.1283,-1.1004,-1.0301,-0.9886,-0.9793,-0.9799,-0.9799,-0.9799,0.0,0.0,0.0,0.0,0.0,0.0,0.0,0.0,0.0,0.0,0.0,-1.7457,-1.8383,-2.0205,0.0,0.0,-2.5548,-2.6359,-2.7342,-2.7629,-2.7424,-2.6559,-2.4666,0.0,0.0,0.0,0.0,0.0,-1.8191,0.0,0.0,0.0,0.0,0.0,0.0,0.0,-1.8752,-1.9793,-2.0788,0.0,0.0,0.0,0.0,0.0,0.0,0.0,0.0,0.0,0.0,0.0,0.0,0.0,0.0,0.0,-3.8094,-3.8169,-3.8488,-3.9263,-3.9414,-3.9802,-4.0609,-4.0666,-4.1041,-4.1822,-4.2618,-4.3106,-4.3294,-4.4008,-4.4421,-4.4515,-4.4515,-4.4515,-4.4515,-4.4551,-4.4578,-4.4605,-4.4719,-4.4796,-4.4815,-4.487,-4.588,-4.7397,-4.7397,-4.842,-4.9898,-4.9898,-4.9898,-4.9925,-1.0339,0.0,0.0,0.0,0.0,0.0,0.0,0.0,0.0,0.0,0.0,0.0,0.0,-1.7001,-1.6866,-1.6565,-1.6528,-1.5863,-1.4227,-1.398,-1.3001,-1.1015,-1.0817,-1.0454,-0.9812,-0.9808,-0.9803,-0.9798,0.0,0.0,0.0,0.0,0.0,0.0,0.0,0.0,0.0,0.0,0.0,-1.7384,-1.9009,0.0,-2.2655,-2.5672,-2.6879,-2.7259,-2.9364,-2.9701,-2.9027,-2.8147,-2.6634,-2.4972,0.0,0.0,0.0,0.0,0.0,0.0,0.0,0.0,0.0,0.0,0.0,0.0,-2.0284,-2.0172,-2.0116,0.0,0.0,0.0,0.0,0.0,0.0,0.0,0.0,0.0,0.0,0.0,0.0,0.0,0.0,0.0,-3.7305,-3.7324,-3.7399,-3.7549,-3.8188,-3.892,-3.9783,-3.9821,-4.0196,-4.1004,-4.121,-4.1942,-4.3294,-4.3463,-4.3857,-4.4515,-4.4515,-4.4515,-4.4515,-4.4515,-4.4551,-4.4605,-4.4667,-4.4764,-4.4815,-4.487,-4.588,-4.7397,-4.7397,-4.842,-4.9898,-4.9898,-4.9898,-4.9925,-1.049,0.0,0.0,0.0,0.0,0.0,0.0,0.0,0.0,0.0,0.0,0.0,0.0,0.0,0.0,-1.8834,-1.8798,-1.8112,-1.6497,-1.6017,-1.488,-1.2834,-1.2382,-1.1616,-1.0386,-1.0357,-1.015,-0.9745,0.0,0.0,0.0,0.0,0.0,0.0,0.0,0.0,0.0,0.0,-1.4942,-1.7342,-1.9095,0.0,-2.2576,-2.5933,-2.719,-2.7472,-2.9887,-3.0764,-3.0596,-2.9343,-2.8334,0.0,0.0,-2.494,-2.3859,0.0,-2.2427,-2.1455,0.0,0.0,0.0,-2.1409,0.0,0.0,0.0,-2.0858,-2.036,0.0,0.0,0.0,0.0,0.0,0.0,0.0,0.0,0.0,0.0,0.0,0.0,0.0,0.0,0.0,-3.5202,-3.5615,-3.6197,-3.7,-3.7384,-3.7796,-3.8227,-3.8664,-3.9077,-3.9489,-4.034,-4.1398,-4.2637,-4.3088,-4.3707,-4.4515,-4.4515,-4.4515,-4.4515,-4.4515,-4.4515,-4.4551,-4.4632,-4.4685,-4.4764,-4.4821,-4.5855,-4.7397,-4.7397,-4.842,-4.9898,-4.9898,-4.9898,-4.9925,-1.0675,0.0,0.0,0.0,0.0,0.0,0.0,0.0,0.0,0.0,0.0,0.0,0.0,0.0,0.0,0.0,-2.1236,-2.059,0.0,0.0,-1.7049,-1.5134,-1.4416,-1.3229,-1.1405,-1.1377,-1.0906,-0.9924,0.0,0.0,0.0,0.0,0.0,0.0,0.0,0.0,0.0,0.0,0.0,-1.7323,0.0,-2.0886,-2.2697,-2.5887,-2.7214,-2.7643,-2.9883,-3.1339,-3.1952,-3.046,-2.9844,-2.9451,-2.7941,-2.6916,0.0,0.0,0.0,0.0,0.0,0.0,0.0,0.0,0.0,-2.2523,0.0,0.0,0.0,0.0,0.0,0.0,0.0,0.0,0.0,0.0,0.0,0.0,0.0,0.0,0.0,0.0,0.0,0.0,0.0,-3.3623,-3.4708,-3.6162,-3.6358,-3.6502,-3.6651,-3.7486,-3.8034,-3.8184,-3.9564,-4.0753,-4.1773,-4.2618,-4.3463,-4.4271,-4.4439,-4.4515,-4.4515,-4.4515,-4.4515,-4.4515,-4.4551,-4.4632,-4.4712,-4.477,-4.5849,-4.7397,-4.7397,-4.842,-4.9898,-4.9898,-4.9898,-4.9925,-1.1499,-1.1743,0.0,0.0,0.0,0.0,0.0,0.0,0.0,0.0,0.0,0.0,0.0,0.0,0.0,0.0,0.0,0.0,-2.1387,0.0,0.0,-1.6762,-1.6549,-1.5423,-1.3088,-1.309,-1.2336,-1.0758,0.0,0.0,0.0,0.0,0.0,0.0,-1.0558,0.0,0.0,0.0,-1.5551,0.0,-1.9629,-2.1671,0.0,-2.613,-2.755,-2.839,-3.0085,-3.1644,-3.2753,0.0,-3.1061,-3.0318,0.0,-2.8533,-2.7697,-2.699,0.0,0.0,0.0,0.0,0.0,0.0,-2.4741,0.0,0.0,0.0,-2.1866,-2.1866,0.0,0.0,0.0,0.0,0.0,0.0,0.0,0.0,0.0,0.0,0.0,0.0,0.0,0.0,0.0,-3.1815,-3.2673,-3.3549,-3.4297,-3.5025,-3.5792,-3.6595,-3.7386,-3.8184,-3.8371,-3.9283,-4.0929,-4.1755,-4.2581,-4.3444,-4.4158,-4.4515,-4.4515,-4.4515,-4.4515,-4.4515,-4.4551,-4.4632,-4.4712,-4.477,-4.5849,-4.7397,-4.7397,-4.842,-4.9898,-4.9898,-4.9898,-4.9925,-1.1663,-1.2144,0.0,0.0,0.0,0.0,0.0,0.0,0.0,0.0,0.0,0.0,0.0,0.0,0.0,0.0,0.0,-2.6107,0.0,0.0,0.0,0.0,-1.9634,-1.8283,-1.5391,-1.4898,-1.3867,-1.2232,-1.1773,0.0,0.0,0.0,0.0,0.0,-1.1967,0.0,-1.3695,0.0,0.0,0.0,0.0,0.0,0.0,-2.6377,-2.8368,-3.0416,-3.1102,-3.2321,-3.3518,0.0,-3.2196,0.0,0.0,0.0,0.0,0.0,0.0,0.0,0.0,0.0,0.0,0.0,0.0,0.0,-2.4724,0.0,-2.2701,0.0,0.0,0.0,0.0,0.0,0.0,0.0,-2.2625,0.0,0.0,0.0,0.0,0.0,0.0,0.0,0.0,0.0,0.0,0.0,-3.2471,-3.325,-3.4088,-3.4974,-3.5861,-3.6732,-3.7673,-3.8814,-4.0084,-4.136,-4.2449,-4.3313,-4.412,-4.4515,-4.4515,-4.4515,-4.4515,-4.4515,-4.4542,-4.4605,-4.4749,-4.5266,-4.6233,-4.7453,-4.7946,-4.8856,-4.9898,-4.9898,-4.9898,-4.9925,-1.1979,0.0,0.0,0.0,0.0,0.0,0.0,0.0,0.0,0.0,0.0,0.0,-2.764,-2.8458,0.0,0.0,-2.9919,-2.9373,0.0,0.0,-2.6267,-2.3045,-2.2918,0.0,0.0,-1.7329,-1.6032,-1.4198,0.0,0.0,0.0,0.0,0.0,0.0,0.0,-1.4026,-1.4702,0.0,0.0,-1.9564,-2.1683,-2.4007,-2.6297,-2.7412,-2.9474,-3.1774,-3.1997,-3.2956,-3.3981,-3.3408,-3.3032,0.0,-3.2114,0.0,0.0,0.0,0.0,0.0,-2.8889,0.0,0.0,0.0,0.0,0.0,0.0,0.0,0.0,0.0,0.0,0.0,0.0,0.0,0.0,0.0,0.0,-2.2349,0.0,0.0,0.0,0.0,0.0,0.0,0.0,0.0,0.0,-2.9617,-3.0581,-3.1392,-3.1968,-3.3278,-3.4428,-3.5315,-3.6951,-3.8278,-3.9196,-4.0828,-4.2085,-4.2956,-4.3782,-4.4289,-4.4515,-4.4515,-4.4515,-4.4515,-4.4515,-4.471,-4.5108,-4.573,-4.6679,-4.7813,-4.8439,-4.9178,-4.9898,-4.9898,-4.9898,-4.9925,-1.2767,-1.2842,0.0,0.0,0.0,0.0,0.0,0.0,0.0,0.0,0.0,0.0,0.0,0.0,0.0,0.0,0.0,-3.2589,-3.1048,0.0,-2.953,-2.6381,-2.6253,-2.4741,0.0,0.0,0.0,0.0,0.0,0.0,0.0,0.0,0.0,0.0,0.0,-1.4484,-1.4715,-1.7874,-1.9268,-1.9599,-2.2812,-2.5649,-2.8088,0.0,-3.084,-3.1708,-3.2484,0.0,0.0,-3.3961,-3.3444,0.0,0.0,0.0,0.0,0.0,0.0,0.0,0.0,0.0,0.0,-2.8344,0.0,0.0,0.0,0.0,-2.6786,0.0,0.0,0.0,0.0,0.0,0.0,0.0,0.0,0.0,0.0,0.0,0.0,0.0,0.0,0.0,0.0,0.0,-2.699,-2.7028,-2.8552,-2.95,-2.9518,-3.1768,-3.3483,-3.4428,-3.5988,-3.7293,-3.824,-3.9914,-4.1196,-4.2029,-4.2919,-4.3745,-4.4515,-4.4515,-4.4515,-4.4515,-4.4515,-4.5049,-4.5957,-4.5976,-4.7065,-4.8647,-4.8685,-4.9178,-4.9898,-4.9898,-4.9898,-4.9925,0.0,0.0,0.0,0.0,0.0,0.0,0.0,-2.2024,0.0,0.0,0.0,0.0,0.0,-3.2313,-3.3214,0.0,0.0,-3.4344,-3.3352,-3.328,0.0,0.0,0.0,-2.7937,0.0,0.0,0.0,0.0,0.0,0.0,0.0,0.0,0.0,0.0,0.0,-1.5514,0.0,0.0,0.0,0.0,0.0,-2.6576,-2.8037,0.0,-3.0914,-3.1708,-3.2521,-3.329,0.0,-3.3921,-3.371,-3.3464,-3.3464,-3.3298,-3.2941,-3.2408,-3.2293,-3.2152,0.0,0.0,-3.0951,-2.9857,0.0,0.0,0.0,0.0,0.0,0.0,0.0,0.0,0.0,0.0,0.0,0.0,0.0,0.0,0.0,0.0,0.0,0.0,0.0,0.0,0.0,0.0,0.0,-2.6117,-2.712,-2.8236,-2.9351,-3.0169,-3.1529,-3.3473,-3.4628,-3.5906,-3.7324,-3.9013,-4.0536,-4.1938,-4.2819,-4.3671,-4.4515,-4.4515,-4.4515,-4.4533,-4.5059,-4.551,-4.5978,-4.7099,-4.7993,-4.8708,-4.9273,-4.9652,-4.9898,-4.9898,-4.9898,-4.9925,-1.615,0.0,0.0,0.0,0.0,0.0,0.0,0.0,0.0,0.0,-2.8793,0.0,-3.2834,0.0,-3.5238,0.0,-3.6856,-3.6838,-3.6095,-3.5789,0.0,-3.2679,-3.2329,0.0,0.0,0.0,0.0,0.0,0.0,-1.8324,0.0,0.0,0.0,0.0,0.0,0.0,0.0,0.0,-2.0823,0.0,0.0,-2.757,0.0,0.0,-3.1035,-3.1673,0.0,-3.3453,-3.3868,-3.3868,-3.386,-3.3807,-3.3807,-3.3807,-3.3697,-3.3183,-3.3062,-3.2904,-3.2114,-3.1918,0.0,-3.0954,-3.0365,0.0,-2.9374,0.0,-2.8436,0.0,0.0,0.0,0.0,0.0,0.0,0.0,0.0,0.0,0.0,-2.0626,0.0,0.0,0.0,0.0,0.0,0.0,-2.4928,-2.5262,-2.6024,-2.6953,0.0,0.0,-3.0265,-3.2147,-3.358,-3.515,-3.6839,-3.8226,-3.9746,-4.1453,-4.2127,-4.2941,-4.3877,-4.4299,-4.4515,-4.4552,-4.5359,-4.5923,-4.6356,-4.7721,-4.8551,-4.9088,-4.9662,-4.9898,-4.9898,-4.9898,-4.9925,-4.9971,0.0,0.0,0.0,0.0,-1.7897,0.0,0.0,0.0,-2.5804,0.0,-3.0507,-3.2295,-3.3229,-3.6049,-3.7935,-3.7971,-3.9337,-3.9857,-3.9085,-3.8385,0.0,0.0,-3.49,-3.3355,-3.0984,0.0,0.0,0.0,0.0,0.0,0.0,0.0,0.0,0.0,-1.7612,0.0,-1.8209,-2.0605,-2.2117,-2.3247,-2.6366,-2.8554,-3.0086,-3.0888,-3.1294,-3.1659,-3.3238,-3.3807,-3.3807,-3.3807,-3.3807,-3.3807,-3.3844,-3.3862,-3.3862,-3.3917,-3.3899,-3.3697,-3.2944,-3.2706,-3.2485,-3.1659,-3.1507,0.0,0.0,0.0,-3.1573,0.0,0.0,0.0,0.0,0.0,0.0,0.0,0.0,0.0,0.0,0.0,0.0,0.0,0.0,0.0,0.0,-2.3203,-2.3537,-2.4369,-2.515,0.0,0.0,0.0,-2.9667,-3.0522,-3.2823,-3.4909,-3.6714,-3.7571,-3.8846,-4.0606,-4.0969,-4.1688,-4.2763,-4.3952,-4.4515,-4.4552,-4.5378,-4.6262,-4.7156,-4.7806,-4.8758,-4.9807,-4.9871,-4.9898,-4.9898,-4.9898,-4.999,-5.0081,-1.9439,-2.0131,-2.0863,0.0,-2.1821,-2.2569,0.0,0.0,0.0,0.0,-3.188,-3.3609,-3.6165,-3.7167,-3.8132,-3.9294,-3.9759,0.0,0.0,0.0,0.0,-3.8133,-3.7395,-3.6137,-3.4325,-3.2116,0.0,-2.8362,0.0,0.0,-2.0675,0.0,0.0,0.0,0.0,0.0,-1.8868,-2.0717,-2.3022,-2.5517,-2.6936,-2.853,0.0,0.0,-3.1581,-3.2291,-3.3332,-3.3726,-3.3726,-3.378,-3.3807,-3.3899,-3.4504,-3.4679,-3.4835,-3.5477,-3.5202,-3.4642,-3.4422,-3.3954,-3.3311,-3.2504,-3.2302,-3.2162,0.0,0.0,0.0,0.0,0.0,0.0,0.0,0.0,0.0,0.0,0.0,0.0,0.0,0.0,0.0,-2.1977,0.0,0.0,0.0,-2.3203,-2.3295,-2.3518,-2.3722,0.0,0.0,0.0,0.0,-2.9667,-3.1091,-3.3115,-3.5801,-3.7043,-3.8596,-4.0551,-4.1222,-4.2081,-4.3109,-4.4018,-4.444,-4.4571,-4.5612,-4.6419,-4.7116,-4.8541,-4.939,-4.9825,-4.9862,-4.9898,-4.9898,-4.9898,-4.9925,-4.9971,-2.1566,0.0,0.0,-2.4506,0.0,0.0,-2.5985,0.0,0.0,-3.182,-3.3646,0.0,-3.7288,-3.8391,-3.937,-4.0202,-4.0633,0.0,-4.0967,0.0,0.0,-3.9942,-3.9172,-3.8026,-3.6449,-3.4408,0.0,-2.9983,0.0,0.0,-2.1747,0.0,0.0,0.0,0.0,-1.8731,0.0,-2.2036,-2.4245,-2.6354,-2.7882,0.0,0.0,-3.1311,-3.2128,-3.2892,-3.3413,-3.3633,-3.3671,-3.3698,-3.3936,-3.4302,-3.4816,-3.52,-3.5585,-3.6156,-3.5954,-3.5569,-3.5569,-3.5238,-3.478,-3.4339,-3.4229,-3.41,-3.3642,-3.3532,-3.3421,0.0,-3.2687,-3.2364,0.0,0.0,0.0,0.0,0.0,0.0,0.0,0.0,0.0,0.0,-2.3503,0.0,0.0,-2.3314,-2.2813,-2.3165,-2.2868,0.0,0.0,0.0,0.0,-2.8775,-3.0126,-3.215,-3.4903,-3.6396,-3.7891,-3.9388,-4.0672,-4.1875,-4.2978,-4.3915,-4.4421,-4.459,-4.595,-4.6719,-4.7124,-4.8802,-4.9625,-4.9816,-4.9862,-4.9898,-4.9898,-4.9898,-4.9898,-4.9906,0.0,0.0,0.0,0.0,0.0,0.0,0.0,-3.0543,0.0,-3.3051,0.0,-3.7562,-3.7881,-3.9722,-4.1032,-4.1226,0.0,-4.2381,-4.2381,-4.1825,-4.1479,-4.1372,-4.0606,-3.9465,-3.7933,-3.6238,-3.3883,0.0,0.0,0.0,0.0,0.0,0.0,0.0,0.0,0.0,0.0,-2.3833,-2.5623,-2.6598,-2.8876,-3.0333,-3.122,-3.1926,-3.2705,-3.3411,-3.3481,-3.352,-3.3577,-3.3733,-3.4225,-3.4845,-3.5115,-3.5692,-3.6296,-3.6531,-3.6523,-3.645,-3.645,-3.6376,-3.6303,-3.6303,-3.6303,-3.6303,-3.6303,-3.6303,-3.6083,-3.5349,-3.4614,-3.388,-3.3073,0.0,0.0,0.0,0.0,0.0,0.0,0.0,0.0,0.0,0.0,0.0,0.0,0.0,0.0,0.0,0.0,0.0,0.0,0.0,0.0,-2.7863,-2.9723,-3.1749,-3.4011,-3.5894,-3.7251,-3.8079,-3.9984,-4.153,-4.2688,-4.3793,-4.4374,-4.4608,-4.6223,-4.7068,-4.7454,-4.8886,-4.9615,-4.9797,-4.9862,-4.9898,-4.9898,-4.9898,-4.9898,-4.9925,0.0,0.0,0.0,0.0,0.0,-3.2318,-3.323,-3.3846,-3.4693,-3.6121,-3.7415,-3.8921,-4.0866,-4.1474,-4.2253,-4.3581,-4.3828,0.0,0.0,0.0,0.0,-4.2774,-4.2061,-4.0966,-3.9437,-3.7308,-3.4972,0.0,0.0,0.0,0.0,0.0,0.0,0.0,0.0,0.0,-2.3189,-2.5044,0.0,-2.8167,-2.9295,-3.0622,-3.1999,-3.2144,-3.2705,-3.3393,-3.3393,-3.3452,-3.3629,-3.436,-3.4699,-3.5046,-3.6358,-3.69,-3.7155,-3.7906,-3.7631,-3.7149,-3.7276,-3.6798,-3.6303,-3.6303,-3.6303,-3.6303,-3.6303,-3.6303,-3.6266,-3.6101,-3.5954,-3.5605,-3.4734,0.0,0.0,0.0,0.0,0.0,0.0,0.0,0.0,0.0,0.0,-2.6209,0.0,0.0,0.0,0.0,0.0,0.0,0.0,0.0,0.0,0.0,-2.9595,0.0,0.0,0.0,-3.7873,-3.8915,-4.0624,-4.1975,-4.2969,-4.3885,-4.4354,-4.459,-4.579,-4.7379,-4.9077,-4.9367,-4.9625,-4.9797,-4.9807,-4.9843,-4.9898,-4.9898,-4.9898,-4.9925,0.0,0.0,0.0,0.0,0.0,0.0,0.0,-3.7056,0.0,-3.7642,-3.9059,-4.0486,-4.1595,-4.2485,-4.3278,-4.4036,-4.417,-4.4188,-4.4188,-4.4261,-4.4147,-4.3758,-4.3005,-4.209,-4.0896,-3.8635,-3.6273,-3.3946,0.0,0.0,0.0,0.0,0.0,0.0,0.0,-2.2473,0.0,0.0,0.0,-2.855,-3.0251,-3.1426,-3.2195,-3.2669,-3.3067,-3.3447,-3.3882,-3.4057,-3.4123,-3.4552,-3.4951,-3.5545,-3.6739,-3.7426,-3.7845,-3.8305,-3.8172,-3.788,-3.7973,-3.7747,-3.7454,-3.7533,-3.7551,-3.7551,-3.7551,-3.7551,-3.7422,-3.7,-3.6909,-3.6523,-3.5229,-3.4045,0.0,0.0,0.0,0.0,0.0,0.0,-2.8703,0.0,0.0,0.0,0.0,0.0,0.0,0.0,0.0,0.0,0.0,0.0,-2.4334,0.0,0.0,0.0,-3.2971,0.0,-3.7753,-3.912,-4.0791,-4.2058,-4.2976,-4.3893,-4.4344,-4.4533,-4.5988,-4.7218,-4.8265,-4.9179,-4.9615,-4.9692,-4.9778,-4.9835,-4.9843,-4.9898,-4.9898,-4.9906,0.0,-3.0506,0.0,0.0,-3.4535,0.0,-3.7565,-3.9633,-4.0582,-3.901,-4.0701,-4.2103,-4.2324,-4.343,-4.422,-4.4378,-4.4507,-4.4571,-4.4571,-4.4664,-4.464,-4.4481,-4.3748,-4.2864,-4.1909,-3.9593,-3.7312,0.0,0.0,0.0,0.0,0.0,0.0,0.0,0.0,0.0,0.0,0.0,-2.872,-2.9241,-3.142,-3.2385,-3.2649,-3.3503,-3.384,-3.3961,-3.4594,-3.4829,-3.4878,-3.5059,-3.553,-3.62,-3.7076,-3.7766,-3.8307,-3.8368,-3.8368,-3.8382,-3.8478,-3.8478,-3.851,-3.8627,-3.8658,-3.8658,-3.8658,-3.8658,-3.8524,-3.7881,-3.7606,-3.7092,-3.5789,-3.4871,0.0,0.0,0.0,0.0,0.0,0.0,0.0,0.0,0.0,0.0,-2.7368,0.0,0.0,0.0,0.0,0.0,-2.2219,0.0,0.0,0.0,0.0,-3.0578,-3.2971,0.0,-3.7596,-3.938,-4.0884,-4.2169,-4.3197,-4.3957,-4.4344,-4.4505,-4.625,-4.7199,-4.7631,-4.9017,-4.9593,-4.9604,-4.9721,-4.9778,-4.9807,-4.9871,-4.9898,-4.9898,0.0,0.0,0.0,0.0,0.0,0.0,-4.0486,-4.0822,-4.1111,-4.1084,-4.2492,-4.3815,-4.4694,-4.4904,-4.5273,-4.5958,-4.601,-4.601,-4.601,-4.601,-4.5712,-4.5058,-4.4378,-4.3331,-4.185,-3.957,-3.7595,0.0,0.0,-3.0446,0.0,0.0,0.0,0.0,0.0,0.0,0.0,-2.8852,-3.0141,-3.156,-3.2527,-3.3396,-3.4177,-3.4986,-3.5339,-3.5403,-3.5493,-3.5562,-3.5802,-3.6526,-3.6816,-3.7015,-3.7845,-3.8153,-3.8207,-3.8307,-3.8307,-3.8322,-3.8382,-3.8415,-3.8415,-3.8415,-3.8478,-3.851,-3.851,-3.8609,-3.8689,-3.8597,-3.801,-3.747,-3.7276,-3.6597,-3.5771,0.0,0.0,0.0,0.0,0.0,-3.1336,-3.1366,0.0,0.0,-2.9045,-2.7461,0.0,0.0,-2.2708,0.0,0.0,0.0,0.0,-2.6823,-2.8533,-3.0578,-3.2971,-3.546,-3.7894,-4.029,-4.1181,-4.2486,-4.4072,-4.4218,-4.4344,-4.4505,-4.625,-4.7856,-4.9283,-4.9434,-4.9551,-4.9623,-4.9663,-4.975,-4.9807,-4.9871,-4.9898,-4.9898,0.0,0.0,0.0,0.0,0.0,0.0,0.0,-4.1954,-4.2829,-4.2878,-4.3701,-4.444,-4.482,-4.5306,-4.574,-4.6055,-4.6172,-4.6172,-4.6172,-4.6172,-4.6098,-4.5782,-4.5093,-4.4179,-4.3054,-4.1253,-3.9341,0.0,0.0,0.0,0.0,0.0,0.0,0.0,0.0,-2.8482,-2.965,-3.095,-3.2166,-3.3269,-3.4089,-3.464,-3.5011,-3.5349,-3.5508,-3.5594,-3.608,-3.6294,-3.6471,-3.7313,-3.7326,-3.7123,-3.7938,-3.8192,-3.8225,-3.8241,-3.8241,-3.8241,-3.8322,-3.8354,-3.8354,-3.8382,-3.8415,-3.8446,-3.8446,-3.8496,-3.8515,-3.8515,-3.8303,-3.7967,-3.7569,-3.7221,-3.6864,-3.6342,0.0,0.0,0.0,0.0,0.0,-3.2217,0.0,-3.1011,0.0,0.0,0.0,0.0,0.0,0.0,0.0,0.0,0.0,-2.7529,0.0,-3.1545,-3.4457,-3.6426,-3.8655,-4.1126,-4.1943,-4.2958,-4.4085,-4.4195,-4.4845,-4.5956,-4.7188,-4.8401,-4.9509,-4.9509,-4.9521,-4.9551,-4.9623,-4.9663,-4.975,-4.9835,-4.9871,-4.9898,-4.0583,0.0,-4.1003,0.0,-4.2216,-4.2216,-4.2216,-4.3423,-4.4337,-4.4337,-4.4663,-4.4937,-4.5037,-4.5558,-4.5922,-4.5922,-4.6023,-4.6073,-4.6073,-4.6073,-4.6073,-4.6122,-4.5453,0.0,-4.3921,-4.2394,-4.0691,-3.8813,-3.7023,0.0,0.0,0.0,0.0,0.0,-3.0208,-3.0911,-3.1585,-3.2965,-3.3868,-3.4508,-3.5343,-3.5699,-3.5735,-3.6018,-3.6141,-3.6229,-3.6804,-3.7019,-3.7144,-3.7753,-3.7641,-3.7365,-3.8011,-3.8192,-3.8192,-3.8192,-3.8192,-3.8225,-3.8241,-3.8274,-3.8274,-3.8336,-3.8368,-3.8368,-3.8368,-3.8401,-3.8382,-3.8382,-3.8446,-3.8345,-3.7857,-3.7747,-3.7619,-3.7202,0.0,0.0,0.0,-3.4788,0.0,-3.3358,-3.2908,-3.1935,-3.0204,-2.9664,0.0,0.0,0.0,0.0,0.0,0.0,0.0,0.0,0.0,0.0,-3.546,-3.7318,-3.938,-4.1609,-4.2649,-4.3578,-4.4395,-4.478,-4.5779,-4.7285,-4.792,-4.8683,-4.9509,-4.9509,-4.9509,-4.9509,-4.9563,-4.9634,-4.9692,-4.9778,-4.9843,-4.9898,-4.0138,-4.0121,-4.1223,-4.4733,-4.5372,-4.5372,-4.5372,-4.5389,-4.5406,-4.5406,-4.5406,-4.5511,-4.577,-4.5821,-4.577,-4.577,-4.5821,-4.5821,-4.5821,-4.5821,-4.5871,0.0,0.0,-4.4585,-4.3904,-4.2394,-4.1218,-4.0446,0.0,0.0,-3.5706,0.0,-3.2454,-3.2472,-3.3368,-3.3791,-3.3894,-3.4728,-3.51,-3.5275,-3.606,-3.6381,-3.647,-3.7255,-3.7613,-3.7667,-3.7685,-3.7774,-3.7899,-3.7899,-3.7899,-3.7934,-3.814,-3.8192,-3.8192,-3.8192,-3.8192,-3.8192,-3.8192,-3.8192,-3.8192,-3.8192,-3.8241,-3.8307,-3.8307,-3.8336,-3.8382,-3.8382,-3.8382,-3.8415,-3.8382,-3.8382,-3.8109,-3.7325,0.0,0.0,0.0,-3.54,0.0,-3.4954,-3.356,-3.2596,-3.2577,-3.1127,0.0,0.0,0.0,0.0,0.0,0.0,0.0,-2.9265,-3.1685,0.0,-3.546,-3.7875,-3.9937,-4.1609,-4.3225,-4.4432,-4.5305,-4.6227,-4.7193,-4.8091,-4.8183,-4.8683,-4.9509,-4.9509,-4.9509,-4.9509,-4.9563,-4.9634,-4.9692,-4.9778,-4.9843,-4.9898,-4.3149,-4.3149,-4.3491,-4.4678,-4.5157,-4.5423,-4.5423,-4.5423,-4.5423,-4.5423,-4.5423,-4.5423,-4.5528,-4.5632,-4.5667,0.0,-4.5736,-4.577,0.0,-4.577,-4.5821,-4.5871,-4.5645,-4.5207,-4.4585,-4.3553,-4.2444,-4.1253,0.0,0.0,0.0,-3.613,-3.5307,-3.4905,-3.5169,-3.5349,-3.5403,-3.5757,-3.6201,-3.6738,-3.7077,-3.7202,-3.7238,-3.7487,-3.7613,-3.7649,-3.7649,-3.7649,-3.7703,-3.7757,-3.7757,-3.7792,-3.7934,-3.8038,-3.8088,-3.8174,-3.8192,-3.8192,-3.8192,-3.8192,-3.8192,-3.8192,-3.8225,-3.8241,-3.8241,-3.8241,-3.8274,-3.8322,-3.8322,-3.8354,-3.8382,-3.8382,-3.831,-3.8054,-3.7981,0.0,-3.6955,0.0,-3.6012,-3.5714,-3.529,-3.4769,-3.4238,-3.3734,0.0,0.0,0.0,0.0,0.0,0.0,0.0,0.0,-3.3043,0.0,-3.7868,-3.9277,-4.107,-4.3243,-4.4358,-4.5324,-4.6141,-4.7052,-4.7671,-4.8084,-4.8671,-4.9146,-4.9509,-4.9509,-4.9509,-4.949,-4.9521,-4.9563,-4.9634,-4.9692,-4.9778,-4.9843,-4.4587,-4.4587,-4.4587,-4.4587,-4.4903,-4.5103,-4.5103,-4.5264,-4.5371,-4.5264,-4.5318,-4.5371,-4.53,-4.5406,0.0,-4.5528,-4.5632,-4.5667,-4.5667,-4.5667,-4.5667,-4.5718,-4.5718,-4.5422,-4.4823,-4.4317,0.0,-4.1971,-4.099,-3.9814,-3.855,-3.8076,-3.7642,-3.7242,-3.7259,-3.7284,-3.737,-3.715,-3.7367,-3.7822,-3.7592,-3.754,-3.754,-3.7577,-3.7577,-3.7577,-3.7577,-3.7577,-3.7631,-3.7649,-3.7667,-3.7685,-3.781,-3.7863,-3.7915,-3.8088,-3.8122,-3.814,-3.8192,-3.8192,-3.8192,-3.8192,-3.8192,-3.8192,-3.8192,-3.8192,-3.8225,-3.8241,-3.8274,-3.8274,-3.8322,-3.8303,-3.8303,-3.8303,-3.8285,-3.8103,-3.7662,0.0,-3.6752,0.0,0.0,0.0,0.0,-3.5363,-3.5329,0.0,0.0,0.0,0.0,0.0,-3.2785,-3.4131,-3.5299,-3.7026,-3.9394,-4.0945,-4.2489,-4.3961,-4.5491,-4.6624,-4.7423,-4.8025,-4.8366,-4.8482,-4.9051,-4.939,-4.9509,-4.9509,-4.9509,-4.9509,-4.9509,-4.9551,-4.9623,-4.9653,-4.99,-5.0203,-4.4587,-4.4587,-4.4587,0.0,-4.4587,0.0,-4.4587,-4.4995,-4.5264,-4.4978,-4.5211,-4.5318,-4.5177,-4.53,-4.5371,-4.5371,0.0,0.0,-4.5423,-4.5423,-4.5476,-4.5581,-4.5581,-4.5355,-4.4744,-4.4742,-4.4007,-4.2585,-4.12,-4.0182,-3.9438,-3.9438,-3.9403,-3.9392,-3.9392,-3.9417,-3.9453,-3.8712,-3.8417,-3.8408,-3.7745,-3.7427,-3.7429,-3.754,-3.7594,-3.7594,-3.7594,-3.7577,-3.7577,-3.7577,-3.7577,-3.7613,-3.7667,-3.7703,-3.7739,-3.7915,-3.7984,-3.8036,-3.814,-3.8192,-3.8192,-3.8192,-3.8192,-3.8192,-3.8192,-3.8192,-3.8192,-3.8192,-3.8192,-3.8192,-3.8192,-3.8192,-3.8192,-3.8192,-3.8192,-3.8207,-3.8274,-3.7653,-3.7212,0.0,0.0,0.0,-3.6237,-3.6364,-3.6753,0.0,0.0,0.0,0.0,0.0,-3.5855,-3.6638,-3.8206,-3.9453,-4.0339,-4.276,-4.4045,-4.4193,-4.6628,-4.8184,-4.8909,-4.9015,-4.9116,-4.9197,-4.9276,-4.9358,-4.9509,-4.9509,-4.9509,-4.9509,-4.9509,-4.9589,-4.9668,-4.9668,-5.0237,-5.0964,0.0,0.0,-4.4587,-4.4587,-4.4587,-4.4587,-4.4587,-4.4682,-4.4793,-4.4682,-4.4737,-4.4886,-4.5086,-4.5086,-4.514,-4.5247,-4.5371,-4.5423,-4.5423,-4.5423,-4.5423,-4.5423,-4.5423,-4.5442,-4.5373,-4.4852,-4.386,-4.2457,-4.1527,-4.0996,-4.0884,-4.0884,-4.0674,-4.02,-4.02,-3.9901,-3.935,-3.9271,-3.8871,-3.8325,-3.8213,-3.781,-3.7334,-3.7429,-3.7466,-3.7466,-3.7577,-3.7577,-3.7577,-3.7577,-3.7577,-3.7613,-3.7613,-3.7613,-3.7649,-3.7846,-3.7967,-3.8018,-3.8036,-3.8122,-3.8192,-3.8192,-3.8192,-3.8192,-3.8192,-3.8192,-3.8192,-3.8192,-3.8192,-3.8192,-3.8192,-3.8192,-3.8192,-3.8192,-3.8192,-3.8225,-3.8225,-3.8044,-3.7935,0.0,-3.8365,-3.8652,-3.8652,-3.9298,-3.9783,0.0,0.0,0.0,-4.0372,-3.9923,-3.9509,-3.9087,-4.0086,-4.1346,-4.275,-4.4085,-4.5423,-4.6731,-4.802,-4.8723,-4.8909,-4.8943,-4.8996,-4.9135,-4.9197,-4.9276,-4.9358,-4.9459,-4.9509,-4.9509,-4.9509,-4.9865,-5.0441,-5.0485,-5.1042,-5.1751,-4.4587,-4.4587,-4.4587,-4.4587,-4.4587,-4.4587,-4.4587,-4.4587,-4.4587,-4.4587,-4.4587,-4.4682,-4.4831,-4.4923,-4.5032,-4.5086,-4.5247,-4.53,-4.5371,-4.5423,-4.5423,-4.5423,-4.5423,-4.5423,-4.5528,-4.5131,-4.4213,-4.2819,-4.1719,-4.1255,-4.1318,-4.138,-4.1233,-4.092,-4.1007,-4.0779,-4.035,-4.0074,-3.9705,-3.9263,-3.9012,-3.8651,-3.8298,-3.8398,-3.8419,-3.8478,-3.818,-3.8093,-3.8094,-3.7702,-3.7577,-3.7577,-3.7577,-3.7577,-3.7631,-3.7739,-3.7792,-3.788,-3.7984,-3.8036,-3.8122,-3.8174,-3.8192,-3.8192,-3.8192,-3.8464,-3.8735,-3.8735,-3.9007,-3.9152,-3.8808,-3.8735,-3.8627,-3.8246,-3.8192,-3.8192,-3.8192,-3.8192,-3.8337,-3.8699,-3.915,-3.9583,-3.9928,-4.0433,-4.1067,-4.1813,-4.1902,0.0,-4.3012,-4.3156,-4.2748,-4.157,-4.2022,-4.3015,-4.4651,-4.5935,-4.7313,-4.8694,-4.9545,-4.9988,-5.0042,-5.0042,-5.0096,-5.02,-5.0235,-5.0094,-4.9888,-5.0352,-5.0359,-5.0091,-5.0447,-5.086,-5.1236,-5.1299,-5.1826,-5.2559,-4.457,-4.4587,-4.4587,-4.4587,-4.4587,-4.4722,-4.5179,-4.5246,-4.5246,-4.5246,-4.4857,-4.4587,-4.4587,-4.4776,-4.4923,-4.4978,-4.5086,-4.5194,-4.5318,-4.5371,-4.5371,-4.5371,-4.5371,-4.5423,-4.5423,-4.5199,-4.4492,-4.3279,-4.1881,-4.1163,-4.1209,-4.1307,-4.1353,-4.138,-4.1515,-4.156,-4.1552,-4.091,-4.0595,-4.0438,-3.9891,-3.957,-3.9488,-3.9552,-3.9673,-3.966,-3.9046,-3.8836,-3.8841,-3.8165,-3.7933,-3.7933,-3.7933,-3.7862,-3.7773,-3.7773,-3.7757,-3.7739,-3.7915,-3.7984,-3.8036,-3.814,-3.8282,-3.8373,-3.8373,-3.8989,-3.9568,-3.9568,-4.0057,-4.0311,-3.9677,-3.9568,-3.9315,-3.85,-3.8373,-3.8373,-3.8373,0.0,-3.8663,-3.946,-3.9659,-4.0039,-4.08,-4.1071,-4.1851,-4.3303,-4.3506,-4.4144,-4.551,-4.5716,-4.5242,-4.405,-4.403,-4.4819,-4.6434,-4.796,-4.9159,-5.0139,-5.0842,-5.1269,-5.1361,-5.1398,-5.1434,-5.1487,-5.1487,-5.1183,-5.0703,-5.1466,-5.142,-5.0903,-5.1598,-5.1935,-5.2067,-5.2067,-5.2625,-5.3376,-4.4514,-4.4587,-4.4587,-4.4587,-4.4587,-4.5432,-4.7936,-4.8325,-4.8325,-4.8325,-4.6143,-4.4587,-4.4587,-4.4626,-4.4737,-4.4831,-4.4831,-4.494,-4.5032,-4.5194,-4.523,-4.523,-4.5371,-4.5423,-4.5423,-4.4182,-4.3456,-4.3214,-4.1678,-4.1012,-4.1105,-4.114,-4.1226,-4.1393,-4.1436,-4.1515,-4.1587,-4.1464,-4.106,-4.049,-4.0394,-3.9939,-3.9346,-3.947,-3.9529,-3.9552,-3.9589,-3.9633,-3.9615,-3.9572,-3.9557,-3.9557,-3.9557,-3.9129,-3.8611,-3.8611,-3.813,-3.7649,-3.7703,-3.788,-3.8018,-3.8036,-3.8647,-3.9206,-3.9206,-3.9786,-4.0347,-4.0347,-4.0437,-4.0474,-4.0365,-4.0347,-4.0093,-3.9333,-3.9206,-3.9206,-3.9206,0.0,-3.9496,-4.0256,-4.0944,-4.1651,-4.2448,-4.3174,-4.3971,-4.4914,-4.5064,-4.5251,-4.5506,-4.5601,-4.5822,-4.628,-4.6432,-4.7352,-4.9003,-4.9358,-4.9912,-5.0761,-5.1044,-5.1213,-5.1213,-5.1361,-5.1398,-5.1434,-5.1487,-5.1448,-5.1372,-5.1535,-5.1566,-5.1473,-5.1604,-5.2105,-5.2844,-5.2844,-5.3421,-5.4202,-4.3981,-4.4344,-4.4587,-4.4587,-4.4587,-4.5585,-4.8545,-4.9001,-4.9001,-4.9001,-4.78,-4.6549,-4.5466,-4.5263,-4.5083,-4.4716,-4.4682,-4.4737,-4.4776,-4.4978,-4.5086,-4.5086,-4.514,-4.5194,-4.53,-4.4337,-4.3819,-4.3819,-4.2696,-4.2175,-4.222,-4.2254,-4.2319,-4.2397,-4.2067,-4.1992,-4.2097,-4.1674,-4.1349,-4.1112,-4.1112,-4.085,-4.0551,-4.0594,-4.068,-4.0711,-4.0329,-4.027,-4.0281,-3.9975,-3.9832,-3.9872,-3.9893,-3.9682,-3.9397,-3.9397,-3.8577,-3.7775,-3.8223,-3.8474,-3.8689,-3.9103,-3.9518,-3.9806,-3.9806,-4.0492,-4.1089,-4.1089,-4.1469,-4.1669,-4.1252,-4.1162,-4.0908,-4.013,-4.0003,-4.0003,-4.0003,-4.0003,-4.0293,-4.1071,-4.1868,-4.2665,-4.3462,-4.4258,-4.5073,-4.5888,-4.6001,-4.6241,-4.6676,-4.6775,-4.6997,-4.7401,-4.802,-4.8724,-4.9572,-5.0475,-5.1161,-5.1551,-5.2072,-5.2412,-5.2565,-5.2603,-5.2679,-5.2698,-5.2735,-5.2493,-5.2212,-5.2677,-5.2673,-5.2354,-5.2783,-5.3211,-5.3583,-5.3583,-5.3915,-5.4359,-4.3628,-4.4039,-4.44,-4.44,-4.5088,-4.638,-4.8663,-4.9001,-4.9001,-4.9001,-4.9001,-4.8325,-4.6549,-4.5974,-4.5466,-4.4891,-4.4671,-4.4587,-4.4587,-4.4776,-4.494,-4.4923,-4.4978,-4.5086,-4.5194,-4.4561,-4.4285,-4.4285,-4.3577,-4.318,-4.3192,-4.3227,-4.3299,-4.3304,-4.2815,-4.2579,-4.2502,-4.193,-4.1622,-4.1569,-4.1604,-4.1604,-4.1604,-4.1604,-4.1648,-4.1666,-4.111,-4.0941,-4.0978,-4.0476,-4.0321,-4.0344,-4.0388,-4.0285,-4.0199,-4.0199,-3.9238,-3.8347,-3.8956,-3.9226,-3.9479,-4.0055,-4.0324,-4.0488,-4.0488,-4.1193,-4.1825,-4.1863,-4.2408,-4.2681,-4.2103,-4.1995,-4.1723,-4.0926,0.0,-4.08,-4.08,-4.0944,-4.1361,-4.2176,-4.2973,-4.3769,-4.4584,-4.5218,-4.5906,-4.6721,-4.6794,-4.7065,-4.7681,-4.7819,-4.7951,-4.8174,-4.8963,-4.9636,-5.0101,-5.1371,-5.211,-5.2338,-5.3005,-5.3418,-5.3616,-5.3656,-5.3676,-5.3793,-5.3793,-5.346,-5.3032,-5.3684,-5.3609,-5.3179,-5.3776,-5.4055,-5.4073,-5.4073,-5.4146,-5.4254,-4.3628,-4.3628,-4.3687,-4.3687,-4.6478,-4.8748,-4.8968,-4.9001,-4.9001,-4.9001,-4.9001,-4.8595,-4.7496,-4.638,-4.5686,-4.5618,-4.4976,-4.4587,-4.4587,-4.4626,-4.4682,-4.4831,-4.4923,-4.5086,-4.5194,-4.4508,-4.4182,-4.4285,-4.3577,-4.3214,-4.3214,-4.3214,-4.3219,-4.3321,-4.3268,-4.2919,-4.2426,-4.2484,-4.2097,-4.142,-4.1569,-4.1604,-4.1604,-4.1604,-4.1604,-4.1631,-4.1683,-4.1709,-4.1735,-4.1803,-4.1895,-4.1926,-4.1943,-4.151,-4.1002,-4.1002,-4.0414,-3.9753,-3.9807,-3.9911,-4.0036,-4.0101,-4.0717,-4.1315,-4.1315,-4.1944,-4.2559,-4.2693,-4.2747,-4.2804,-4.281,-4.281,-4.2538,-4.1759,0.0,0.0,-4.1633,-4.2248,-4.3009,-4.3824,-4.4621,-4.5436,-4.625,-4.6377,-4.6757,-4.7554,-4.7627,-4.7645,-4.7717,-4.7717,-4.8085,-4.8974,-4.9255,-5.0126,-5.1608,-5.188,-5.238,-5.3115,-5.3258,-5.3318,-5.3318,-5.3459,-5.3598,-5.3714,-5.3714,-5.3717,-5.372,-5.3794,-5.3775,-5.372,-5.3775,-5.3888,-5.4019,-5.4019,-5.4037,-5.4127,-4.3628,-4.3628,-4.3628,-4.3628,-4.6234,-4.8373,-4.8373,-4.8373,-4.8373,-4.8373,-4.8564,-4.8416,-4.7636,-4.7147,-4.6566,-4.5788,-4.5449,-4.5077,-4.4604,-4.4587,-4.4626,-4.4682,-4.4776,-4.4886,-4.4923,-4.4759,-4.4712,-4.487,-4.4595,-4.4509,-4.4561,-4.4561,-4.4595,-4.4559,-4.4147,-4.3817,-4.361,-4.2753,-4.2223,-4.1998,-4.1611,-4.1478,-4.1495,-4.1577,-4.1604,-4.1604,-4.1648,-4.1692,-4.1692,-4.1841,-4.1884,-4.1909,-4.2012,-4.1884,-4.1742,-4.1841,-4.1627,-4.1395,-4.1395,-4.1074,-4.082,-4.1346,-4.1707,-4.1962,-4.1962,-4.2253,-4.2566,-4.2606,-4.2627,-4.2688,-4.2804,-4.2842,-4.2734,-4.2502,0.0,-4.319,-4.319,-4.3878,-4.4494,-4.4802,-4.5544,-4.616,-4.6468,-4.6957,-4.7373,-4.7681,-4.7717,-4.7717,-4.7717,-4.8188,-4.8822,-4.9706,-5.0362,-5.1037,-5.181,-5.2346,-5.281,-5.3206,-5.323,-5.3254,-5.33,-5.3359,-5.3459,-5.3598,-5.3656,-5.3695,-5.3716,-5.3774,-5.3813,-5.3813,-5.3813,-5.3851,-5.3907,-5.3907,-5.3926,-5.4055,-4.3628,-4.3628,-4.3628,-4.3628,-4.6046,-4.8001,-4.8001,-4.8001,-4.8001,-4.8001,-4.8244,-4.8283,-4.7905,-4.7698,-4.7238,-4.6347,-4.5916,-4.5483,-4.4976,-4.4705,-4.4587,-4.4587,-4.4682,-4.4737,-4.4776,-4.4886,-4.4978,-4.514,-4.514,-4.523,-4.5319,-4.5353,-4.5371,-4.5406,-4.4889,-4.4561,-4.437,-4.3333,-4.2814,-4.2608,-4.198,-4.169,-4.169,-4.1576,-4.1542,-4.1552,-4.1587,-4.1604,-4.1604,-4.1692,-4.178,-4.1841,-4.1902,-4.2012,-4.2079,-4.2192,-4.2251,-4.2246,-4.2287,-4.1895,-4.1609,-4.2144,-4.2287,-4.2287,-4.2287,-4.2387,-4.2463,-4.2503,-4.2526,-4.2588,-4.2706,-4.2745,-4.2817,-4.3111,-4.3656,-4.4108,-4.44,-4.5124,-4.5631,-4.5671,-4.6395,-4.6884,-4.6884,-4.7391,-4.7717,-4.7717,-4.7935,-4.8188,-4.8442,-4.8985,-4.9655,-5.0434,-5.1103,-5.1635,-5.2028,-5.2663,-5.306,-5.3164,-5.3164,-5.323,-5.3295,-5.3295,-5.3318,-5.344,-5.3539,-5.3616,-5.3656,-5.3716,-5.3793,-5.3793,-5.3813,-5.3813,-5.3813,-5.3813,-5.3851,-5.3944,-4.3628,-4.3628,-4.3628,-4.3628,-4.603,-4.7968,-4.8001,-4.8001,-4.8001,-4.8001,-4.8163,-4.8339,-4.8483,-4.7955,-4.7564,-4.7625,-4.6431,-4.5703,-4.5703,-4.4993,-4.4587,-4.4587,-4.4587,-4.4682,-4.4793,-4.4776,-4.4886,-4.4978,-4.4978,-4.5089,-4.5216,-4.5196,-4.5247,-4.5423,-4.5423,-4.5008,-4.43,-4.444,-4.4058,-4.3232,-4.2645,-4.241,-4.2323,-4.1695,-4.1418,-4.1437,-4.1587,-4.1622,-4.1604,-4.1604,-4.1692,-4.178,-4.178,-4.1884,-4.2012,-4.208,-4.2115,-4.2145,-4.2246,-4.2287,-4.2287,-4.2287,-4.2287,-4.2287,-4.2287,-4.2287,-4.2346,-4.2463,-4.2503,-4.2544,-4.257,-4.2609,-4.2879,-4.367,-4.3814,-4.4124,-4.498,-4.5815,-4.6362,-4.6504,-4.721,-4.7717,-4.7717,-4.7717,-4.7717,-4.7717,-4.846,-4.9275,-5.0053,-5.009,-5.047,-5.1267,-5.1303,-5.1692,-5.259,-5.285,-5.2999,-5.2999,-5.3146,-5.3206,-5.3206,-5.3206,-5.323,-5.33,-5.33,-5.3359,-5.3499,-5.3656,-5.3714,-5.3714,-5.3774,-5.3813,-5.3813,-5.3813,-5.3813,-5.3813,-4.3628,-4.3628,-4.3628,-4.3628,-4.4357,-4.5616,-4.7686,-4.8001,-4.8001,-4.8001,-4.8066,-4.8115,-4.8292,-4.8155,-4.7885,-4.7508,-4.6646,-4.5715,-4.4771,-4.4632,-4.4587,-4.4587,-4.4587,-4.4626,-4.4682,-4.4682,-4.4737,-4.4886,-4.4886,-4.4923,-4.5052,-4.5177,-4.5213,-4.5267,-4.5336,-4.5284,-4.5025,-4.4544,-4.4232,-4.3939,-4.3311,-4.304,-4.3027,-4.291,-4.2917,-4.3015,-4.3074,-4.2794,-4.2447,-4.2447,-4.2078,-4.1692,-4.178,-4.1823,-4.1866,-4.1987,-4.2037,-4.2044,-4.2121,-4.2163,-4.2187,-4.2287,-4.2287,-4.2287,-4.2287,-4.2287,-4.2328,-4.2346,-4.2346,-4.2387,-4.2526,-4.2956,-4.3427,-4.376,-4.4749,-4.5558,-4.5834,-4.6518,-4.7003,-4.7047,-4.7367,-4.7554,-4.7554,-4.8182,-4.855,-4.855,-4.9293,-4.9836,-5.0071,-5.0633,-5.1049,-5.1285,-5.1846,-5.229,-5.2508,-5.2672,-5.2787,-5.2999,-5.3042,-5.3103,-5.3206,-5.3206,-5.3206,-5.323,-5.3277,-5.33,-5.3359,-5.3499,-5.3616,-5.3714,-5.3734,-5.3754,-5.3813,-5.3813,-5.3813,-5.3813,-4.3628,-4.3628,-4.3628,-4.3628,-4.3628,-4.4605,-4.7554,-4.8001,-4.8001,-4.8001,-4.8001,-4.8001,-4.8115,-4.8163,-4.8061,-4.7738,-4.6831,-4.5848,-4.4716,-4.4495,-4.4457,-4.4497,-4.4497,-4.4514,-4.4587,-4.4587,-4.4626,-4.4737,-4.4737,-4.4776,-4.4923,-4.4978,-4.5052,-4.5108,-4.5283,-4.53,-4.5283,-4.4889,-4.4751,-4.4665,-4.399,-4.3694,-4.369,-4.3513,-4.3478,-4.3565,-4.3637,-4.3483,-4.3144,-4.3237,-4.2921,-4.2464,-4.2255,-4.2212,-4.2141,-4.1982,-4.1927,-4.1934,-4.2012,-4.2055,-4.2097,-4.2205,-4.2246,-4.2287,-4.2287,-4.2287,-4.2287,-4.2287,-4.2287,-4.2435,-4.2816,-4.3263,-4.3805,-4.4474,-4.5412,-4.6165,-4.6532,-4.6962,-4.7276,-4.732,-4.7363,-4.7594,-4.7962,-4.8475,-4.9123,-4.9818,-5.0289,-5.0705,-5.1013,-5.1502,-5.1756,-5.1756,-5.2245,-5.2498,-5.2498,-5.2554,-5.2672,-5.2831,-5.2937,-5.3042,-5.3103,-5.3164,-5.3206,-5.3206,-5.323,-5.3254,-5.3254,-5.3378,-5.3459,-5.3558,-5.3656,-5.3734,-5.3754,-5.3774,-5.3813,-5.3813,-4.3628,-4.3628,-4.3628,-4.3628,-4.3628,-4.4605,-4.7554,-4.7918,-4.7901,-4.7984,-4.8001,-4.8001,-4.8001,-4.8115,-4.8163,-4.8163,-4.7003,-4.5989,-4.5193,-4.4516,-4.4155,-4.4253,-4.431,-4.4367,-4.457,-4.457,-4.4587,-4.4587,-4.4587,-4.4682,-4.4776,-4.4776,-4.4886,-4.4978,-4.514,-4.5177,-4.5177,-4.5318,-4.5371,-4.5302,-4.4665,-4.4389,-4.4336,-4.3715,-4.3494,-4.3527,-4.3756,-4.3825,-4.3803,-4.3875,-4.3904,-4.3781,-4.3114,-4.2903,-4.2791,-4.2088,-4.1886,-4.1886,-4.198,-4.2005,-4.1987,-4.2079,-4.2258,-4.2376,-4.2305,-4.2287,-4.2287,-4.2287,-4.2341,-4.2626,-4.3375,-4.3625,-4.4178,-4.557,-4.5856,-4.6222,-4.7044,-4.7196,-4.7223,-4.7276,-4.7258,-4.7625,-4.8568,-4.8846,-4.9613,-5.1285,-5.1393,-5.1719,-5.2462,-5.2498,-5.2498,-5.2498,-5.2498,-5.2498,-5.2498,-5.2498,-5.2508,-5.259,-5.285,-5.2999,-5.2999,-5.3121,-5.3206,-5.3206,-5.3206,-5.3206,-5.3206,-5.3254,-5.33,-5.3318,-5.3558,-5.3656,-5.3695,-5.3736,-5.3774,-5.3813,-4.3628,-4.3628,-4.3628,-4.3628,-4.3628,-4.4605,-4.7554,-4.7338,-4.7123,-4.7901,-4.8001,-4.8001,-4.8001,-4.8001,-4.8049,-4.8049,-4.6816,-4.5774,-4.4997,-4.444,-4.4097,-4.4155,-4.4155,-4.4212,-4.4367,-4.4514,-4.4587,-4.4587,-4.4587,-4.4626,-4.4626,-4.4737,-4.4831,-4.4831,-4.4978,-4.5032,-4.5032,-4.5194,-4.523,-4.523,-4.5181,-4.5147,-4.5164,-4.501,-4.4992,-4.5112,-4.5199,-4.495,-4.4537,-4.4067,-4.3904,-4.3869,-4.3711,-4.3652,-4.3504,-4.2791,-4.257,-4.2474,-4.1974,-4.1841,-4.1884,-4.1987,-4.2559,-4.297,-4.243,-4.2287,-4.2287,-4.2287,-4.2804,-4.3304,-4.3483,-4.45,-4.541,-4.5749,-4.632,-4.6801,-4.7007,-4.7043,-4.7043,-4.707,-4.7178,-4.7528,-4.8326,-4.9703,-5.104,-5.2172,-5.2226,-5.2317,-5.248,-5.2498,-5.2498,-5.2498,-5.2498,-5.2498,-5.2498,-5.2498,-5.2508,-5.259,-5.2654,-5.2806,-5.2999,-5.3042,-5.3103,-5.3206,-5.3206,-5.3206,-5.3206,-5.3206,-5.3254,-5.3318,-5.3359,-5.3459,-5.3539,-5.3579,-5.3637,-5.3734,-4.3628,-4.3628,-4.3628,-4.3628,-4.3628,-4.4307,-4.6311,-4.656,-4.6742,-4.7388,-4.7785,-4.8001,-4.8001,-4.8001,-4.7868,-4.7504,-4.649,-4.559,-4.4859,-4.4205,-4.3923,-4.3998,-4.3998,-4.4056,-4.4196,-4.4327,-4.4457,-4.4587,-4.4587,-4.4587,-4.4587,-4.4682,-4.4682,-4.4737,-4.4831,-4.4869,-4.4923,-4.5032,-4.5069,-4.514,-4.5247,-4.5283,-4.5302,-4.5353,-4.5458,-4.5492,-4.5598,-4.5526,-4.5376,-4.5023,-4.4962,-4.4957,-4.4581,-4.4483,-4.4349,-4.3535,-4.3325,-4.3254,-4.2906,-4.2783,-4.2846,-4.297,-4.3342,-4.3518,-4.291,-4.3084,-4.3393,-4.3393,-4.3732,-4.4161,-4.4535,-4.5267,-4.5927,-4.6302,-4.673,-4.6998,-4.6998,-4.6998,-4.6998,-4.6998,-4.7382,-4.8153,-4.9328,-5.0753,-5.1795,-5.2257,-5.2358,-5.2405,-5.2405,-5.2452,-5.2498,-5.2498,-5.2498,-5.2498,-5.2498,-5.2498,-5.2526,-5.2536,-5.2563,-5.268,-5.2787,-5.2937,-5.3042,-5.3103,-5.3164,-5.3206,-5.3243,-5.361,-5.3579,-5.329,-5.37,-5.3691,-5.34,-5.3499,-5.3539,-5.3598,-4.3568,-4.3628,-4.3628,-4.3628,-4.3628,-4.3959,-4.4953,-4.5732,-4.6378,-4.6841,-4.7438,-4.7868,-4.7984,-4.8001,-4.7703,-4.6957,-4.6228,-4.5483,-4.4738,-4.4026,-4.3687,-4.3839,-4.3839,-4.3939,-4.4039,-4.4056,-4.4212,-4.457,-4.457,-4.457,-4.4587,-4.4587,-4.4587,-4.457,-4.4737,-4.4793,-4.4776,-4.494,-4.4995,-4.4978,-4.514,-4.5178,-4.5233,-4.5336,-4.5371,-4.5423,-4.5528,-4.5718,-4.5922,-4.5957,-4.6023,-4.6067,-4.5446,-4.525,-4.5133,-4.4343,-4.4097,-4.4079,-4.3939,-4.3904,-4.395,-4.4014,-4.4184,-4.4205,-4.3757,-4.4138,-4.4581,-4.4581,-4.4688,-4.5017,-4.5677,-4.5909,-4.6212,-4.6873,-4.6998,-4.6998,-4.6998,-4.6998,-4.6998,-4.6998,-4.78,-4.8972,-5.0546,-5.152,-5.2102,-5.2102,-5.2198,-5.2264,-5.2264,-5.2405,-5.2452,-5.2452,-5.2498,-5.2498,-5.2498,-5.2498,-5.2498,-5.2498,-5.2536,-5.2608,-5.259,-5.285,-5.2937,-5.2999,-5.3103,-5.3164,-5.3219,-5.3922,-5.3812,-5.3261,-5.3989,-5.3865,-5.3277,-5.34,-5.3459,-5.3459,-4.3509,-4.3628,-4.3628,-4.3628,-4.3628,-4.3959,-4.4953,-4.5003,-4.54,-4.6725,-4.699,-4.7289,-4.7934,-4.8001,-4.7703,-4.6957,-4.6228,-4.5483,-4.4738,-4.4026,-4.3628,-4.3628,-4.3628,-4.3763,-4.3898,-4.3956,-4.4056,-4.4367,-4.4367,-4.444,-4.4587,-4.4587,-4.4587,-4.4587,-4.4626,-4.4643,-4.4626,-4.4776,-4.4831,-4.4831,-4.4978,-4.5089,-4.518,-4.5211,-4.5299,-4.5423,-4.5423,-4.5546,-4.5666,-4.577,-4.592,-4.5982,-4.59,-4.595,-4.5923,-4.5168,-4.494,-4.4782,-4.4079,-4.3904,-4.3886,-4.3904,-4.4525,-4.5112,-4.5052,-4.4759,-4.4503,-4.4503,-4.5107,-4.5677,-4.5784,-4.6373,-4.6855,-4.6962,-4.6998,-4.6998,-4.6998,-4.6998,-4.6998,-4.6998,-4.8264,-4.9561,-5.0599,-5.1423,-5.1956,-5.2102,-5.2102,-5.215,-5.215,-5.2246,-5.2311,-5.2311,-5.2452,-5.2498,-5.2498,-5.2498,-5.2498,-5.2498,-5.248,-5.2554,-5.259,-5.2654,-5.2698,-5.285,-5.2955,-5.3042,-5.3042,-5.3274,-5.3316,-5.3225,-5.3316,-5.3298,-5.323,-5.3277,-5.3318,-5.3359,-4.3146,-4.3251,-4.3372,-4.3492,-4.3509,-4.3641,-4.4208,-4.4506,-4.492,-4.5582,-4.6378,-4.7023,-4.7355,-4.7388,-4.709,-4.6344,-4.5599,-4.487,-4.4141,-4.3794,-4.3628,-4.3628,-4.3628,-4.3628,-4.3704,-4.3763,-4.3881,-4.4114,-4.4155,-4.427,-4.444,-4.444,-4.4497,-4.4587,-4.4587,-4.4587,-4.457,-4.4682,-4.4682,-4.4682,-4.4831,-4.494,-4.4958,-4.5032,-4.5174,-4.528,-4.5388,-4.5511,-4.5632,-4.565,-4.5787,-4.587,-4.5889,-4.5957,-4.592,-4.5688,-4.5583,-4.5544,-4.5242,-4.5185,-4.5185,-4.5185,-4.5515,-4.5778,-4.5778,-4.5705,-4.5581,-4.5645,-4.6049,-4.6372,-4.6372,-4.6702,-4.6998,-4.6998,-4.6998,-4.6998,-4.6998,-4.6998,-4.7319,-4.8193,-4.9299,-5.0298,-5.1182,-5.1593,-5.179,-5.1889,-5.1956,-5.2005,-5.2005,-5.2102,-5.2198,-5.2198,-5.2311,-5.2405,-5.2405,-5.2452,-5.2498,-5.2498,-5.2498,-5.2526,-5.2554,-5.2563,-5.2635,-5.2698,-5.285,-5.2912,-5.293,-5.3493,-5.3506,-5.314,-5.3659,-5.361,-5.3206,-5.323,-5.3254,-5.3272]}]]